GFSNW_500_spd_003.txt.gz
Wind_Speed
35 18 11 13 12 13 8 7 19 50 52 51 38 44 44 43 31 35 37 36 36 35 33 27 20 21 25 28 22 18 23 28 23 23 34 37 38 35 35 31 37 39 38 30
31 12 8 10 14 9 9 21 27 46 47 55 37 36 37 35 29 31 36 37 35 37 30 22 20 20 25 17 15 15 20 22 25 27 30 32 34 30 25 26 34 23 30 19
30 20 19 14 15 18 15 26 20 45 38 37 36 33 36 30 26 27 34 35 35 32 21 21 18 21 15 8 13 15 16 14 21 24 29 35 33 27 22 23 18 16 13 9
25 21 17 17 25 34 22 16 27 43 32 30 33 35 26 25 23 27 30 32 32 26 20 21 18 17 5 6 12 15 14 11 16 16 15 19 25 17 11 8 4 3 4 6
22 19 17 17 31 27 26 17 27 38 32 26 21 24 26 22 21 21 21 24 27 20 20 18 15 13 6 5 9 10 9 8 14 14 12 10 12 6 6 3 7 8 5 6
11 16 10 25 26 28 24 17 31 38 29 26 18 15 19 20 19 17 18 20 19 18 15 15 17 14 8 6 3 5 9 12 10 16 22 20 11 6 3 4 8 7 8 15
14 11 15 27 24 23 19 23 34 35 27 19 18 19 21 20 19 17 16 15 16 14 13 15 16 12 6 3 3 8 11 10 10 17 22 27 17 10 8 4 4 11 8 14
9 7 14 22 16 18 21 21 25 33 23 23 26 24 17 17 19 15 15 13 9 11 14 13 12 12 9 4 2 4 7 7 10 19 17 18 16 16 18 15 13 14 16 20
4 11 21 22 15 20 19 20 31 19 28 23 19 15 15 16 17 16 13 9 9 9 14 11 10 14 14 8 2 2 3 3 5 7 12 20 21 20 22 23 24 23 18 22
12 17 21 20 26 17 21 17 18 24 26 22 19 14 13 15 15 12 9 8 9 9 15 12 11 13 18 12 7 6 3 1 2 2 7 9 11 14 15 11 14 19 18 16
8 26 26 18 22 25 19 19 23 20 18 24 21 17 14 13 15 12 11 11 10 9 10 12 9 13 22 17 13 14 10 7 6 5 4 5 7 7 6 4 7 12 13 13
17 26 35 28 25 26 27 23 17 21 19 19 19 21 16 11 15 13 14 16 16 14 12 11 11 15 21 26 22 19 18 12 8 6 8 7 6 6 6 4 4 3 4 6
30 14 42 36 33 29 31 29 20 24 26 20 18 19 14 10 20 19 16 20 18 9 7 9 11 14 20 22 25 23 22 18 14 10 8 8 9 8 8 9 7 7 6 6
45 18 31 41 38 38 34 28 27 26 28 26 19 18 17 15 18 15 18 15 12 11 6 7 10 16 18 20 22 24 22 19 18 12 10 9 8 7 6 7 8 8 6 6
55 23 22 41 44 41 38 30 31 30 23 23 19 16 17 15 20 18 14 12 13 13 10 7 12 17 18 18 19 20 21 20 16 14 13 12 11 5 6 9 7 4 3 5
59 28 17 45 48 47 43 38 36 33 29 25 17 13 19 16 17 16 14 12 12 11 14 9 13 18 18 16 18 17 20 21 15 13 12 13 12 7 7 9 7 3 2 3
58 31 14 46 55 52 47 42 40 34 33 29 21 13 16 17 15 15 13 14 14 12 7 9 16 16 15 10 15 23 21 17 16 12 12 14 15 11 9 10 7 5 4 1
59 32 15 41 58 54 49 44 43 40 34 32 27 17 16 16 14 16 16 17 16 13 10 10 16 16 13 11 19 21 21 20 19 17 13 14 16 14 12 12 12 9 3 4
60 37 13 34 56 53 50 43 40 37 34 31 23 19 17 18 18 19 20 16 14 13 11 10 17 15 13 14 15 17 16 17 21 22 20 18 16 15 17 18 19 19 15 11
58 38 7 32 55 52 49 42 37 37 37 28 21 21 20 21 20 20 18 16 15 14 10 12 11 13 15 13 12 13 13 13 14 16 18 19 20 18 12 8 4 9 10 12
52 31 2 33 55 51 46 38 37 40 37 26 19 20 24 25 24 23 20 16 15 14 11 9 14 19 14 14 14 14 11 12 8 9 14 17 17 14 12 11 14 11 12 10
42 20 10 35 50 45 36 34 36 37 33 22 18 21 24 28 28 26 22 17 18 14 12 10 11 16 15 17 14 14 14 12 10 7 11 17 17 14 11 9 8 10 13 14
28 11 15 33 42 37 41 38 35 34 31 24 15 19 20 24 27 26 23 20 20 19 15 15 12 13 15 19 15 15 14 13 14 12 12 12 9 7 6 7 7 8 9 11
22 3 16 38 37 27 39 38 35 34 32 27 22 21 18 20 24 27 24 23 21 22 17 19 16 14 17 21 21 19 20 18 18 17 15 13 12 11 11 11 12 14 15 18
29 2 21 34 40 27 28 35 32 34 32 29 25 23 21 23 23 24 24 23 22 19 19 21 18 15 16 19 21 19 19 20 21 21 20 19 19 19 18 19 20 21 22 22
33 16 15 34 41 36 29 33 35 35 34 31 27 25 22 21 24 23 24 22 18 20 21 21 20 17 16 15 15 19 21 21 21 22 22 23 23 23 22 23 24 24 22 20
20 25 14 19 38 44 38 36 36 36 36 34 35 32 29 24 23 21 17 15 22 27 27 27 26 22 17 16 16 16 17 22 25 25 24 24 23 22 22 20 20 21 22 22

GFSNW_500_spd_006.txt.gz
Wind_Speed
48 26 15 9 12 16 15 11 9 35 61 48 48 38 37 35 34 26 26 31 37 31 29 30 30 25 18 18 18 21 25 21 21 21 22 27 32 32 35 42 41 43 41 35
40 32 7 8 15 18 16 18 12 41 51 42 45 37 28 27 33 25 30 30 35 33 32 30 23 19 18 17 17 19 19 18 20 15 19 24 23 26 30 28 32 29 33 25
32 25 14 20 26 26 16 17 16 42 45 33 35 34 35 31 31 28 29 33 36 39 36 29 21 20 18 12 18 14 14 17 15 15 19 24 26 27 24 24 25 18 17 10
24 18 20 28 23 20 16 11 29 51 31 34 28 32 31 28 30 28 28 31 34 33 30 23 20 19 13 16 15 10 10 5 6 13 18 21 24 22 23 25 17 15 8 3
22 15 24 18 18 20 12 19 45 29 36 27 23 27 30 29 28 26 27 31 30 26 20 20 17 16 13 15 9 6 3 3 5 10 14 17 17 14 19 19 16 13 9 15
17 12 16 15 16 20 15 29 34 29 23 25 19 22 24 21 20 19 24 26 20 17 15 18 18 14 15 12 7 3 4 1 1 6 11 16 16 16 12 11 11 11 12 11
17 3 7 14 12 10 13 30 35 25 24 24 26 26 21 16 16 17 17 13 14 15 16 17 18 16 14 12 7 1 3 3 6 9 8 16 17 13 11 11 10 6 8 3
24 5 1 8 9 8 8 19 24 22 19 17 16 16 18 19 18 17 17 15 15 15 16 17 15 15 15 12 8 4 1 3 10 13 11 12 11 12 12 11 14 6 9 12
33 8 10 8 8 6 7 18 25 21 17 16 18 23 24 24 21 19 18 15 13 14 16 16 13 16 17 14 9 6 3 1 4 4 7 9 8 13 14 17 16 13 3 7
46 13 15 18 14 12 13 16 25 21 18 19 22 17 21 24 22 19 15 8 11 11 14 16 15 19 21 19 13 10 6 6 2 1 1 3 5 7 8 9 14 13 13 15
49 33 21 24 22 22 14 16 25 22 21 20 18 18 18 21 22 21 16 11 9 8 11 15 18 21 23 24 17 11 8 6 4 3 3 4 3 2 5 5 6 7 10 8
49 51 20 33 35 32 27 23 19 23 25 19 21 19 16 18 22 19 16 12 9 8 9 10 21 21 25 27 23 15 12 11 9 7 7 7 6 6 7 8 5 2 1 3
50 55 49 27 41 33 34 30 26 28 22 17 24 20 20 16 17 17 14 11 12 11 9 10 17 20 25 29 27 22 18 16 15 11 7 9 9 9 11 12 8 3 2 1
52 58 59 23 41 45 32 32 31 29 23 22 16 21 21 14 8 18 15 13 14 14 10 6 13 17 23 25 26 26 23 20 18 17 13 12 10 10 11 10 9 7 6 4
55 63 62 30 29 51 45 38 34 31 26 29 21 20 19 15 14 17 16 15 14 12 9 9 10 16 19 24 25 22 25 24 21 19 15 12 13 10 9 7 5 4 4 5
57 67 58 27 23 48 48 44 39 32 28 27 28 20 16 15 15 18 15 13 10 11 11 12 13 17 19 18 16 21 23 26 21 16 13 11 14 11 9 9 6 2 2 5
60 69 57 22 22 49 51 45 40 32 30 28 26 20 15 19 15 15 13 12 11 13 13 10 12 16 16 15 18 21 22 17 17 15 11 11 15 14 8 6 9 5 4 4
62 69 57 20 23 51 52 47 41 34 39 31 27 19 11 14 18 16 14 12 11 14 15 10 11 18 12 12 19 16 20 18 16 17 14 12 15 16 13 12 11 10 8 3
62 66 50 13 26 53 54 47 42 37 39 35 31 21 14 13 16 16 15 15 13 13 14 11 8 14 14 22 19 17 16 15 17 20 20 17 14 14 13 14 14 15 16 14
61 61 39 4 30 51 49 45 42 38 35 31 28 24 19 15 15 17 17 15 13 11 12 11 10 13 20 18 16 15 14 15 14 15 19 21 20 19 17 14 13 9 13 16
56 52 29 8 37 48 42 45 43 37 35 32 26 23 21 19 17 17 17 15 12 10 9 10 9 11 16 14 13 11 9 9 9 11 14 19 19 19 18 14 14 9 9 11
47 41 16 29 42 41 39 38 38 34 33 29 23 20 19 18 17 18 18 18 15 12 10 10 10 8 15 16 15 14 11 10 11 8 9 13 16 13 15 17 14 10 11 12
40 27 7 35 41 36 32 32 37 37 32 26 20 19 17 16 18 18 20 21 19 16 13 11 12 12 10 15 15 16 12 11 11 10 8 10 16 19 16 14 11 9 9 7
33 21 10 31 38 36 25 26 31 32 29 27 21 18 16 16 17 18 18 20 20 18 13 15 13 12 13 13 15 18 15 13 12 12 12 13 16 16 13 10 9 8 9 11
22 25 4 24 37 38 36 28 27 28 30 29 28 23 18 18 18 16 17 20 20 20 18 15 15 15 14 14 16 19 20 18 19 18 17 15 14 14 14 13 13 14 15 17
14 19 16 5 23 37 36 37 32 29 28 28 32 31 25 23 23 22 22 22 17 19 19 18 17 16 14 13 15 15 20 20 21 23 22 22 21 21 21 20 20 21 20 20
11 10 13 13 11 29 38 35 35 34 32 32 34 32 30 28 26 21 15 13 21 25 25 24 23 19 17 15 15 16 17 19 22 23 23 24 25 24 23 23 22 21 20 19

GFSNW_500_spd_009.txt.gz
Wind_Speed
62 40 25 11 10 11 9 6 7 18 31 46 53 33 37 38 35 36 32 26 30 28 25 28 30 30 28 25 21 22 24 24 25 27 29 32 31 32 34 40 40 48 44 39
63 31 25 17 19 17 16 12 9 24 38 44 35 32 27 31 26 22 27 26 27 29 28 26 27 27 22 20 21 21 22 21 23 23 25 25 22 26 32 38 41 39 40 34
60 22 27 26 24 24 19 15 18 33 48 46 36 27 19 30 24 22 25 28 26 32 28 25 25 21 19 19 19 19 20 19 21 17 16 21 20 20 27 34 37 36 36 34
56 22 23 27 26 24 18 11 28 41 38 39 33 24 23 28 20 22 20 20 22 30 28 25 20 19 18 19 18 17 15 16 11 11 10 16 21 23 23 29 30 36 23 35
54 30 23 23 31 27 10 19 39 30 28 30 24 22 23 24 25 25 20 19 23 28 28 27 24 23 20 18 16 12 12 10 11 9 11 16 18 18 20 27 31 33 33 26
56 30 28 28 28 25 17 30 23 25 22 24 22 21 19 17 19 17 18 18 17 19 21 22 22 20 19 15 12 12 10 10 9 8 10 13 17 18 19 25 27 25 29 35
52 35 23 25 21 17 17 22 14 19 19 12 18 21 19 18 20 22 21 21 17 15 16 17 20 21 16 13 14 12 8 5 5 6 6 7 14 18 20 23 24 20 16 20
42 44 18 13 9 9 4 20 20 15 19 12 14 19 18 16 15 13 15 14 13 15 16 17 19 17 15 13 16 12 6 6 2 2 4 4 9 13 18 20 23 20 14 22
40 37 30 9 11 11 8 12 11 12 17 26 20 20 20 17 15 15 14 15 14 15 17 19 18 16 14 16 16 12 8 7 6 5 4 3 8 9 17 21 23 23 16 11
44 37 35 23 14 14 17 10 15 16 15 17 18 17 19 18 18 19 17 16 15 16 18 19 18 15 14 18 20 14 10 10 7 6 6 4 6 10 12 15 19 22 24 8
41 42 38 37 15 22 24 23 17 21 14 9 15 18 21 24 24 23 16 14 15 14 15 18 18 16 16 21 22 17 12 11 9 8 8 7 8 9 12 13 14 17 18 18
41 44 43 39 43 21 32 30 23 29 23 16 14 19 18 24 23 26 18 15 15 13 12 14 16 18 19 23 25 22 17 15 13 10 11 11 10 10 11 14 12 11 11 10
41 46 49 45 48 34 41 40 31 30 32 26 21 20 20 23 25 23 21 16 15 12 10 11 15 18 22 24 27 28 24 20 16 13 12 10 10 12 13 14 14 10 7 7
44 49 51 52 57 37 33 46 39 31 32 30 26 26 22 22 26 24 21 17 13 12 11 10 13 18 23 25 26 28 29 26 22 17 15 13 12 11 13 13 14 12 9 8
47 52 54 58 64 35 33 51 47 41 33 32 26 23 28 25 20 18 22 19 16 12 12 11 13 16 20 24 26 25 27 29 26 21 18 15 13 13 12 11 10 6 6 7
50 55 57 64 59 32 30 53 49 43 39 33 29 23 27 27 21 18 19 21 17 13 12 9 13 16 18 18 19 23 27 27 22 19 17 12 11 12 12 9 7 3 4 8
51 56 60 69 51 21 31 54 48 47 39 31 33 26 24 22 21 18 20 18 12 9 10 10 12 14 17 14 12 22 28 24 18 16 15 12 12 14 14 8 7 10 8 10
50 56 63 65 36 16 33 56 48 43 39 32 30 29 24 18 19 16 18 16 12 8 7 10 10 12 13 10 24 23 18 16 14 14 15 13 12 16 16 13 9 10 11 10
49 56 63 49 14 16 36 53 46 41 39 33 28 27 23 15 16 20 18 16 13 8 8 10 9 10 12 22 19 16 14 13 14 14 15 16 15 15 17 16 14 13 14 14
46 51 56 31 4 25 43 46 44 41 37 32 27 28 21 15 11 14 16 15 12 9 9 9 10 8 11 16 20 19 17 13 13 14 16 20 21 18 16 16 14 16 18 17
41 46 43 18 20 35 39 39 40 40 34 34 30 28 23 18 14 12 12 11 11 9 10 10 9 8 7 16 17 16 16 11 11 13 15 17 20 23 21 19 18 16 12 10
34 38 31 6 30 36 34 38 37 36 31 31 31 29 25 20 16 14 12 11 11 13 11 11 9 9 7 8 16 15 11 12 10 10 12 14 16 18 21 20 17 15 13 12
26 31 22 3 30 28 27 35 34 32 28 27 27 25 22 20 16 13 13 14 14 15 13 10 13 10 10 6 10 14 11 11 10 11 9 6 11 17 16 14 17 16 15 12
18 21 15 4 23 26 22 25 28 26 24 24 25 26 23 20 18 17 15 16 15 13 13 15 15 14 11 10 7 12 16 15 11 11 10 9 9 19 21 21 17 16 14 12
13 13 11 3 17 27 29 26 26 27 27 28 27 25 22 21 21 17 15 14 13 11 14 17 17 16 15 13 12 11 13 16 16 16 14 13 13 16 18 17 16 14 14 13
10 9 8 3 12 25 33 32 28 28 28 30 31 31 29 27 24 20 18 17 17 17 17 17 19 19 17 14 14 14 13 16 18 21 21 20 19 18 19 20 19 18 18 18
11 10 9 7 2 16 28 34 36 31 27 30 33 35 35 34 32 27 21 15 18 20 20 19 18 19 20 19 17 15 15 16 16 18 21 24 25 25 25 24 24 23 23 23

GFSNW_500_spd_012.txt.gz
Wind_Speed
72 61 49 47 52 39 30 20 5 18 34 42 43 18 26 20 34 38 25 22 21 28 29 27 26 26 23 22 21 19 19 18 21 24 26 29 29 28 31 37 37 44 44 44
67 56 53 54 50 36 27 16 10 21 33 50 37 23 18 17 28 33 28 21 16 22 27 29 28 25 24 22 20 17 18 18 20 22 25 25 22 25 31 34 34 34 40 42
62 52 51 54 51 32 26 19 18 32 42 35 23 20 22 18 21 30 29 19 15 26 23 25 26 25 22 19 16 18 19 16 19 21 23 16 16 20 23 25 31 39 35 42
57 48 45 51 49 26 33 22 27 42 39 22 24 16 18 20 16 18 23 20 20 24 22 21 20 19 17 16 17 18 15 15 16 20 13 15 17 19 20 22 28 35 36 36
52 44 38 42 37 23 36 23 34 30 24 22 21 15 22 21 14 14 14 15 15 17 21 19 13 13 14 15 15 15 15 14 14 15 11 12 15 14 14 20 27 34 35 30
47 44 29 31 25 25 26 23 24 16 16 13 14 12 14 20 13 11 10 10 8 7 14 18 17 17 16 15 15 14 13 12 15 12 12 10 8 9 17 22 27 37 32 28
40 39 30 19 21 5 15 19 15 11 7 7 6 9 10 8 10 10 9 10 11 10 6 12 16 17 18 17 15 14 11 12 10 10 9 5 5 10 16 21 25 32 29 22
35 37 31 26 13 10 5 3 18 13 9 9 11 10 9 12 12 13 14 15 14 11 12 10 14 17 17 16 13 14 12 11 9 7 5 5 8 11 14 20 24 26 28 29
30 32 32 25 22 12 12 8 14 22 19 11 8 12 14 13 12 13 13 13 12 8 9 11 13 14 13 13 13 13 13 12 11 7 5 7 10 10 16 18 21 25 27 23
29 31 31 31 23 20 17 16 16 16 18 22 25 23 22 19 17 15 13 10 11 10 14 16 16 15 13 13 14 17 15 13 11 9 7 8 11 13 14 17 18 20 20 23
30 31 31 32 32 25 23 22 24 25 21 22 22 21 27 24 21 18 17 15 15 16 17 18 19 17 16 13 15 18 16 14 13 10 9 10 13 13 13 15 18 18 17 18
30 33 34 34 35 35 30 23 28 35 26 26 21 22 23 22 22 21 20 17 17 17 17 17 17 16 16 16 15 18 18 17 14 13 12 13 13 13 12 14 16 16 14 14
34 36 38 39 40 41 40 38 25 41 36 32 24 19 19 18 23 25 24 18 19 17 15 13 13 15 16 18 18 19 22 21 18 16 16 16 14 12 12 14 15 15 12 10
38 39 40 43 48 49 49 47 28 48 42 38 30 25 20 21 24 25 29 16 17 17 14 12 12 16 19 20 20 19 23 23 23 21 18 17 16 14 14 14 14 14 11 8
40 41 45 49 54 57 58 45 29 54 48 40 38 35 24 23 24 24 26 24 19 16 14 12 12 15 18 19 19 18 22 26 23 23 21 20 19 16 14 13 12 10 6 7
41 44 49 54 60 64 59 31 31 54 48 42 39 34 30 26 25 24 25 23 21 18 15 13 12 16 18 15 15 20 24 28 26 19 18 19 18 15 13 12 9 8 7 8
41 46 52 58 63 61 38 16 30 55 47 40 35 36 31 22 29 24 16 15 19 21 16 11 11 13 16 12 18 24 25 24 21 16 17 15 15 16 15 13 11 9 10 9
40 47 52 58 58 39 6 17 43 50 41 38 34 30 26 22 25 24 20 18 18 17 13 8 8 12 11 13 18 17 17 13 9 10 13 16 16 15 16 15 14 9 9 10
38 43 49 54 39 10 9 33 49 42 36 38 31 28 24 22 19 17 19 14 19 16 10 8 7 8 9 9 11 9 9 7 8 11 13 14 18 16 16 17 16 13 12 13
33 39 44 44 25 2 26 41 38 33 34 31 25 29 26 21 17 14 16 16 15 12 11 7 8 9 5 4 10 12 12 11 10 12 15 17 18 19 16 17 17 15 15 15
28 34 38 34 12 22 32 35 32 32 31 28 23 23 25 21 14 8 10 11 12 12 11 8 9 10 6 6 11 14 14 14 15 17 17 18 20 19 19 19 17 16 16 15
21 26 30 22 7 26 31 32 29 28 27 25 22 21 24 20 12 9 7 8 9 11 12 11 13 10 9 4 10 15 16 14 14 14 14 16 18 20 19 21 20 18 14 17
15 19 21 10 9 25 26 25 24 22 21 20 24 23 22 19 16 13 12 9 9 10 11 16 14 13 12 9 4 12 15 13 12 13 13 11 10 14 20 17 18 16 17 19
10 13 13 4 10 23 22 23 21 21 23 20 22 25 24 21 19 16 14 13 12 10 10 11 15 15 15 14 10 7 12 17 15 14 13 11 7 8 14 17 13 14 21 19
8 10 7 1 9 21 23 22 25 23 23 23 21 23 23 23 23 21 17 14 11 9 9 9 11 14 15 14 15 12 9 9 15 19 12 11 9 11 17 22 24 24 22 19
11 9 8 4 7 17 22 25 23 25 26 24 24 24 25 23 24 22 20 17 14 15 13 12 12 12 14 15 15 16 15 12 11 14 16 16 16 14 15 18 20 20 19 18
14 12 12 9 6 9 20 23 27 28 28 27 27 27 29 30 29 27 24 20 18 20 18 16 14 14 15 16 16 18 18 16 15 13 17 19 21 22 21 20 21 22 22 22

GFSNW_500_spd_015.txt.gz
Wind_Speed
59 64 67 66 55 35 25 27 51 40 41 38 37 32 35 32 27 22 20 16 23 29 25 25 24 23 21 19 17 14 12 10 12 15 17 17 19 21 22 24 25 25 27 28
54 59 62 65 49 33 26 32 47 39 39 34 34 29 27 21 24 27 18 13 22 26 23 25 23 21 20 19 17 14 12 12 15 16 15 16 15 19 21 21 23 17 27 29
48 53 56 58 47 29 31 43 33 28 32 31 27 24 17 20 22 22 21 15 14 20 23 23 21 21 20 18 15 14 13 13 15 14 15 14 15 16 16 16 15 17 27 34
43 44 49 49 44 28 37 37 27 25 27 22 27 20 18 18 21 25 17 8 7 15 17 22 22 20 19 17 16 13 13 14 12 15 14 11 11 10 10 12 17 24 27 27
37 38 39 38 36 22 33 20 21 21 15 16 15 15 15 15 17 12 14 9 6 6 16 15 16 17 17 16 15 14 11 11 12 14 11 11 10 7 9 14 20 22 24 26
32 33 32 30 26 13 19 16 12 11 15 14 8 4 7 5 6 4 6 5 5 3 12 17 15 15 15 14 14 11 9 10 12 11 10 8 7 3 7 15 20 22 23 22
30 28 28 25 18 12 3 15 13 6 1 1 4 6 2 8 7 3 2 2 4 4 5 12 17 16 15 13 12 11 10 11 11 9 10 8 6 3 8 14 19 21 23 22
26 27 24 23 19 12 4 7 13 21 16 12 10 6 3 3 6 13 13 10 8 9 7 5 7 16 16 15 13 11 12 12 10 10 8 7 6 3 7 12 18 20 23 25
24 26 24 22 20 16 12 11 14 22 24 16 15 14 15 14 10 9 12 13 11 10 10 6 9 12 12 14 14 14 13 13 11 11 7 7 8 6 9 13 16 18 20 19
24 24 25 23 22 20 17 12 18 22 27 26 20 18 16 16 16 16 13 14 14 12 9 10 12 11 10 11 11 12 14 12 12 11 9 9 8 7 9 13 15 16 17 18
27 24 25 26 25 24 24 21 17 19 28 28 31 32 33 27 24 20 18 18 16 14 13 13 14 14 12 11 11 12 14 12 12 10 10 11 9 8 10 12 14 15 15 13
28 28 27 29 29 29 29 30 29 26 19 37 33 29 28 28 30 26 22 20 18 17 16 17 16 16 14 12 15 13 14 15 14 14 13 10 8 8 10 10 12 14 14 13
30 31 31 35 35 36 35 37 40 39 36 35 48 37 33 28 26 24 22 20 19 18 18 17 17 17 15 15 16 15 14 16 16 16 16 12 11 11 10 10 11 12 12 9
32 35 35 38 41 43 44 46 50 52 49 37 49 44 34 27 23 24 24 23 18 19 17 16 15 16 16 16 16 17 18 18 21 21 21 17 16 12 11 10 12 10 9 6
33 36 37 41 45 48 52 57 63 56 39 40 53 46 37 29 25 21 22 26 23 19 15 14 13 14 15 15 15 18 22 21 22 22 21 20 20 18 14 10 11 9 6 5
33 35 38 44 49 54 60 66 51 29 21 30 47 45 39 31 24 22 23 23 23 20 15 14 13 16 16 12 15 22 21 20 22 20 19 20 19 16 14 13 12 9 7 5
33 35 39 43 51 58 64 49 24 9 23 35 32 42 37 29 26 22 24 18 23 23 18 16 16 17 17 15 18 20 16 15 15 19 21 17 18 16 16 16 15 12 11 10
32 36 37 43 51 58 46 21 15 37 37 29 28 42 34 32 28 25 22 18 20 19 19 19 19 17 14 13 17 17 16 15 15 15 16 17 17 18 18 18 17 14 12 11
30 32 35 41 48 46 19 15 45 34 32 32 30 33 33 30 24 17 21 22 17 17 20 20 18 15 11 11 12 11 12 13 14 13 14 15 17 21 21 17 16 14 14 12
27 29 33 38 44 24 23 40 32 26 29 27 25 22 24 22 19 16 15 15 17 19 18 16 14 12 9 10 12 11 12 13 13 13 13 16 18 17 18 18 15 17 15 15
23 25 28 31 29 15 36 22 25 21 22 22 19 20 21 18 17 11 9 11 13 14 15 15 14 13 9 7 12 14 13 12 11 12 13 15 18 20 19 18 17 20 24 16
21 20 21 20 5 18 27 17 16 17 19 19 16 17 21 17 14 9 4 2 2 4 10 15 15 13 12 10 6 16 17 16 15 14 14 13 15 18 18 19 20 20 15 16
20 15 13 11 7 18 25 18 16 15 14 16 13 12 15 18 16 10 6 4 5 5 8 12 15 14 12 13 11 5 14 18 18 15 15 16 16 19 20 20 19 20 19 18
17 13 8 5 14 20 22 23 20 19 18 18 16 16 16 18 17 14 11 9 8 8 8 7 10 13 13 13 14 14 6 10 15 14 15 14 15 15 14 18 17 16 14 17
18 14 9 7 10 18 27 25 22 20 21 22 19 19 21 21 20 17 14 12 11 10 8 6 6 8 10 11 11 14 14 6 7 17 17 18 13 14 10 13 15 20 21 23
19 17 13 12 13 17 22 28 27 25 22 21 22 21 20 19 20 19 18 17 16 17 15 11 9 9 9 10 11 12 14 15 10 7 14 18 14 10 16 18 20 23 25 25
21 22 19 15 12 12 20 25 28 27 24 23 25 25 23 24 23 22 20 17 20 19 18 17 15 13 12 13 14 14 15 15 16 14 11 13 18 16 15 16 19 22 24 25

GFSNW_500_spd_018.txt.gz
Wind_Speed
47 51 60 39 32 41 41 25 25 37 42 41 36 38 32 25 25 24 19 18 16 17 24 21 21 22 20 20 19 18 16 15 13 10 9 9 11 13 15 15 18 21 25 11
41 44 50 37 24 34 36 29 26 18 30 21 28 19 19 28 25 20 13 12 11 21 24 23 23 21 20 19 18 15 14 12 11 10 9 10 11 12 13 14 13 15 21 18
35 37 38 36 14 23 28 28 23 14 13 24 18 21 16 16 18 13 7 10 12 21 18 19 20 20 19 17 14 12 12 11 10 8 9 8 11 13 11 10 8 9 23 13
30 31 28 22 15 8 10 10 11 17 8 9 9 7 10 17 16 13 13 11 12 17 15 18 18 18 16 15 14 12 11 11 9 9 9 9 12 8 7 6 7 12 12 23
23 25 25 11 5 5 5 4 5 4 5 6 5 7 1 5 8 9 6 7 7 12 13 15 16 16 15 14 13 12 12 11 10 11 10 10 8 7 5 4 13 18 19 20
20 19 19 18 10 8 10 12 4 2 3 3 0 1 5 7 5 7 5 2 3 6 13 13 13 15 16 16 15 14 13 11 11 11 10 11 7 7 5 6 11 16 20 18
17 16 15 14 15 11 10 10 11 11 9 4 3 2 4 4 0 3 4 6 9 8 5 16 14 14 16 16 16 14 12 12 13 10 11 10 8 7 6 7 11 13 17 12
16 16 15 11 11 12 10 8 9 11 15 14 13 7 4 10 13 9 9 6 4 4 3 3 13 19 18 16 15 14 13 14 12 11 10 9 7 7 7 7 9 12 14 16
16 16 17 16 12 14 12 11 10 8 12 17 26 22 19 14 11 11 13 12 10 8 7 8 7 12 18 20 17 17 15 12 12 13 9 8 9 9 8 8 8 10 9 12
17 17 19 20 19 15 16 15 15 16 13 16 21 27 25 23 22 22 18 16 16 16 12 10 13 12 14 18 18 16 16 14 13 13 13 10 9 8 8 9 8 9 9 9
19 20 22 22 23 22 21 20 20 21 20 23 21 23 30 27 25 22 23 22 21 18 16 14 17 17 14 14 13 13 13 17 14 13 15 13 10 9 9 7 7 10 10 9
20 23 24 27 26 28 27 28 27 27 27 28 31 29 35 35 37 34 27 24 22 22 21 20 20 20 18 18 15 13 13 14 16 15 16 15 11 9 9 6 7 9 9 7
23 25 29 31 32 33 33 34 35 34 35 37 39 35 38 44 38 36 31 30 25 24 25 23 22 21 19 20 19 16 16 16 15 17 18 16 13 12 10 8 8 8 7 5
24 28 31 34 34 35 38 42 45 44 45 45 50 49 47 46 45 35 28 27 27 26 25 23 20 18 18 17 17 18 22 18 17 18 22 18 17 14 13 12 10 9 6 6
28 31 33 35 36 38 44 49 53 57 59 58 51 47 49 49 46 35 28 27 26 23 20 20 20 18 16 16 19 25 22 21 20 18 24 21 21 20 19 18 16 12 9 8
28 30 33 35 35 41 48 56 62 59 44 31 27 31 42 41 39 31 28 28 29 23 25 22 19 18 18 18 20 24 22 21 20 19 22 20 23 23 20 19 17 15 13 11
30 30 32 32 35 43 51 56 44 22 1 20 24 17 37 41 34 30 26 27 26 29 24 18 18 17 17 18 21 22 21 18 18 20 21 22 25 24 22 19 18 17 17 16
26 29 28 29 36 44 47 22 13 30 45 31 27 28 32 36 33 28 25 24 22 22 22 21 21 17 17 18 21 21 21 19 20 21 22 24 23 24 23 21 19 19 18 16
26 27 25 28 36 39 13 29 27 22 22 27 36 27 30 34 29 24 23 26 20 16 19 22 22 20 19 20 21 21 19 20 21 21 23 23 21 21 22 22 20 17 16 16
21 23 22 26 30 21 25 20 20 22 27 21 18 29 29 28 23 21 21 15 18 21 17 21 22 22 19 21 20 21 18 20 20 19 19 18 19 19 19 20 18 17 17 17
20 20 18 20 20 15 20 16 10 13 15 15 16 21 20 20 18 15 15 18 19 20 20 20 22 20 18 19 15 17 19 19 18 18 17 16 15 15 18 18 15 19 18 20
20 19 16 12 2 16 16 11 7 11 14 13 15 16 16 17 17 16 10 11 13 15 17 20 19 16 15 16 14 9 16 19 19 20 19 17 16 18 19 21 19 21 19 22
21 20 16 9 7 20 20 13 10 10 12 11 11 15 15 14 15 12 9 6 5 8 8 11 12 13 15 15 14 12 7 14 21 19 17 15 16 16 16 17 18 21 18 18
21 21 18 11 11 15 30 21 15 15 16 15 13 11 12 15 15 17 9 5 7 7 7 8 10 11 12 12 13 12 9 5 10 16 17 16 18 19 19 15 18 21 21 16
21 22 21 15 14 23 31 30 24 21 20 20 18 16 14 14 17 18 14 11 10 9 8 6 5 6 8 10 11 12 13 9 4 9 14 17 19 15 17 18 16 18 19 18
23 23 21 21 18 22 30 33 31 28 25 22 21 21 19 18 20 20 19 16 13 14 13 11 10 8 7 9 10 11 13 13 12 8 5 13 18 15 12 12 17 21 21 26
26 24 24 26 22 19 23 28 35 30 28 27 25 24 23 23 20 17 16 15 16 18 18 17 15 12 11 9 9 10 11 13 14 15 15 12 10 12 15 17 18 18 20 22

GFSNW_500_spd_021.txt.gz
Wind_Speed
30 32 33 25 24 22 28 23 22 26 24 19 16 17 27 24 24 22 20 15 15 17 21 21 18 19 17 17 17 17 18 16 17 15 13 12 12 12 13 15 14 15 17 14
24 27 28 23 16 23 17 12 16 20 25 26 24 21 19 19 19 16 13 12 7 8 17 21 18 16 16 17 18 17 17 16 14 14 13 11 11 12 12 13 13 14 10 12
18 21 23 22 13 12 18 17 9 15 16 17 20 17 18 18 16 11 6 5 6 9 17 15 16 15 15 17 17 16 15 14 13 11 11 10 11 12 11 10 9 6 10 10
15 16 18 19 20 11 15 14 10 11 8 9 14 12 9 8 12 15 11 5 9 15 13 13 14 15 15 15 14 14 14 13 10 9 9 11 12 11 8 8 4 6 11 14
13 11 13 14 13 13 13 11 11 9 8 8 4 9 6 5 5 8 10 9 9 12 12 13 15 15 15 14 14 14 13 12 11 10 11 12 12 9 8 7 4 5 8 15
12 10 7 10 10 10 11 13 11 10 5 4 3 6 7 4 7 7 3 5 4 11 12 13 13 13 14 15 15 15 13 11 11 12 12 13 9 10 11 8 4 5 8 9
16 11 8 6 9 7 7 9 12 8 6 7 7 2 3 3 3 3 2 1 4 3 8 14 14 14 15 15 16 15 14 13 14 15 15 11 10 12 12 7 5 6 9 11
23 15 13 8 9 9 9 8 9 12 11 11 13 11 9 7 9 8 7 6 5 9 5 8 16 17 17 16 17 18 17 16 17 16 14 12 10 13 13 10 7 8 9 10
26 21 17 13 11 11 13 13 11 11 13 15 17 19 19 17 14 14 18 15 13 10 11 7 9 14 19 20 19 19 18 19 19 15 14 12 12 13 11 10 9 9 9 10
26 26 19 18 16 15 16 16 16 16 15 18 20 24 23 23 24 22 19 18 20 19 17 15 13 14 18 23 24 23 21 22 18 16 14 14 11 12 11 12 10 10 10 10
25 26 22 20 20 18 19 20 21 22 21 24 23 23 26 28 29 28 27 30 27 24 22 22 21 19 21 20 21 23 24 22 19 18 15 17 13 12 13 12 11 10 8 9
25 27 22 22 23 21 22 26 28 28 28 26 30 30 30 30 35 35 33 30 30 29 27 26 25 24 22 21 20 19 20 19 18 19 17 17 16 14 13 13 11 10 8 10
24 26 23 23 24 26 28 29 33 33 32 33 35 37 40 38 37 39 40 37 34 29 28 26 26 27 25 24 24 22 20 20 16 19 21 19 18 19 15 13 13 12 11 11
22 25 22 24 25 27 31 36 37 38 42 44 43 48 48 48 48 43 43 41 41 37 30 26 25 27 26 25 25 26 25 20 18 17 21 22 21 20 16 15 15 15 15 15
20 21 20 23 24 28 34 35 39 47 52 57 58 63 64 59 58 51 47 45 38 35 32 30 29 28 27 25 24 26 26 24 21 18 22 19 21 21 21 21 20 20 19 19
18 19 18 22 25 29 32 39 46 52 49 47 45 42 46 51 49 48 41 29 32 29 28 29 28 28 25 23 22 26 23 23 23 21 24 23 23 26 26 25 24 23 23 21
15 12 17 21 25 28 34 40 37 17 18 22 10 2 15 28 38 40 34 39 30 30 25 24 23 24 24 22 23 23 23 23 22 21 23 26 27 28 29 28 27 25 24 23
9 13 16 19 23 28 32 23 12 11 12 17 20 30 39 49 42 41 27 36 32 31 30 23 23 25 24 21 22 21 22 22 22 21 23 27 28 27 29 28 26 25 24 24
12 11 13 16 20 23 12 10 20 18 12 20 30 21 29 26 35 34 28 26 28 27 25 25 25 22 19 19 19 20 21 19 21 22 22 26 27 25 24 26 25 24 23 21
12 11 13 16 16 14 8 3 5 5 8 17 18 22 30 31 31 28 25 27 31 22 20 19 23 21 22 22 21 20 21 22 22 22 21 22 25 23 23 23 21 21 21 19
14 13 13 13 11 2 9 10 9 7 6 6 12 14 19 24 23 22 19 18 21 19 18 22 17 17 21 21 21 19 21 24 22 20 21 20 19 18 19 18 18 16 18 21
19 16 15 14 8 6 11 13 5 3 6 8 13 15 14 14 14 13 17 15 18 21 20 21 17 15 18 19 19 18 19 19 21 20 20 20 18 17 18 17 17 18 20 19
21 19 15 13 11 11 16 16 10 9 9 9 13 12 12 14 16 16 16 15 15 17 19 16 13 16 18 17 17 15 15 12 16 20 16 20 20 21 19 18 17 18 21 23
22 21 18 17 16 17 21 20 17 16 15 12 11 13 12 15 14 20 13 8 8 7 6 7 10 13 15 16 14 13 10 9 8 11 14 16 18 18 17 19 21 19 22 22
23 23 23 20 19 21 28 30 25 22 20 19 17 15 15 16 18 18 17 14 8 8 7 4 4 6 8 8 9 10 10 9 7 4 10 15 16 18 19 17 18 18 18 23
27 26 25 24 23 26 28 33 38 30 25 23 23 22 21 18 17 17 18 19 14 13 12 9 8 8 8 8 9 9 10 10 9 8 5 7 16 16 16 14 15 16 14 19
21 25 29 26 27 28 30 31 37 38 36 30 28 26 24 24 22 18 17 19 20 19 18 17 15 14 13 11 10 8 8 8 8 9 11 12 12 11 10 15 18 16 17 19

GFSNW_500_spd_024.txt.gz
Wind_Speed
30 23 25 26 26 29 27 26 32 35 32 25 20 22 23 23 18 16 16 13 12 14 15 16 21 18 15 13 14 15 18 19 19 18 17 18 18 15 14 14 12 13 12 13
28 19 18 18 21 19 24 22 21 26 28 22 18 21 21 19 15 13 10 10 7 11 12 15 14 13 13 13 14 15 18 18 18 17 17 15 14 14 12 12 10 12 8 13
24 21 12 12 13 14 17 14 18 18 19 19 16 16 15 12 11 9 7 3 1 3 10 15 11 12 13 15 15 17 17 15 15 15 13 12 11 11 11 10 10 9 7 11
22 24 11 9 7 10 10 13 13 12 12 11 14 9 10 13 13 10 3 2 3 12 15 12 12 11 13 14 16 15 14 12 12 11 10 10 11 11 10 10 7 9 8 8
22 23 13 9 4 6 8 8 12 9 9 5 5 8 7 4 7 9 11 8 5 12 11 12 14 14 15 16 15 14 13 13 11 10 9 10 10 9 9 11 12 10 7 11
19 22 19 12 7 3 4 8 10 10 6 5 1 1 2 3 3 4 4 6 2 9 9 10 11 12 12 14 15 14 14 11 10 9 9 10 11 10 12 13 12 9 10 8
20 22 24 16 13 8 5 5 8 10 7 7 5 3 3 4 4 3 5 1 3 4 11 11 12 12 13 14 14 14 13 13 12 12 11 11 11 12 14 15 13 13 13 10
22 21 25 23 18 14 10 9 9 10 11 11 11 12 12 10 8 7 6 8 6 7 6 9 14 13 13 14 15 15 16 15 15 14 13 13 12 13 16 18 16 15 13 10
24 24 26 28 20 19 16 13 13 12 13 14 15 16 16 16 14 13 15 15 12 12 11 9 7 12 19 19 18 17 18 18 18 16 17 16 13 13 17 20 18 15 13 10
25 25 25 27 27 21 21 19 18 17 17 20 19 19 20 20 19 19 19 19 21 20 18 17 14 11 12 17 21 22 21 21 20 20 19 17 14 14 18 20 17 13 13 12
26 27 28 28 29 25 23 21 22 23 21 25 23 24 25 25 25 23 23 25 25 23 23 24 23 20 18 16 19 22 25 24 22 23 20 20 15 17 18 18 16 14 13 12
26 25 26 29 28 27 25 24 23 23 24 24 29 31 31 33 34 31 29 28 27 29 31 29 27 26 26 25 24 23 23 25 25 23 24 22 20 19 19 17 14 12 13 11
26 26 26 29 29 28 26 24 24 26 28 28 31 34 39 39 39 40 38 34 33 32 28 30 31 29 28 28 27 25 22 23 22 23 24 24 20 23 19 16 15 14 14 13
25 25 23 26 27 26 23 20 23 29 33 35 34 41 46 49 50 49 44 43 38 37 35 31 29 28 27 28 27 24 26 24 22 21 23 22 23 22 21 19 19 18 17 16
25 23 19 19 19 19 19 19 27 33 38 42 47 52 58 64 64 60 54 48 43 39 39 36 34 30 26 24 25 23 27 26 25 21 23 24 23 24 26 25 23 20 19 20
21 19 17 16 16 15 14 21 28 36 40 40 42 51 55 51 54 60 66 52 47 40 38 37 37 35 33 28 24 25 25 25 25 22 24 24 24 23 26 27 26 25 24 24
12 12 13 10 11 11 16 21 27 24 25 33 32 31 26 21 23 41 50 47 31 31 33 31 32 31 33 30 23 25 23 22 24 22 20 25 27 27 26 27 31 29 28 27
3 5 7 7 5 10 14 16 10 16 16 26 34 23 15 14 20 35 38 36 38 34 32 29 27 26 25 20 20 21 21 21 22 22 21 23 28 28 28 29 29 31 30 28
4 5 6 4 7 10 9 8 10 16 9 14 14 22 25 21 25 40 42 37 25 23 29 24 24 21 17 17 22 21 21 21 21 21 22 22 26 28 27 28 28 26 26 27
15 5 4 5 6 10 6 4 5 4 8 9 4 7 8 12 17 31 22 25 33 27 23 26 28 26 18 19 20 21 21 19 19 20 23 23 24 24 25 24 24 23 23 23
11 7 6 6 6 5 4 5 5 5 3 2 5 7 7 14 18 15 15 20 28 30 24 21 18 19 21 23 22 23 23 21 21 21 21 21 22 21 21 21 21 20 19 20
20 17 10 9 6 6 11 9 4 2 4 4 3 6 9 14 14 12 11 11 12 19 19 20 15 14 19 17 18 20 21 20 20 22 21 18 19 18 17 16 16 17 18 20
21 19 15 13 8 13 13 14 14 8 7 7 7 9 10 12 13 13 15 13 13 14 17 18 19 20 19 17 16 17 18 19 18 19 20 14 16 17 17 17 17 18 20 22
24 25 21 17 14 13 17 19 18 16 15 13 14 14 13 12 14 14 16 9 14 12 6 7 10 13 15 16 17 18 19 16 12 10 9 10 12 15 17 19 21 22 22 22
22 24 22 19 19 18 18 23 25 24 21 20 17 16 16 14 16 14 17 14 10 8 10 6 6 7 8 9 11 12 11 9 8 6 4 9 13 13 14 19 22 22 20 21
20 19 21 23 25 24 23 24 29 32 28 26 24 22 20 20 20 18 17 17 17 14 9 10 9 7 6 6 7 7 7 7 7 6 3 1 5 11 17 22 21 22 20 17
21 22 22 22 24 27 26 27 27 33 37 32 30 29 27 24 22 18 15 15 18 21 21 17 17 15 13 11 10 9 7 6 5 6 6 6 7 8 9 8 9 16 21 18

GFSNW_500_spd_027.txt.gz
Wind_Speed
26 25 23 13 15 17 18 20 26 25 24 23 16 16 13 17 16 15 13 9 9 11 9 13 15 16 16 15 15 16 18 18 17 19 19 19 19 19 17 15 14 14 16 18
23 21 20 9 10 11 11 15 16 20 20 17 16 14 13 11 11 10 10 9 8 8 6 8 12 15 13 11 13 15 16 19 17 17 18 18 19 18 17 15 13 14 15 17
24 19 16 10 6 5 8 7 9 12 15 14 12 10 10 11 9 8 7 4 4 5 8 10 13 10 11 12 13 14 15 16 15 17 18 18 18 16 14 12 13 13 15 14
26 17 18 13 5 6 3 3 5 6 8 12 11 9 10 10 10 6 0 2 3 8 14 16 12 11 11 12 13 13 14 14 16 17 16 15 15 14 12 13 13 14 12 14
25 17 18 13 11 8 7 2 2 4 5 3 7 8 8 8 6 5 8 2 4 10 16 14 12 11 12 13 15 16 15 14 15 15 14 13 12 11 12 12 13 15 13 11
25 19 19 17 15 12 10 8 6 2 5 6 4 5 5 6 7 4 1 4 5 9 9 10 11 12 12 13 14 14 14 14 13 12 10 9 9 8 10 13 13 15 12 10
25 21 21 20 19 18 14 13 11 9 8 7 9 7 5 5 5 5 7 6 5 8 8 9 10 12 13 14 14 13 13 13 13 11 9 8 9 9 10 13 16 17 13 9
25 24 23 22 22 22 19 17 16 13 13 11 11 12 12 10 8 7 7 9 9 10 11 12 12 12 12 13 14 15 14 14 13 13 11 10 9 11 12 14 17 18 15 11
24 24 24 24 23 24 25 21 18 17 17 15 14 13 13 13 15 15 14 12 13 11 11 11 14 17 17 15 14 15 15 16 16 16 14 14 12 13 14 16 18 19 16 13
24 24 25 25 22 26 25 26 24 21 21 22 19 17 17 17 17 17 21 21 20 19 17 16 14 14 16 19 21 21 20 19 19 18 17 16 15 15 17 18 17 19 17 17
24 22 26 27 26 25 30 28 28 25 23 24 23 23 22 22 23 23 23 25 25 25 25 24 22 20 17 16 15 17 20 24 23 23 22 21 18 18 19 18 18 19 19 18
26 22 22 25 27 27 30 31 29 27 25 25 25 24 23 27 30 29 29 29 27 28 29 29 29 28 26 24 20 19 17 19 22 25 26 24 21 20 20 20 19 20 21 19
24 24 23 24 27 27 28 31 30 28 25 27 30 28 29 31 34 35 37 37 36 34 33 32 31 33 29 28 25 25 24 22 20 22 24 24 21 22 23 22 20 21 20 19
25 23 22 23 24 27 29 29 27 26 26 24 32 32 33 35 38 40 41 45 45 43 38 36 34 30 28 31 30 28 25 25 21 20 21 23 22 23 24 23 24 24 21 20
24 21 20 20 21 20 21 22 24 23 24 22 30 36 42 47 50 53 56 56 53 49 46 41 37 33 27 25 25 22 24 22 20 19 21 22 24 22 24 24 26 26 25 23
20 18 16 16 15 15 16 16 17 17 18 25 32 37 34 39 48 57 64 57 62 56 49 44 39 35 33 27 22 20 19 17 17 18 20 23 24 25 23 23 26 29 27 26
16 11 9 10 11 11 13 11 9 11 17 20 18 21 32 42 35 33 37 46 53 49 46 43 37 34 34 29 24 24 25 20 16 17 19 21 24 27 27 24 24 27 29 30
14 10 8 8 9 11 9 5 4 11 6 10 16 25 31 39 21 8 12 28 42 40 36 28 27 30 28 24 21 23 25 20 16 16 18 18 23 27 28 29 28 27 28 29
12 12 10 8 10 7 9 4 4 7 4 10 11 19 25 23 26 30 33 41 34 25 21 19 21 18 19 17 20 20 19 19 18 18 18 18 21 23 26 28 28 27 27 27
16 14 12 10 7 2 5 3 7 6 2 8 10 12 14 13 9 10 18 12 33 13 19 16 14 15 16 15 16 19 21 21 20 20 18 19 21 22 23 25 26 26 25 24
14 13 12 10 7 6 8 8 5 4 1 3 5 9 6 4 4 6 13 17 19 13 22 17 16 14 16 18 18 16 18 20 21 21 21 20 20 21 23 23 24 25 25 25
17 13 12 12 13 9 12 10 7 5 2 3 3 4 1 7 5 3 4 10 15 17 18 15 8 11 17 18 20 21 23 24 24 23 22 22 19 18 21 21 20 21 22 21
23 18 14 12 13 11 16 19 17 11 7 8 7 4 4 6 6 5 6 7 7 9 13 12 12 17 19 16 18 20 20 20 19 18 19 19 18 16 18 17 16 17 18 18
20 20 18 15 16 14 15 23 21 19 15 13 12 13 11 10 11 11 10 10 9 10 9 13 14 13 15 18 19 19 18 18 17 17 18 13 13 11 11 13 13 15 19 18
20 15 15 17 18 18 18 19 26 25 22 20 18 17 19 17 16 17 12 11 8 8 10 9 8 8 8 10 12 16 18 17 15 15 13 10 8 14 15 17 20 21 20 20
19 17 17 17 19 21 22 21 23 27 29 27 25 23 21 21 23 19 16 12 14 14 11 10 11 9 7 6 4 6 9 10 8 6 5 5 9 7 7 10 13 18 19 20
22 19 19 21 20 22 21 25 28 26 26 30 34 31 28 26 26 22 19 18 17 18 19 20 16 12 13 12 10 8 6 6 5 3 3 4 4 3 3 5 7 7 8 9

GFSNW_500_spd_030.txt.gz
Wind_Speed
30 24 13 7 4 4 6 9 12 15 15 12 17 15 13 15 16 13 13 12 12 10 9 10 15 15 15 14 17 16 15 22 24 23 25 22 21 22 21 22 20 20 23 25
30 29 15 7 5 0 3 2 6 11 14 15 14 12 11 11 11 10 9 8 8 6 5 7 10 12 13 14 15 16 15 17 19 20 25 25 22 21 20 20 22 22 23 24
26 29 21 11 8 7 3 5 4 5 8 10 11 11 10 10 10 9 8 6 5 6 6 7 12 14 13 12 10 12 14 16 19 19 20 21 20 19 20 20 20 21 23 21
25 25 24 14 10 12 9 6 8 9 7 9 11 11 11 10 8 6 7 8 9 9 11 13 14 12 12 13 13 13 12 15 17 18 19 19 20 19 18 18 20 18 20 19
25 25 24 14 12 15 13 11 9 12 13 10 10 8 11 11 8 5 4 6 8 10 15 17 11 10 10 11 13 13 15 16 16 17 16 16 16 16 16 17 17 20 19 18
28 23 25 17 15 16 18 16 14 11 15 16 13 12 10 11 9 6 3 4 7 6 12 15 12 11 11 12 13 15 14 13 14 15 16 16 15 15 16 18 18 17 18 16
27 24 25 22 19 16 20 20 19 17 14 16 18 16 13 12 9 8 8 7 8 11 12 12 12 13 13 13 15 14 14 12 14 14 14 13 13 13 14 14 15 17 18 15
23 26 27 21 21 20 21 24 23 20 18 16 16 18 19 17 15 11 9 10 9 11 13 12 12 13 14 14 15 15 14 15 16 16 14 13 12 12 12 13 14 16 19 16
24 27 25 20 20 20 20 25 26 25 23 20 17 16 16 17 18 18 16 14 14 13 12 13 14 15 15 15 16 16 16 17 18 17 16 14 13 12 12 12 14 17 20 19
28 29 24 23 23 21 22 25 27 30 28 25 21 20 18 17 18 18 20 21 19 19 17 17 14 14 18 19 17 18 19 20 19 19 19 18 16 15 14 15 12 16 19 19
28 28 23 23 23 25 23 24 29 28 29 29 25 24 23 22 22 22 22 23 21 25 26 24 21 20 17 16 18 22 23 23 22 21 20 21 18 17 18 16 15 16 18 20
29 27 23 21 23 24 24 25 25 29 29 31 30 28 27 28 29 28 28 27 26 29 29 29 30 28 25 23 20 18 17 18 20 23 26 26 24 22 19 19 18 19 20 21
28 26 23 22 21 21 24 24 26 28 31 32 32 30 28 28 30 31 32 33 34 34 33 33 33 34 33 30 27 28 23 21 18 19 21 23 27 26 24 23 21 21 22 20
27 29 23 20 18 17 20 21 24 25 27 29 30 30 30 31 33 37 38 41 40 40 41 40 39 35 33 33 32 30 28 27 23 20 21 21 22 26 26 25 24 24 24 23
27 29 23 19 16 14 16 17 18 21 20 21 22 23 24 29 32 36 41 45 48 49 47 48 47 42 37 34 31 27 27 26 24 21 22 21 22 23 23 22 23 24 26 25
25 27 21 16 11 10 9 9 10 13 15 16 14 16 22 27 34 42 47 54 59 63 61 56 50 45 41 37 33 23 22 19 18 16 19 20 22 23 21 21 23 26 27 27
22 24 21 14 10 9 9 10 11 10 7 6 8 11 18 23 20 29 37 44 53 62 60 55 51 42 42 37 30 27 25 20 18 15 16 18 20 22 23 22 21 23 26 25
19 22 22 16 10 8 11 11 8 4 6 3 6 7 15 18 30 38 27 22 24 35 43 42 44 40 40 34 28 30 27 23 22 21 18 19 21 22 23 23 24 24 25 25
18 19 21 18 15 7 11 11 8 3 2 2 7 6 10 17 25 27 37 21 13 24 38 36 32 27 31 25 24 24 25 22 19 19 20 20 20 21 22 22 23 25 26 26
19 18 18 19 16 7 12 13 9 7 6 4 0 2 6 13 17 21 20 21 24 26 23 24 18 19 17 20 21 21 21 20 18 17 18 20 20 21 22 22 22 24 25 26
21 20 20 16 15 13 8 10 8 8 9 8 4 1 2 4 7 10 15 9 8 10 1 15 11 12 16 17 18 18 18 18 17 18 19 20 20 21 25 26 25 24 24 25
23 25 24 20 15 15 12 12 11 10 8 7 6 2 1 4 4 2 1 2 2 2 2 9 9 10 13 16 18 18 17 18 19 21 22 23 24 23 23 24 25 23 24 24
24 21 22 22 19 15 13 14 15 15 10 10 10 7 5 6 4 2 2 1 1 2 3 6 11 12 11 13 11 11 14 18 20 22 24 23 23 23 24 23 24 23 22 23
24 23 21 22 23 19 15 13 14 23 20 16 15 13 11 10 9 8 6 6 4 5 9 13 14 12 13 16 19 20 20 20 22 21 21 19 17 19 15 16 17 17 18 19
26 24 22 21 22 23 21 20 19 17 25 24 21 20 18 17 16 14 13 11 9 6 9 10 9 9 10 12 14 16 17 19 19 18 18 15 15 8 14 19 20 22 23 21
27 28 26 23 23 25 25 23 24 22 21 22 28 26 24 22 22 21 18 15 15 11 10 10 10 11 10 8 6 7 11 13 14 14 14 10 8 11 10 10 12 16 19 22
28 27 29 26 23 23 26 29 27 26 25 23 24 31 31 28 27 23 20 19 19 15 16 16 16 13 10 11 10 8 8 10 12 12 12 9 5 3 2 5 5 7 6 5

GFSNW_500_spd_036.txt.gz
Wind_Speed
69 63 51 31 32 23 20 14 11 9 6 9 8 7 9 3 3 2 2 4 2 2 1 2 2 1 3 8 10 10 15 20 22 19 18 20 16 17 19 22 29 32 35 39
68 67 56 38 26 29 19 16 14 10 12 7 10 11 13 8 6 4 3 3 3 3 4 4 5 5 6 7 10 11 12 15 19 20 21 22 17 21 23 27 25 24 26 31
66 66 58 37 19 29 17 19 17 14 13 12 12 12 11 12 11 9 7 7 6 6 7 8 8 6 6 8 10 14 18 19 21 22 22 21 21 25 23 20 20 19 22 28
65 65 56 33 20 29 19 19 21 18 16 16 15 16 14 14 13 12 11 10 10 10 10 11 10 10 8 8 9 12 16 20 21 22 22 24 25 25 24 19 18 22 24 28
62 62 51 37 18 28 21 21 23 22 22 20 20 19 17 15 14 13 12 13 15 17 16 13 11 11 10 9 10 13 12 15 21 21 23 24 25 24 24 24 25 23 23 24
59 59 57 42 29 30 26 18 21 26 24 25 23 19 18 18 16 14 12 10 11 12 12 13 13 13 12 12 12 13 14 15 15 17 21 21 21 18 19 21 22 22 23 21
57 58 57 43 23 28 28 17 26 25 28 27 24 25 22 19 18 16 15 13 11 9 9 10 13 15 12 11 11 11 11 14 16 15 15 18 15 16 16 17 18 17 18 20
55 57 54 39 27 30 24 16 25 23 30 29 27 26 26 25 23 20 18 16 13 10 8 8 9 13 13 12 11 11 10 13 10 12 13 13 13 13 14 15 16 17 18 18
54 54 45 35 28 29 17 16 20 27 22 33 31 29 29 28 26 25 22 20 18 15 13 11 13 13 11 11 11 11 12 12 10 11 12 13 10 13 14 15 15 15 16 15
50 51 39 31 30 28 21 18 18 26 26 24 37 36 32 29 29 28 26 24 22 21 19 16 14 14 15 13 11 12 13 14 14 13 13 12 11 11 12 12 11 12 13 15
49 47 36 27 26 29 26 20 20 21 30 24 26 38 35 34 31 29 23 25 23 25 22 20 20 18 15 15 15 15 15 15 15 17 16 16 14 15 13 11 11 13 13 13
48 43 32 27 29 30 27 23 20 21 25 30 24 26 33 35 33 30 27 27 26 25 24 24 23 23 23 21 19 17 18 18 19 18 18 17 18 18 16 17 16 15 15 15
49 36 28 28 33 31 26 23 21 17 22 26 26 22 28 31 37 29 28 29 27 28 27 28 29 28 26 27 26 26 22 20 18 20 20 21 22 22 22 21 20 19 18 18
48 33 26 28 32 33 28 23 17 13 16 19 22 22 21 28 32 34 33 30 30 31 32 34 35 35 32 31 31 33 30 28 23 21 20 20 18 19 20 22 25 26 26 24
50 36 28 30 33 33 29 22 15 10 10 13 16 19 19 22 26 27 28 29 30 32 34 37 38 40 41 39 37 36 33 30 31 30 29 25 23 20 20 20 19 22 25 28
45 41 26 27 28 32 29 20 12 8 7 8 12 13 14 19 23 23 19 12 15 21 27 34 41 45 48 47 44 39 36 36 34 35 33 32 30 28 26 25 24 23 23 26
45 47 29 23 24 29 29 17 12 8 7 9 12 13 6 6 4 2 6 6 12 20 22 28 38 47 55 53 46 48 44 40 39 35 32 32 26 25 28 30 28 27 26 25
44 53 40 24 19 22 26 17 2 5 8 7 6 4 8 8 8 9 5 12 16 23 31 39 49 47 55 61 57 56 50 44 39 37 32 29 25 21 21 24 28 28 28 27
50 45 53 33 22 18 19 15 6 8 7 4 4 7 12 13 11 10 12 13 19 26 32 41 37 26 24 28 47 39 36 39 40 38 33 29 26 24 23 24 24 25 28 28
44 46 45 52 29 19 14 16 10 12 11 10 10 12 13 14 12 12 14 13 15 21 24 20 28 31 21 22 27 25 26 31 34 35 33 31 28 26 26 26 28 27 28 29
40 42 43 45 50 32 18 15 14 11 13 14 16 17 16 13 10 12 12 13 12 14 20 9 18 23 18 12 22 27 24 28 33 34 32 30 28 28 27 27 26 24 25 27
37 41 41 43 44 47 37 19 14 13 14 14 15 16 16 15 13 15 15 10 9 10 12 12 14 14 2 6 13 15 20 26 27 25 25 25 26 26 24 24 25 26 26 27
34 38 41 42 42 42 42 34 23 22 19 19 19 19 18 16 15 14 14 10 8 5 8 5 5 3 1 1 5 11 12 13 14 16 16 17 19 21 22 25 27 29 31 31
33 35 40 38 40 40 41 36 39 28 26 24 22 22 21 19 17 15 16 15 10 8 9 11 8 6 3 1 3 7 10 12 14 15 17 19 21 21 22 23 26 28 30 30
30 33 36 37 36 31 34 31 33 27 28 29 26 27 22 23 23 21 18 17 17 11 10 9 8 8 8 11 11 10 12 15 16 16 17 18 18 18 19 19 20 22 21 19
30 32 36 35 32 32 30 28 27 27 28 30 29 26 26 25 20 24 23 20 19 17 15 15 13 9 11 11 11 11 11 12 16 17 16 14 15 17 17 16 16 18 18 22
31 31 35 33 28 29 30 28 26 26 27 29 30 27 24 23 24 21 17 24 25 25 24 22 19 14 10 6 9 15 9 7 6 9 11 14 15 17 17 15 16 19 20 17

GFSNW_500_spd_039.txt.gz
Wind_Speed
59 63 68 69 61 24 22 16 13 13 11 12 11 9 11 5 2 2 3 3 3 2 4 7 7 7 6 11 11 10 11 21 21 24 20 21 19 18 21 27 30 33 34 36
53 58 64 68 62 28 23 18 12 15 12 12 13 14 11 11 8 4 4 3 2 2 1 2 4 7 8 9 8 10 12 16 20 21 24 22 22 18 13 13 16 26 31 34
49 54 61 66 59 33 23 22 12 16 16 14 14 13 12 11 11 9 6 5 4 4 3 3 3 5 9 12 13 13 13 13 14 20 18 16 19 15 17 24 26 23 20 23
47 50 59 63 62 36 21 23 11 15 19 17 17 17 14 12 11 11 10 8 6 6 7 7 7 5 8 10 12 14 17 18 20 22 22 22 21 22 21 19 18 17 17 24
46 51 58 61 58 33 21 22 12 17 20 22 21 19 16 15 14 13 11 9 10 11 10 10 11 9 8 10 11 9 10 15 21 21 22 25 25 25 25 21 20 20 20 18
46 49 53 56 54 43 27 26 15 19 20 26 24 21 20 18 16 15 13 11 9 8 8 7 9 10 10 10 10 11 13 15 15 18 23 24 25 23 24 24 22 23 25 19
46 47 53 53 53 48 34 26 15 17 21 22 26 22 22 20 17 16 15 13 11 9 8 6 5 10 12 10 10 10 12 15 16 16 19 20 18 20 21 23 24 23 21 22
46 48 51 53 53 47 35 21 16 17 20 22 28 28 25 24 21 18 17 15 14 12 9 6 4 6 11 10 10 10 11 12 14 11 15 12 11 15 16 17 18 17 17 17
48 51 52 53 53 43 32 25 17 18 18 26 20 31 27 25 24 22 21 18 17 16 14 10 7 8 9 10 10 10 10 9 8 8 10 10 11 11 13 14 15 15 15 15
51 52 51 52 47 41 32 27 21 18 19 21 24 25 32 28 27 25 22 21 20 20 19 18 14 11 10 10 9 9 11 12 13 12 9 10 12 10 11 11 10 12 13 14
51 51 49 51 44 33 32 29 22 16 16 19 22 24 29 35 31 28 24 26 24 23 23 21 20 19 15 13 12 13 12 12 13 14 13 12 13 12 11 8 10 13 12 12
54 53 48 49 38 28 28 30 26 20 20 18 20 23 21 27 39 34 30 28 25 22 21 20 21 20 20 20 18 16 15 15 14 14 15 15 14 15 14 15 14 14 13 13
55 52 48 49 37 26 27 29 25 20 15 14 19 18 22 19 24 36 29 28 26 23 21 22 22 21 22 23 22 26 21 20 17 16 17 18 18 17 17 17 17 16 16 15
52 53 48 48 36 26 26 28 25 21 15 11 11 14 17 17 16 24 30 33 26 24 26 26 27 27 28 25 26 30 27 28 23 20 19 19 19 18 17 18 20 20 21 21
47 50 47 46 36 24 26 26 23 16 12 7 5 10 12 13 15 18 24 27 27 26 26 27 28 29 33 33 32 34 31 29 30 27 31 25 21 19 18 17 16 16 18 20
41 42 40 41 37 23 24 26 21 13 12 7 3 4 7 11 12 13 18 22 25 20 15 10 15 22 30 35 38 38 37 37 36 35 36 32 29 28 23 23 22 21 20 19
42 45 45 38 48 27 21 25 20 11 6 7 8 8 9 11 12 11 9 8 3 7 10 14 21 28 35 40 41 43 45 46 44 40 41 36 32 31 32 30 30 29 28 27
38 42 46 48 50 44 18 20 19 10 7 2 5 6 1 3 4 4 5 7 6 8 11 17 20 21 29 30 38 45 51 50 48 46 41 41 37 32 29 26 26 26 27 28
32 37 40 44 49 52 32 19 18 12 12 13 10 5 8 9 10 10 10 11 11 12 14 17 14 23 34 46 46 32 50 48 42 42 43 44 38 35 29 26 24 22 22 23
27 33 36 40 45 44 44 34 19 18 13 13 13 13 13 12 13 16 15 12 12 16 16 13 13 21 26 34 32 16 23 31 30 30 35 41 39 35 30 28 26 25 24 25
25 28 32 37 39 38 39 43 46 28 19 15 16 17 16 17 16 16 15 13 11 12 10 9 10 18 21 17 4 12 12 13 19 21 26 31 38 33 31 29 28 27 26 28
25 26 29 32 38 38 38 39 40 39 42 29 23 21 20 19 18 18 16 13 11 12 12 7 11 13 14 16 12 8 9 16 15 17 23 26 31 29 28 27 27 27 27 29
24 26 27 30 33 32 34 38 37 35 37 37 40 21 22 21 21 18 17 14 9 10 12 11 12 12 11 10 8 4 4 9 17 19 16 25 30 26 23 23 24 25 27 29
25 26 28 28 32 32 32 32 35 35 34 35 36 37 22 21 21 20 18 15 11 10 11 10 11 11 11 6 4 4 4 9 13 16 18 17 18 19 19 19 22 25 26 27
27 27 29 29 29 27 28 29 32 33 33 32 36 36 30 24 20 20 18 16 11 11 15 13 10 12 11 10 11 11 10 11 13 14 14 15 15 16 17 18 20 21 22 23
28 28 32 33 32 30 30 30 31 33 32 32 31 32 29 29 23 18 16 9 21 17 20 21 19 14 13 11 11 11 12 12 13 14 16 17 17 17 17 16 17 17 17 16
33 34 35 36 35 34 32 31 31 32 31 32 32 28 28 28 27 24 21 23 23 26 31 29 25 23 22 17 7 5 12 14 11 10 12 14 13 12 16 17 16 15 17 18

GFSNW_500_spd_042.txt.gz
Wind_Speed
45 47 53 58 64 69 41 23 17 11 13 10 16 11 7 7 5 4 6 5 5 6 8 9 9 10 12 14 17 19 20 19 20 20 25 27 31 34 33 34 35 33 32 31
45 46 53 55 62 65 54 26 20 10 14 11 13 17 15 10 9 5 5 6 5 5 5 5 7 8 9 12 14 14 15 19 24 26 24 29 32 28 27 25 26 33 33 29
44 45 51 56 59 65 60 37 20 10 14 16 13 14 14 11 11 11 9 7 6 6 5 4 6 9 12 12 10 11 13 13 16 19 19 24 24 23 25 25 18 10 11 13
44 45 49 55 59 60 59 45 25 13 15 19 18 17 16 13 10 12 10 8 7 6 4 4 4 7 12 15 17 18 18 18 18 20 22 23 21 22 26 20 16 23 12 21
44 46 47 52 54 57 58 49 29 14 15 19 20 16 16 15 13 12 11 9 6 6 6 6 7 8 9 14 17 18 20 21 23 24 25 26 27 27 25 23 21 18 18 13
43 44 45 52 53 56 60 53 32 14 14 18 22 20 17 17 14 13 13 11 8 6 5 6 8 9 11 12 15 16 16 17 19 21 24 25 27 24 27 26 26 22 25 14
41 43 45 50 51 54 60 51 30 17 15 17 20 23 21 21 17 15 15 13 11 9 6 6 6 10 13 12 14 14 15 16 16 16 19 22 18 22 23 25 26 27 24 23
42 43 46 47 51 51 61 53 35 23 18 16 20 17 26 22 21 18 16 15 13 11 8 7 5 7 12 15 13 12 14 14 15 16 15 15 16 17 20 19 22 26 21 22
41 44 47 48 49 52 59 52 33 22 20 17 15 24 20 25 23 22 19 17 15 14 12 9 6 6 9 12 13 13 14 13 12 13 11 11 14 14 12 15 18 18 18 15
40 43 48 51 49 50 57 52 34 23 19 13 12 17 21 23 24 23 23 22 20 18 15 13 11 10 10 11 11 12 13 14 14 14 12 11 13 12 13 12 14 16 17 17
40 44 47 51 52 51 54 53 37 26 21 16 13 12 22 20 29 26 23 23 20 19 19 17 17 16 15 13 13 14 13 13 15 16 15 13 12 13 14 13 13 13 14 15
40 42 43 49 56 55 54 45 32 27 22 15 13 16 16 24 21 31 27 26 23 20 19 17 16 14 15 16 17 17 16 16 15 15 16 16 16 17 16 15 13 13 15 14
34 39 42 47 51 53 49 39 27 24 19 15 12 10 16 20 21 22 33 31 29 26 23 20 17 17 16 15 17 19 21 23 18 18 18 18 18 19 20 19 19 19 16 14
30 34 35 40 46 48 45 36 24 22 19 14 10 6 10 16 19 16 20 29 34 29 27 24 19 19 20 19 23 23 23 24 23 24 21 23 21 21 21 20 21 20 19 18
29 35 38 43 43 42 36 32 27 22 17 13 8 6 3 11 15 14 16 21 24 28 30 26 22 24 25 20 22 19 23 27 30 26 31 32 27 24 22 22 23 22 22 22
27 32 34 38 36 37 32 28 27 23 19 16 13 8 3 8 10 11 13 16 20 23 23 22 16 9 15 17 20 24 28 31 34 34 36 38 35 32 28 26 24 22 21 19
23 28 33 36 36 33 30 23 23 19 14 13 8 7 6 4 4 6 8 8 9 10 9 5 8 12 16 19 27 31 35 34 40 42 39 40 39 34 35 34 30 27 26 24
16 24 29 33 35 37 31 25 21 17 16 13 13 9 8 8 2 2 3 3 3 3 7 12 14 14 18 25 30 31 39 50 48 44 47 44 44 41 40 36 35 33 32 31
13 18 22 29 32 34 34 36 40 25 16 16 14 12 11 11 9 10 10 9 9 10 12 13 15 20 22 27 29 30 39 42 45 44 51 49 49 43 42 38 34 33 31 29
11 15 18 21 26 28 33 33 32 35 37 24 19 19 17 15 14 14 12 13 13 14 17 19 20 18 20 20 20 23 19 8 8 13 20 39 39 37 41 40 36 33 32 29
8 12 14 17 20 22 25 31 31 31 31 33 38 30 19 19 18 16 15 13 13 15 14 15 14 13 12 12 18 17 18 17 11 12 16 20 30 30 31 38 36 33 32 31
10 11 13 15 17 20 24 25 29 32 31 29 29 33 39 25 18 18 18 16 14 15 15 12 11 15 14 11 13 12 15 14 12 9 7 10 14 21 23 32 33 32 32 31
15 13 13 15 17 20 22 23 24 24 29 30 30 33 33 36 27 16 16 14 14 14 13 9 13 13 14 11 11 10 10 13 13 13 15 12 16 16 19 30 29 27 30 30
21 19 19 19 21 21 22 21 23 22 25 28 28 29 33 32 33 25 14 14 14 15 14 17 15 14 15 14 12 11 10 8 5 13 13 15 13 18 24 21 20 20 21 24
28 25 26 25 25 25 25 25 25 25 24 26 26 24 25 28 30 29 25 14 10 17 23 25 22 22 17 16 15 16 16 13 12 15 12 11 18 18 18 19 21 22 22 25
30 31 30 29 29 30 30 30 29 29 28 27 29 28 23 25 29 30 24 26 25 32 28 28 27 26 25 20 16 16 18 16 14 15 16 17 17 14 14 15 17 18 19 19
29 33 34 35 33 33 33 34 34 33 31 31 29 29 30 27 30 34 33 27 27 28 39 43 36 34 34 27 24 21 16 20 16 14 16 18 16 14 13 13 14 15 14 14

GFSNW_500_spd_045.txt.gz
Wind_Speed
35 38 42 50 54 58 65 71 54 36 18 16 13 13 9 8 4 4 4 5 5 7 10 11 14 21 25 29 28 24 22 24 25 28 34 34 32 32 33 34 33 29 30 28
32 37 42 46 52 54 60 69 61 38 17 15 13 12 13 10 9 6 6 6 5 5 5 5 8 11 16 22 22 21 25 27 28 30 35 44 46 42 39 40 34 30 31 33
33 35 43 44 53 54 57 65 61 39 22 17 15 12 13 14 13 12 10 9 8 7 7 5 7 10 13 14 14 17 20 20 20 21 23 21 22 23 27 28 29 27 30 22
32 35 39 46 51 54 55 62 63 47 21 16 17 14 14 13 13 14 14 11 9 10 9 8 8 10 12 16 17 18 17 18 16 20 24 24 25 23 26 30 25 29 15 16
31 33 39 44 50 54 57 60 66 51 23 17 18 16 16 17 15 14 15 14 12 12 12 10 10 10 12 14 18 21 22 20 20 20 22 23 24 26 25 22 25 25 20 19
31 33 37 42 48 53 57 59 63 54 32 18 17 20 17 16 18 17 15 15 14 14 14 13 13 14 14 15 17 19 20 22 25 24 25 26 28 25 29 28 28 28 31 13
32 33 37 41 47 54 55 54 63 55 35 20 16 18 20 20 19 18 16 15 14 13 11 9 8 11 15 16 17 18 17 18 18 18 21 24 18 21 27 29 28 30 29 24
33 33 32 38 46 53 51 52 60 55 33 19 17 12 20 23 23 20 18 17 15 14 11 10 8 8 11 16 16 16 15 16 17 18 19 17 16 20 22 23 22 28 28 25
34 35 32 36 42 47 51 54 54 55 36 25 17 11 17 17 23 23 20 19 18 15 13 11 9 8 8 12 15 16 15 16 16 16 17 17 15 17 17 15 16 25 24 23
35 37 37 35 39 44 49 53 49 53 37 27 19 12 11 23 17 25 23 21 19 16 14 13 12 9 9 10 13 16 16 15 16 17 13 11 14 13 15 18 15 17 18 19
34 36 37 36 38 43 50 52 45 47 37 27 19 15 13 14 22 21 24 24 22 20 18 16 14 12 12 12 12 14 14 14 14 16 16 15 14 14 15 17 15 13 14 16
31 32 34 34 36 42 45 50 44 44 33 24 20 15 12 13 19 18 26 24 22 22 21 18 16 14 13 16 17 18 16 15 14 16 15 16 16 16 16 15 16 14 14 13
27 27 26 31 33 37 44 46 41 39 29 21 18 15 9 11 14 20 19 27 25 22 22 20 18 17 15 16 16 15 17 20 19 19 17 19 18 19 20 20 17 19 15 12
21 22 25 25 30 36 38 42 38 33 25 21 17 14 11 9 13 16 18 20 28 28 27 25 24 23 18 17 14 14 21 23 24 22 24 27 23 23 23 22 22 22 20 18
15 17 19 24 28 32 34 35 35 32 25 19 17 13 7 6 6 11 15 15 17 23 29 31 30 24 23 19 19 20 24 21 24 21 28 28 28 30 26 24 26 25 25 25
9 13 18 22 25 30 29 25 30 30 24 22 18 16 13 7 7 10 15 19 17 18 21 24 25 30 26 19 15 18 15 20 24 24 24 29 28 35 33 31 28 28 28 28
5 10 18 20 25 30 31 26 26 27 22 19 16 15 13 12 10 6 5 6 6 9 11 15 16 15 14 16 19 19 21 25 30 33 33 33 35 36 39 38 36 32 30 29
3 7 12 15 21 26 28 27 20 24 23 21 16 15 13 12 9 8 6 5 5 4 7 9 9 11 17 20 23 25 27 31 34 35 41 44 45 45 44 44 43 40 37 34
5 3 8 11 14 19 22 24 24 22 21 18 23 21 14 13 12 12 12 11 11 9 10 12 13 16 18 21 22 26 30 31 32 38 44 44 43 46 49 49 48 45 41 39
12 6 5 8 10 11 15 18 21 20 21 22 23 20 28 25 16 15 13 14 14 15 15 17 19 21 21 22 22 23 25 21 22 21 29 27 21 25 50 48 52 48 44 40
17 12 9 7 6 9 10 10 13 16 19 19 18 23 23 23 29 20 16 15 14 15 17 19 19 22 22 23 22 21 21 21 20 20 22 26 19 14 22 34 28 34 43 42
21 19 15 13 11 10 11 10 10 11 14 17 17 17 19 21 25 32 18 13 13 13 16 18 20 22 23 25 23 21 19 17 16 20 16 7 5 5 12 20 25 25 26 39
21 21 20 18 17 16 16 15 16 14 14 15 19 20 19 19 21 25 27 22 12 14 16 18 18 21 21 22 21 19 19 16 15 16 17 11 9 9 10 14 19 22 22 29
27 24 23 21 21 21 21 20 22 22 20 18 20 21 20 19 21 21 23 25 26 16 14 20 26 28 29 28 27 23 21 20 16 12 15 16 16 18 13 14 6 15 22 25
30 29 27 24 24 24 24 24 24 27 26 25 24 23 22 21 19 20 24 23 25 26 22 22 26 33 40 39 34 31 24 23 21 17 16 16 23 22 15 13 19 21 20 21
30 30 28 28 29 30 30 28 27 30 31 31 31 29 27 25 23 23 24 25 28 29 30 31 33 34 35 45 38 32 31 23 22 19 21 24 19 14 17 19 14 15 17 20
28 28 29 32 31 30 31 31 32 32 35 37 37 35 30 28 29 32 35 35 34 31 35 41 40 41 40 45 49 45 40 33 26 22 21 22 22 22 21 21 15 15 16 17

GFSNW_500_spd_048.txt.gz
Wind_Speed
23 29 32 37 40 50 53 60 69 70 45 20 14 9 9 9 5 4 2 5 10 13 13 15 17 22 24 21 20 20 21 21 25 23 19 21 26 28 29 31 29 25 25 24
21 27 32 35 38 47 50 59 68 70 52 18 13 9 10 11 9 6 6 3 4 9 12 17 20 16 18 22 20 21 23 26 25 24 26 29 31 31 29 30 30 31 36 32
21 25 31 35 38 42 52 58 68 70 59 25 12 8 9 14 12 10 8 8 6 6 7 10 14 20 21 20 24 24 27 25 25 27 30 30 33 34 36 39 43 42 39 32
21 23 29 35 36 40 51 55 63 68 63 33 15 8 11 12 14 14 13 11 10 10 9 8 10 12 14 20 24 24 26 27 26 25 23 25 25 24 29 35 31 32 19 20
22 24 28 32 35 40 48 52 60 65 63 36 21 9 14 14 13 15 16 14 13 13 13 12 10 10 12 14 16 18 21 22 23 25 23 23 26 28 28 29 23 27 21 21
26 26 28 31 32 37 42 51 58 62 61 44 24 13 12 16 18 18 15 16 15 15 16 14 12 12 13 13 14 17 20 21 22 21 22 22 19 19 24 24 24 25 26 17
28 28 28 31 32 34 39 47 54 57 56 44 27 18 7 17 17 18 18 16 17 17 16 14 14 15 16 17 16 16 16 18 20 19 23 24 18 20 24 27 26 30 31 24
27 29 30 31 32 32 37 43 49 52 53 45 29 19 10 15 20 19 18 17 17 17 16 15 14 13 13 16 19 18 17 16 16 16 17 18 17 19 22 25 23 29 31 27
29 33 31 32 32 31 35 40 45 49 47 43 32 20 14 8 19 21 19 18 18 18 16 15 13 12 10 11 14 17 17 16 16 16 17 15 15 19 20 21 22 23 27 28
34 35 33 32 32 30 32 37 44 46 43 39 33 25 14 8 14 18 22 20 19 20 18 16 14 13 10 9 9 12 15 15 16 17 15 12 16 13 15 18 18 20 19 20
32 33 32 32 32 32 32 36 41 43 42 37 33 27 16 8 6 18 20 23 22 20 20 18 16 14 13 11 11 12 14 15 14 14 15 15 15 17 17 16 15 18 16 14
35 34 28 29 29 28 30 34 37 41 42 38 32 25 21 10 7 11 17 23 24 24 23 21 20 18 15 15 16 18 19 17 16 16 16 17 18 19 19 18 15 14 19 15
31 32 26 24 25 25 29 33 33 39 40 36 32 25 20 13 5 8 15 16 23 24 24 23 22 22 19 15 15 18 22 24 23 22 20 22 21 22 22 21 19 19 16 17
28 28 23 20 20 23 28 27 27 34 35 34 28 25 17 13 6 8 11 16 14 23 26 24 24 25 22 19 17 19 25 23 22 20 23 24 26 26 25 23 23 23 21 19
25 24 21 17 17 21 23 22 21 28 33 28 23 21 17 12 9 8 6 11 14 14 20 27 30 29 27 24 22 24 26 24 25 23 23 23 23 30 30 27 26 26 26 26
19 18 15 15 16 18 17 20 18 23 28 25 23 22 18 13 12 8 9 10 16 16 16 18 22 28 31 30 27 27 27 27 23 18 20 19 19 23 32 32 32 30 29 29
11 10 12 14 15 16 18 18 19 20 20 22 23 22 19 15 13 13 11 11 10 10 11 13 15 19 22 24 26 30 27 20 22 21 22 26 28 27 30 36 36 37 35 34
13 10 9 9 9 12 15 15 16 18 22 20 18 22 25 25 18 14 12 12 12 10 8 8 8 12 13 16 15 18 20 22 28 29 30 29 29 33 37 40 42 43 42 40
14 14 9 6 7 8 9 12 13 14 17 19 20 23 21 25 25 24 17 16 13 14 14 14 14 15 15 15 17 21 23 24 23 28 27 29 29 30 32 38 37 46 51 47
17 17 12 10 9 7 7 7 8 9 11 12 16 18 19 21 25 28 27 16 16 14 14 18 20 21 20 19 22 24 24 25 26 26 29 29 28 27 26 31 41 42 50 55
22 19 19 18 14 11 9 7 6 6 8 9 11 13 17 17 20 19 26 27 14 12 14 16 20 22 23 24 26 28 29 29 30 31 29 26 29 27 27 34 36 25 33 27
25 22 24 23 20 17 15 13 11 11 12 12 14 15 16 16 16 18 14 14 17 13 16 19 21 21 21 24 27 29 30 29 29 29 26 25 23 22 17 16 3 14 15 23
26 24 27 27 28 25 21 21 18 18 19 18 18 18 19 19 16 16 17 17 13 11 12 12 15 18 20 23 27 31 34 33 32 29 26 24 21 16 9 12 16 20 22 22
29 30 31 30 30 28 28 25 22 22 23 23 23 24 23 23 24 22 21 20 20 17 17 18 20 23 25 25 26 27 35 38 38 35 31 27 22 24 18 13 13 14 14 19
31 32 33 34 34 34 33 30 27 26 28 28 29 30 28 28 30 30 27 27 28 27 26 26 25 28 31 32 33 36 39 39 39 38 33 29 27 24 22 27 21 18 16 16
29 30 31 31 31 32 33 32 30 31 32 31 33 34 32 34 36 36 34 36 36 37 35 35 36 41 43 44 44 45 46 46 49 42 41 33 29 28 28 27 26 22 23 24
29 32 34 32 33 33 33 33 32 30 30 32 33 33 34 35 39 40 42 42 43 44 42 43 44 49 52 54 56 57 57 53 52 50 45 45 36 27 28 27 23 21 22 17

GFSNW_500_spd_051.txt.gz
Wind_Speed
14 20 23 26 30 33 39 48 56 63 65 53 32 5 5 6 4 2 4 8 11 12 14 10 14 26 24 25 24 20 19 19 21 19 20 21 22 24 26 29 30 30 30 25
13 18 22 24 29 31 36 44 53 61 62 58 35 11 5 8 6 2 1 3 7 6 8 12 12 23 21 24 22 21 19 20 22 23 24 25 25 23 27 29 33 36 36 35
14 15 20 24 27 30 35 42 49 58 61 60 35 13 6 9 8 5 3 3 4 9 9 12 16 15 21 22 22 20 22 21 21 23 23 25 24 23 27 30 34 34 34 34
12 14 20 24 27 30 33 38 46 53 58 57 39 16 7 9 13 10 7 6 5 8 10 11 13 16 18 20 21 20 20 21 22 24 26 26 27 26 29 32 34 38 30 34
11 16 20 23 27 30 31 36 43 50 53 55 38 21 3 11 12 15 12 10 9 9 10 11 12 13 15 18 20 21 21 22 25 29 28 26 24 23 26 27 25 25 23 28
10 13 17 22 27 29 29 34 39 47 51 51 42 23 15 10 14 14 15 13 13 12 12 12 11 11 12 15 18 19 19 21 22 23 25 25 22 22 23 26 25 27 28 20
10 12 17 24 26 27 29 31 36 42 46 47 44 32 16 2 16 17 15 14 15 15 14 14 13 11 12 13 14 16 18 20 21 20 21 20 17 18 18 18 20 25 25 23
12 14 21 24 25 26 27 29 32 38 41 43 40 34 17 9 11 16 16 17 16 15 15 14 13 12 12 13 14 16 17 16 17 17 18 17 16 17 18 18 22 23 23 23
12 16 24 25 25 22 24 26 30 34 35 39 38 34 23 10 1 16 16 16 17 17 16 15 15 14 14 12 12 14 16 17 16 15 15 15 16 18 19 19 20 21 23 26
13 17 24 25 25 20 21 24 26 30 32 33 35 32 25 16 7 8 19 18 18 19 18 17 16 14 13 12 11 10 12 14 14 15 14 17 18 17 17 20 20 19 19 20
15 22 24 17 23 18 18 20 23 27 30 30 35 32 27 20 7 5 15 21 21 20 20 19 16 14 13 13 14 13 13 13 15 15 15 17 16 17 17 17 18 16 18 18
23 27 26 14 20 18 16 16 21 24 27 29 31 28 26 21 12 5 11 18 22 23 22 20 20 17 15 16 16 18 19 18 17 17 17 18 17 18 19 19 20 19 18 17
33 39 25 17 16 13 12 13 17 20 25 25 31 25 25 22 18 10 6 15 18 22 24 24 23 22 21 19 19 21 22 24 23 22 21 21 21 21 22 21 21 22 21 21
36 36 19 14 11 7 7 9 13 16 19 24 23 24 23 23 17 14 13 10 14 16 17 25 26 27 26 24 24 25 23 22 22 22 22 21 23 28 28 26 26 23 23 23
35 29 23 14 6 4 5 7 10 14 17 19 19 20 24 24 21 17 14 12 10 15 14 15 22 29 28 29 29 29 27 26 25 22 24 22 24 27 28 27 28 28 25 26
39 33 24 13 3 3 4 5 6 10 13 19 15 13 19 22 23 18 11 11 9 13 16 16 19 21 26 32 32 32 31 30 30 24 26 26 25 24 25 25 29 29 28 28
39 32 18 9 6 5 3 2 6 8 12 17 17 14 13 20 23 24 21 14 12 10 12 13 13 13 17 19 21 24 27 29 31 31 24 25 27 24 27 28 29 29 29 30
38 27 18 11 9 4 4 4 6 9 12 14 16 18 16 20 17 19 24 17 13 13 13 14 12 9 8 9 9 12 15 16 20 22 23 25 28 28 25 26 29 30 34 35
33 24 18 14 8 6 6 6 6 9 11 11 14 17 17 19 20 17 22 21 23 18 13 15 15 15 15 17 17 16 18 20 20 24 27 27 28 28 27 29 30 32 34 36
29 25 19 15 10 9 10 8 7 9 10 12 13 14 14 18 17 15 17 17 17 23 18 18 18 17 17 19 21 23 23 24 25 25 26 29 31 33 33 31 31 35 36 40
31 24 21 17 14 15 14 13 12 11 11 12 13 14 14 16 17 16 15 15 16 17 18 19 20 20 21 23 26 27 28 29 30 31 31 30 30 30 32 31 32 30 31 36
26 26 24 19 19 21 20 18 17 17 17 18 17 17 15 16 17 17 16 17 17 17 14 15 15 19 21 22 26 29 31 33 34 33 33 33 31 29 31 29 25 22 23 22
28 30 26 22 24 24 25 24 22 24 25 26 25 23 23 23 21 19 18 18 19 20 19 17 19 19 21 22 24 29 33 34 30 28 28 32 35 34 30 30 23 21 23 20
33 31 28 25 24 24 26 27 27 27 28 30 31 30 29 29 28 27 26 26 25 26 27 27 27 28 30 33 35 35 36 42 44 43 41 37 39 38 37 34 31 28 22 19
32 30 28 26 26 27 28 29 30 32 34 35 37 36 35 35 33 31 31 31 30 31 32 31 31 33 35 37 41 45 48 44 46 48 53 54 51 48 44 39 36 31 28 24
33 31 28 30 29 29 28 27 27 28 31 35 37 36 34 33 33 33 34 37 37 35 33 33 33 38 41 46 52 54 53 54 56 59 61 62 60 59 54 46 42 35 35 28
30 28 29 28 27 28 27 26 27 28 29 32 33 34 36 37 38 38 41 41 38 38 38 39 41 44 51 57 60 64 64 63 63 62 61 60 57 57 53 50 50 33 32 29

GFSNW_500_spd_054.txt.gz
Wind_Speed
17 14 15 17 19 23 24 30 38 48 55 57 51 28 7 3 1 4 9 12 9 15 15 17 24 26 19 24 18 21 23 19 18 19 19 22 24 27 27 28 28 27 27 25
11 11 12 13 17 20 22 28 35 43 52 56 50 34 5 4 5 4 5 8 8 7 10 15 19 25 20 21 20 17 22 17 20 20 21 24 23 22 26 28 27 27 28 32
8 8 9 11 14 19 22 26 33 39 46 50 49 34 11 6 8 5 6 5 4 7 9 11 17 25 24 21 22 19 18 17 18 20 19 20 21 23 26 29 31 27 31 28
6 4 6 8 12 18 22 24 31 31 42 46 46 34 14 7 11 9 6 6 6 6 9 11 13 28 27 26 25 21 20 19 20 20 20 22 23 24 25 26 23 30 24 28
8 5 2 6 11 17 20 23 28 29 38 42 45 35 21 5 12 13 11 8 8 7 6 9 12 15 20 20 21 23 20 19 20 24 26 26 26 23 24 28 29 32 30 27
10 5 2 6 10 16 19 21 24 26 32 36 40 38 26 4 13 14 15 12 10 9 9 10 10 12 13 16 19 22 24 23 24 25 25 27 28 27 29 28 29 32 30 26
11 6 2 7 10 16 17 18 21 22 27 34 36 37 29 8 12 15 16 16 15 14 12 13 14 13 13 13 13 14 17 19 19 19 21 21 21 24 25 25 26 27 26 27
9 6 1 7 9 12 15 16 18 19 23 30 31 33 29 16 4 16 18 17 16 16 15 14 14 14 14 13 14 16 17 18 19 19 20 22 22 23 24 25 26 25 24 24
11 7 3 7 9 9 13 16 15 16 20 24 29 31 31 21 6 12 18 18 18 16 15 15 15 14 14 12 12 13 15 18 20 19 19 21 23 25 25 26 28 26 24 24
14 9 4 8 10 7 11 12 11 13 18 19 24 27 28 25 14 3 17 19 17 19 18 17 16 15 15 13 14 12 11 13 17 19 18 23 21 21 21 23 24 22 21 22
18 13 8 7 9 7 8 9 10 11 13 15 19 20 25 26 20 10 5 16 18 16 18 18 20 18 18 17 16 15 13 13 13 15 17 20 18 17 19 19 19 18 19 20
23 20 17 16 23 15 4 5 10 6 8 14 17 16 19 25 22 15 8 6 14 17 19 20 20 19 19 19 19 19 17 16 16 16 17 19 19 18 18 19 19 21 22 22
27 21 21 19 17 12 9 4 7 5 7 11 13 12 16 20 24 21 13 6 7 13 18 21 21 20 20 21 22 22 22 21 19 20 21 22 24 24 24 21 21 22 23 22
27 25 19 17 16 13 7 6 5 3 4 8 7 10 14 18 21 25 18 9 8 9 18 15 18 23 24 26 28 28 27 27 25 23 22 20 24 26 26 25 26 25 25 26
25 24 21 20 19 16 10 10 6 4 1 2 4 6 11 15 19 24 23 17 11 10 11 13 11 13 20 27 30 31 31 31 30 28 27 24 24 27 27 26 27 27 25 26
25 22 20 18 19 11 14 9 9 5 4 1 1 4 9 12 17 21 24 21 14 9 9 11 14 15 18 18 21 27 33 34 33 32 32 30 30 29 30 28 27 29 31 30
23 21 18 18 18 13 14 10 10 8 6 3 2 2 5 10 10 15 21 25 25 16 9 9 11 11 12 12 12 15 17 19 20 20 20 25 31 32 32 32 30 32 35 35
18 20 19 17 17 14 14 14 13 9 7 6 3 3 7 10 12 11 9 16 20 22 22 16 12 12 12 12 13 12 14 16 16 18 19 19 21 25 27 29 30 33 35 32
22 20 19 19 17 20 18 16 14 10 8 6 4 6 8 11 13 12 9 7 16 11 17 17 16 14 10 13 15 16 18 19 21 23 26 27 28 27 28 29 33 32 33 33
25 23 21 20 23 22 19 16 13 13 10 7 8 10 11 13 15 15 14 11 10 14 9 12 11 12 13 12 14 17 19 21 23 26 28 30 33 35 35 35 34 36 36 34
24 23 24 23 23 24 20 18 15 14 12 11 13 14 16 16 18 20 19 17 13 14 14 15 13 12 13 15 17 16 16 17 19 23 28 32 36 38 40 40 39 37 36 36
25 24 27 26 27 24 22 20 17 16 16 16 18 20 22 22 23 23 23 23 20 20 21 21 19 22 19 19 21 21 24 27 29 32 33 37 39 40 38 38 38 37 37 34
30 27 30 28 27 26 22 20 18 19 20 22 22 25 26 27 29 30 30 31 29 29 27 24 24 27 29 30 31 33 35 38 39 40 41 44 46 44 46 43 37 35 36 36
30 31 28 32 27 22 20 19 17 18 20 23 26 29 30 32 35 35 36 37 34 34 33 31 30 30 31 32 34 37 41 44 45 48 51 51 53 56 57 53 51 53 47 39
36 32 31 29 22 21 21 19 17 19 22 25 25 26 27 29 31 32 35 36 36 37 35 35 34 35 36 38 40 43 46 48 52 57 60 62 64 62 60 61 61 59 57 54
35 30 29 25 23 23 21 19 19 17 20 23 24 25 25 26 29 30 32 34 35 36 36 36 35 38 41 43 46 49 54 60 63 67 70 71 69 65 66 67 66 62 58 54
28 30 29 26 26 25 21 18 13 14 19 23 23 25 26 29 31 33 34 35 34 34 36 37 38 40 44 49 54 59 63 68 73 72 64 57 55 50 47 47 50 55 55 52

GFSNW_500_spd_057.txt.gz
Wind_Speed
23 21 17 15 10 12 12 17 22 31 38 46 49 45 21 5 3 7 12 15 16 20 17 18 21 23 19 19 19 17 21 22 22 23 22 22 24 27 27 27 24 24 23 24
22 16 13 10 7 7 10 14 19 28 34 44 47 44 26 3 2 4 7 13 10 12 18 18 22 23 22 20 18 22 23 20 18 20 22 21 21 23 22 24 26 26 26 27
22 13 12 8 4 3 9 11 16 25 32 39 44 43 31 6 6 4 5 5 7 9 11 22 22 17 23 17 16 16 19 16 15 19 18 15 17 19 21 26 29 26 28 26
21 13 12 10 5 3 7 10 15 21 27 35 40 42 36 14 8 8 6 6 6 8 10 14 25 23 18 16 16 15 16 16 16 17 17 17 18 20 23 25 20 26 23 27
23 17 14 10 5 2 6 7 12 17 23 30 35 39 36 20 8 12 9 8 8 7 9 11 14 28 27 21 19 19 19 19 18 19 20 20 19 22 25 25 23 28 28 27
26 22 15 10 5 1 4 5 9 13 15 25 29 35 37 26 8 12 14 11 9 9 8 9 12 21 22 24 24 25 24 23 22 21 22 23 25 25 27 29 29 31 33 35
28 23 16 10 7 4 3 4 6 10 13 19 26 30 36 31 13 11 15 15 13 11 10 11 12 14 16 21 22 24 25 25 26 25 26 28 28 28 30 32 35 35 34 33
31 23 19 10 7 6 3 3 5 8 10 13 22 26 30 30 21 6 14 16 16 14 14 12 13 14 16 17 18 19 20 22 22 23 24 28 29 30 30 31 31 30 31 29
29 24 18 10 7 6 4 4 4 6 9 8 14 22 26 30 24 11 10 17 16 16 16 16 15 16 16 17 17 17 18 19 21 21 23 25 27 25 26 28 32 29 28 28
26 18 20 13 4 8 6 9 5 5 6 8 9 17 22 25 24 16 7 14 17 19 19 16 16 16 16 17 18 17 16 16 18 20 23 27 24 23 24 27 30 28 28 27
30 21 21 14 7 1 8 10 7 5 7 8 6 7 17 21 24 20 14 5 14 19 19 19 18 17 17 18 17 17 17 16 15 16 18 22 21 22 24 25 26 26 26 26
24 32 23 15 8 8 9 13 12 7 9 8 6 6 10 16 16 20 18 14 4 12 18 19 18 17 18 17 17 18 17 18 18 18 18 19 21 23 25 24 23 24 26 28
31 23 24 16 12 9 4 10 14 11 11 9 7 6 8 11 14 15 20 18 11 6 12 17 18 18 18 19 20 21 20 21 21 23 22 22 24 26 27 26 26 27 27 27
32 25 22 18 10 5 4 11 14 14 13 10 8 7 6 3 9 10 14 16 14 10 7 11 15 12 18 21 22 24 24 25 26 26 28 26 27 29 26 26 28 28 29 30
31 26 25 22 16 6 3 9 16 17 14 12 10 8 5 5 6 7 11 13 14 13 10 10 8 12 13 14 18 23 27 30 30 30 30 30 31 31 31 28 28 29 29 30
25 24 20 18 12 8 5 11 19 18 17 14 12 10 6 4 3 5 7 9 11 15 14 10 9 13 17 20 19 20 20 24 26 30 32 33 33 35 36 34 35 35 33 34
23 15 15 17 13 9 11 15 16 18 18 16 14 12 9 6 4 4 4 6 8 14 16 16 13 9 10 11 14 14 13 13 14 14 15 17 19 20 23 26 28 32 35 36
22 15 18 18 14 12 12 18 22 19 20 17 15 13 10 8 7 5 5 6 7 8 9 12 12 13 13 13 13 16 17 18 18 19 19 21 22 23 24 25 27 29 31 34
20 17 19 18 16 18 18 21 23 22 20 18 16 15 12 11 9 8 8 8 9 11 11 13 14 15 15 14 14 16 17 17 23 23 24 24 24 25 26 27 30 31 32 34
22 20 18 21 20 18 21 24 25 24 21 19 17 17 14 13 13 13 12 14 15 15 17 18 18 19 19 19 20 18 21 22 21 20 21 26 29 31 35 36 34 37 38 38
24 20 17 19 18 21 28 29 27 26 22 21 19 18 15 15 17 18 19 21 23 23 22 25 25 24 24 24 24 27 28 29 31 33 34 34 36 38 40 41 44 44 42 45
23 22 19 19 17 22 28 30 30 25 21 20 20 19 18 19 21 23 25 26 28 29 29 30 30 29 32 33 30 33 36 39 41 43 45 46 47 48 51 51 51 50 54 54
27 22 18 15 11 18 24 28 28 23 22 21 21 22 22 23 25 27 28 29 29 31 30 29 29 32 34 35 37 38 41 43 45 49 51 54 55 57 59 62 66 68 64 63
30 24 21 14 10 14 23 27 24 21 20 19 19 21 23 25 26 27 28 30 30 31 29 28 31 34 36 39 43 45 47 47 47 49 51 56 59 63 69 75 76 76 74 71
30 24 22 22 19 16 20 22 20 19 18 19 21 21 22 24 26 25 29 31 32 31 32 34 37 39 41 42 42 43 45 47 49 54 59 65 71 76 78 79 78 77 74 72
30 22 22 28 19 16 20 22 21 20 20 21 21 21 23 23 25 26 29 31 33 35 36 38 38 39 41 41 44 45 49 52 56 63 69 74 78 76 67 61 53 46 42 42
26 24 23 18 21 22 23 22 20 20 21 20 20 21 24 26 26 29 31 34 36 38 40 41 41 41 42 43 47 51 54 59 64 69 75 74 63 55 49 39 28 28 29 29

GFSNW_500_spd_060.txt.gz
Wind_Speed
32 27 24 23 17 15 6 4 10 20 23 31 43 43 34 18 8 11 6 14 15 12 12 12 14 22 20 21 26 32 25 18 23 23 18 20 21 20 20 22 24 22 22 21
36 30 26 23 15 12 4 2 7 14 22 27 39 40 36 22 5 5 9 11 16 11 10 8 19 19 20 20 20 22 22 19 23 20 16 18 17 16 18 18 22 24 24 23
30 28 24 21 16 13 6 3 5 11 20 22 34 38 36 28 7 0 2 3 8 17 13 11 15 16 15 14 14 14 15 15 16 15 13 13 13 16 18 21 22 19 22 23
33 26 24 20 19 14 8 5 4 7 17 20 27 36 35 33 12 4 3 2 4 6 15 18 16 16 15 14 13 13 14 15 13 12 13 15 16 18 21 23 18 24 19 22
37 30 26 23 20 15 10 7 3 4 8 18 22 30 33 33 23 5 6 4 3 4 7 18 24 18 17 17 13 12 12 15 14 11 12 12 14 16 18 18 19 22 21 22
29 32 26 25 22 17 11 9 5 2 4 15 19 25 27 31 25 11 8 7 4 5 5 9 21 27 22 20 15 14 14 14 14 12 14 15 18 17 18 19 20 23 25 27
28 28 30 27 23 19 14 10 6 1 3 6 17 19 22 29 26 15 5 10 10 9 7 7 11 16 24 24 22 20 20 20 21 20 20 22 23 22 24 25 26 27 29 30
31 24 33 30 24 21 17 12 8 5 2 3 10 17 21 22 25 21 9 8 14 12 12 10 10 10 16 17 18 20 21 23 24 25 28 31 31 31 29 30 30 31 33 33
33 27 34 31 26 22 18 13 9 8 4 4 5 12 16 19 23 24 19 7 10 14 14 14 14 14 14 16 16 17 19 20 22 22 24 27 29 24 25 28 30 27 30 31
35 35 38 30 25 22 18 13 10 7 7 4 6 5 12 17 17 22 22 18 8 13 15 14 14 15 16 17 17 19 20 20 20 20 22 23 23 24 25 28 29 27 27 29
36 33 41 33 25 22 15 13 10 8 9 7 7 7 7 13 13 15 19 21 16 9 12 14 16 15 15 15 16 17 18 18 19 20 20 19 19 20 23 25 25 26 28 29
38 34 28 31 28 22 10 13 15 14 14 10 7 7 6 8 10 14 14 19 21 13 7 10 15 15 16 16 17 18 19 19 19 19 19 20 21 21 23 22 25 27 29 30
36 32 20 33 27 16 14 7 13 15 16 11 10 9 8 7 7 7 12 13 19 21 18 10 10 13 16 17 16 18 19 18 20 22 23 23 26 25 25 25 26 28 30 31
40 35 28 32 25 18 15 8 6 13 15 13 11 10 10 9 8 6 8 9 12 14 16 17 12 8 8 9 13 18 22 22 25 30 29 30 31 31 31 31 31 30 30 31
39 35 32 29 26 21 15 10 7 11 14 14 13 12 12 11 9 6 5 7 9 11 13 14 15 12 7 12 13 15 19 19 23 27 29 32 34 34 35 35 34 35 33 33
39 36 30 31 26 21 15 12 10 13 16 18 16 15 12 12 12 9 7 6 7 9 8 8 10 10 11 12 15 17 19 19 20 22 20 20 22 24 25 26 26 26 28 30
36 34 31 34 29 23 18 16 14 13 17 19 17 15 14 13 13 11 9 6 6 5 7 8 9 9 9 9 11 13 16 17 18 19 21 21 21 22 25 27 27 26 26 27
33 31 35 32 31 26 21 17 16 18 19 19 18 16 16 15 12 11 11 9 10 9 10 10 10 11 12 14 14 15 16 18 21 23 25 25 26 26 26 28 30 30 30 31
29 32 29 32 29 27 23 19 18 21 19 19 18 18 17 17 16 15 13 13 13 15 15 15 18 18 18 21 23 24 25 24 25 27 28 30 32 30 32 36 36 35 36 37
31 31 32 33 28 25 24 20 21 21 22 21 20 19 19 18 17 17 15 17 17 17 19 21 20 21 24 26 28 30 31 33 34 35 36 38 41 43 43 44 42 42 45 46
31 25 28 26 24 25 23 22 21 21 22 22 21 21 21 21 19 19 20 21 22 21 22 25 25 23 27 30 33 34 35 37 40 42 44 45 47 49 52 54 56 57 58 59
28 29 27 21 21 21 19 21 24 25 24 23 23 23 22 23 23 23 24 25 26 26 26 27 27 27 30 33 35 38 40 42 44 46 47 49 51 53 52 53 56 58 58 62
30 29 24 18 18 17 16 18 22 26 24 26 26 23 24 24 25 25 25 26 26 27 28 31 31 32 32 34 36 38 40 43 45 47 47 48 51 54 57 58 62 66 69 73
27 24 21 18 15 12 12 17 21 24 25 24 24 23 23 23 22 24 25 26 27 29 31 33 35 36 35 36 38 39 42 46 47 49 50 51 56 60 64 68 73 80 83 83
26 24 26 21 17 10 8 11 16 19 20 22 23 23 21 20 21 23 25 27 30 32 35 37 38 38 39 40 41 43 45 47 49 52 55 59 63 67 71 79 80 75 68 57
24 22 22 19 13 11 8 11 15 19 20 22 23 22 19 20 20 22 25 28 30 33 35 37 40 42 43 43 44 46 47 49 52 56 60 63 69 74 76 69 62 52 43 31
21 16 19 17 11 9 15 18 19 22 23 23 22 20 19 19 20 23 26 28 30 33 36 39 42 44 45 46 47 48 49 52 56 60 65 70 75 71 63 55 44 36 30 29

GFSNW_500_spd_063.txt.gz
Wind_Speed
52 45 42 24 19 21 15 14 10 7 13 20 26 37 34 28 13 15 10 8 7 8 16 13 17 17 19 22 17 16 17 23 15 13 19 20 17 17 19 21 23 23 24 25
49 47 41 22 22 22 17 16 7 4 11 16 21 31 32 26 12 11 13 14 4 5 11 12 12 21 19 22 22 17 18 15 11 13 16 15 15 16 16 17 22 25 23 21
50 48 33 22 23 24 22 17 9 1 9 15 17 27 29 30 20 9 9 6 9 7 4 8 17 18 18 16 21 21 22 22 15 16 18 12 14 15 16 18 19 20 22 23
46 47 30 23 29 28 22 18 12 6 9 11 15 22 27 30 25 14 5 5 5 1 7 7 13 16 17 16 14 15 15 18 14 15 14 13 15 16 18 18 17 21 20 25
46 44 29 29 23 31 23 19 14 10 8 12 15 18 23 26 28 19 5 4 3 3 6 12 13 11 10 10 10 12 14 14 13 9 9 10 10 12 12 12 16 18 19 22
46 38 25 26 27 30 25 21 16 13 11 10 12 15 19 23 26 24 12 2 2 1 2 8 16 15 11 11 9 8 7 8 8 8 8 9 9 11 11 11 13 14 14 16
50 33 28 30 33 31 28 23 18 14 11 7 8 13 17 19 23 24 20 6 2 2 2 1 7 19 20 17 15 14 11 12 12 13 15 15 14 15 16 16 17 18 20 21
45 31 26 32 38 32 29 24 20 16 11 9 4 8 14 17 19 23 25 18 8 6 6 5 4 5 12 23 23 23 21 19 18 17 17 20 20 20 21 22 23 24 26 27
45 30 26 31 40 32 31 26 21 17 13 8 6 2 9 13 17 18 21 22 16 5 7 9 9 8 9 10 15 18 17 17 19 21 23 23 23 21 21 23 25 26 28 27
31 30 32 33 42 34 31 27 21 17 13 9 6 3 3 9 12 16 17 20 22 12 5 4 9 12 14 15 16 17 19 20 20 22 23 24 24 24 25 27 28 29 30 30
31 34 31 38 43 36 33 27 22 18 15 11 8 4 5 3 8 11 15 19 20 22 15 8 4 10 14 15 17 17 19 21 22 23 23 23 24 23 23 25 25 27 28 29
35 37 28 42 43 37 32 27 24 20 15 12 10 7 5 4 4 7 10 13 13 17 21 21 13 6 7 12 13 16 17 21 22 24 24 23 24 24 25 26 27 27 27 29
37 39 31 47 42 37 32 28 25 21 16 15 12 9 6 6 4 3 5 8 11 12 15 17 20 21 16 9 8 14 16 19 21 24 25 27 27 29 31 31 32 32 33 33
41 37 34 48 43 36 30 28 25 19 16 15 14 10 8 7 6 5 5 6 7 10 10 12 13 14 16 16 12 9 13 16 18 20 24 25 29 31 34 36 37 37 37 37
40 35 37 45 45 37 30 24 20 17 17 15 15 13 10 8 8 7 6 7 8 6 7 9 11 13 13 13 11 11 12 15 20 24 27 27 27 27 28 30 31 32 32 33
34 33 39 38 42 36 30 24 19 15 15 13 11 11 9 9 10 9 7 7 8 9 8 10 10 10 11 11 10 12 13 14 14 15 16 18 19 21 23 25 26 27 28 29
38 36 35 35 39 36 30 25 19 14 13 12 12 10 11 11 10 10 9 8 8 10 10 12 11 11 12 13 16 16 16 17 18 20 20 22 25 26 27 28 28 29 29 31
40 38 30 46 41 37 32 26 21 16 14 13 11 11 11 12 10 10 9 9 10 12 13 15 16 16 17 18 20 23 25 24 26 27 28 29 30 31 33 34 35 36 38 40
38 40 35 43 39 34 29 26 22 18 14 12 12 12 13 13 13 13 12 12 13 15 15 17 19 20 21 23 25 29 31 32 33 34 35 38 39 40 42 43 45 45 47 48
35 34 38 44 40 35 31 28 23 19 16 15 13 12 13 13 13 14 14 15 15 16 18 20 19 21 25 27 27 29 31 34 36 37 39 42 45 47 48 49 51 52 55 58
27 27 38 43 39 37 33 27 24 19 17 15 15 16 16 15 15 17 17 18 19 18 19 21 20 23 24 27 28 30 32 34 36 38 40 43 44 45 46 49 51 54 57 59
30 38 36 37 34 33 31 27 23 20 18 16 16 17 18 18 18 19 19 20 20 20 20 21 22 23 26 28 30 32 35 38 39 42 44 45 46 47 48 49 51 53 57 62
30 36 36 36 31 29 26 21 18 16 16 18 20 20 21 20 20 19 20 20 18 20 21 22 24 26 27 29 32 35 38 40 42 46 48 49 49 50 52 55 58 61 64 69
38 37 33 33 28 24 20 18 18 17 18 20 21 23 22 22 20 19 19 19 19 20 21 23 25 27 29 32 35 38 40 43 46 50 51 51 52 53 57 61 65 71 75 75
33 33 29 24 23 21 18 16 15 16 17 20 23 23 23 22 19 18 19 20 21 21 23 25 28 30 33 35 39 42 45 49 51 52 52 54 55 56 61 68 74 75 68 54
33 31 28 23 25 20 16 14 15 16 18 22 23 23 21 18 19 19 18 20 21 21 24 28 30 35 37 39 44 47 51 54 55 55 54 56 59 61 66 72 72 62 49 40
28 27 25 23 22 16 17 17 19 16 17 21 21 20 17 17 19 18 19 21 22 24 27 30 35 38 40 44 49 52 55 58 58 57 58 61 64 67 72 69 60 47 41 36

GFSNW_500_spd_066.txt.gz
Wind_Speed
56 40 45 39 37 47 29 20 19 13 4 8 16 22 23 19 14 14 14 13 11 11 14 5 7 9 9 13 19 16 18 11 8 9 13 13 15 19 26 28 25 23 25 26
64 44 45 43 42 40 20 22 18 12 3 6 13 20 23 17 15 18 16 14 15 11 13 6 8 13 10 9 9 10 13 13 9 5 7 13 15 13 15 18 20 23 26 28
46 46 41 41 33 33 23 26 19 13 7 9 10 18 22 20 15 16 16 12 12 11 16 13 16 14 13 13 12 6 6 12 10 3 6 10 10 13 15 16 19 22 25 24
49 51 44 43 34 27 27 26 22 14 11 12 10 16 20 21 18 16 15 14 11 10 7 9 14 18 16 14 17 18 18 19 19 15 13 14 13 14 16 16 18 20 26 28
50 42 48 41 35 25 21 27 23 17 14 15 11 15 19 22 25 18 13 14 13 13 11 13 13 15 20 15 13 14 16 16 14 11 12 14 14 15 18 16 20 23 24 27
54 40 49 36 25 30 30 31 24 19 18 17 12 14 16 21 26 23 15 14 11 12 12 12 12 11 11 11 10 10 9 10 11 11 10 10 11 12 13 13 14 14 19 22
49 38 41 31 32 24 37 33 26 22 20 18 16 12 12 18 24 24 22 13 11 9 9 8 12 13 12 10 9 9 8 9 9 10 11 11 11 11 13 14 15 17 18 20
48 42 36 29 24 25 35 31 27 24 22 18 16 13 13 15 22 24 25 22 12 9 9 9 7 3 12 17 16 16 16 15 15 14 15 15 16 18 20 22 22 23 25 27
47 41 36 35 27 32 36 32 27 25 25 20 16 11 11 12 16 21 23 23 22 15 6 5 7 7 7 5 9 19 23 20 21 20 21 23 21 21 22 23 25 25 28 29
49 36 36 34 31 36 36 31 29 27 25 21 16 12 10 9 12 16 18 22 20 21 20 10 2 5 8 9 11 12 14 17 20 21 23 25 25 24 25 24 25 26 29 30
44 41 35 34 32 41 35 32 30 28 25 21 17 12 9 8 8 11 13 15 19 20 22 20 16 8 2 7 12 15 17 20 22 24 24 23 26 27 27 27 27 27 28 28
42 43 34 30 34 40 35 33 31 27 24 21 17 13 10 7 5 5 7 10 12 15 16 17 16 18 15 8 4 8 10 12 18 20 22 24 24 25 28 29 30 31 33 35
39 33 35 28 41 40 35 33 30 28 25 21 17 13 10 7 5 4 3 5 7 8 9 11 12 14 12 13 12 13 13 14 14 12 13 17 20 23 26 28 30 34 36 38
35 34 33 32 41 40 35 32 28 26 24 20 16 12 10 8 6 5 3 2 2 5 5 8 9 9 9 9 9 11 13 15 16 17 19 22 24 25 27 28 29 32 35 36
32 35 30 34 39 39 35 32 30 27 24 20 18 16 11 8 6 4 3 2 1 2 5 7 8 9 10 10 11 11 14 15 18 19 22 25 26 26 25 24 24 25 26 28
31 32 31 33 47 40 36 33 30 26 22 16 16 15 11 8 5 4 3 4 4 3 6 8 9 10 12 13 14 16 17 19 21 22 23 26 27 28 28 29 30 31 31 31
34 28 33 37 46 38 32 31 30 25 22 19 17 15 11 9 6 4 5 4 5 6 7 10 11 13 14 16 16 19 21 23 25 27 28 30 32 32 33 34 36 37 38 39
34 27 31 35 50 40 35 33 29 26 22 19 15 14 11 8 6 5 5 6 7 8 9 12 14 16 17 18 19 21 22 24 26 28 30 32 35 38 39 42 43 43 44 45
29 28 34 32 44 43 37 34 30 25 20 16 15 13 11 7 7 7 7 7 8 10 11 14 17 19 19 19 20 22 23 26 28 30 32 35 37 40 42 45 47 48 49 50
31 26 31 29 38 40 38 35 28 24 21 19 14 13 10 8 8 8 9 9 9 12 15 17 19 19 19 19 21 24 26 28 30 32 35 38 40 42 45 47 49 50 49 51
27 29 29 35 41 41 36 32 28 26 23 19 14 12 11 10 10 11 10 12 13 13 17 18 18 18 19 20 23 25 26 29 32 35 38 41 43 45 46 47 50 50 50 52
27 28 29 36 44 42 38 32 29 26 21 17 15 13 12 11 11 12 13 15 16 16 16 17 18 19 20 21 24 27 29 31 35 39 43 46 49 50 51 51 52 52 52 54
28 32 31 38 42 41 34 33 31 25 19 16 15 14 14 13 13 14 16 17 17 17 17 18 19 20 21 24 27 30 31 35 39 44 48 51 53 54 54 54 54 54 55 58
31 33 32 37 35 38 32 30 24 24 24 20 18 18 18 17 17 16 17 18 18 17 19 20 20 22 25 27 31 33 36 40 45 49 53 56 56 55 55 56 57 58 61 66
32 35 33 32 31 29 26 28 26 23 20 21 22 21 20 20 19 18 19 19 19 19 21 21 23 26 28 31 34 38 43 47 52 56 59 60 58 57 56 58 59 62 64 64
31 33 35 31 30 27 27 26 25 23 22 22 22 21 21 20 18 19 20 19 20 22 23 24 28 31 33 35 40 45 48 53 57 62 63 62 61 59 58 58 61 62 62 57
32 33 32 30 29 29 30 27 24 22 20 20 18 18 18 17 18 19 19 19 22 23 24 27 32 35 38 41 45 49 53 57 63 67 67 66 64 63 61 61 62 60 56 51

GFSNW_500_spd_069.txt.gz
Wind_Speed
12 38 52 48 37 36 32 27 33 26 17 11 11 5 4 7 15 11 11 15 17 13 9 7 19 19 18 21 21 17 16 16 10 9 11 16 21 22 23 23 20 17 19 20
25 47 63 50 42 34 33 32 32 18 15 10 7 5 9 13 16 14 14 14 15 13 10 9 11 11 16 15 13 17 13 7 10 9 7 8 9 14 22 27 27 26 25 24
40 51 45 45 46 36 31 27 33 17 15 10 4 9 15 15 16 19 17 14 13 17 14 9 12 9 7 10 13 10 5 8 8 5 2 7 12 13 12 14 17 25 29 28
40 50 44 52 39 33 24 28 20 19 15 12 10 12 19 19 17 19 17 17 15 15 16 11 9 11 12 6 6 6 3 5 7 9 7 6 7 7 11 13 14 18 21 24
52 59 53 51 36 30 28 26 20 22 18 14 14 17 20 23 21 20 18 17 17 14 12 13 16 16 13 10 8 9 13 14 16 13 10 9 11 9 10 12 16 17 18 21
58 53 56 43 34 30 25 25 24 23 19 20 19 19 21 21 24 23 19 17 18 18 16 14 12 13 15 15 13 12 11 12 11 10 8 8 9 11 13 15 17 18 19 21
53 54 50 44 33 31 30 31 30 26 23 23 22 20 22 23 22 25 20 17 17 17 16 15 14 15 15 13 10 7 7 5 6 6 8 9 10 11 11 11 13 15 15 17
55 53 46 37 34 31 28 28 31 27 26 29 24 21 22 22 25 24 25 20 19 17 15 14 13 14 14 12 11 10 8 9 9 10 11 12 13 15 15 17 19 21 23 26
57 49 43 39 30 30 24 31 30 29 28 30 26 22 21 23 23 25 23 23 21 17 15 12 11 10 9 8 10 13 16 16 15 15 18 19 18 20 21 22 24 25 27 29
51 42 41 37 33 30 33 33 30 30 29 28 27 22 20 19 21 23 22 22 22 21 18 12 10 8 8 6 8 10 9 10 13 16 18 20 21 24 25 25 25 28 26 28
41 43 35 34 34 35 36 34 31 32 30 28 25 22 19 18 17 17 19 18 18 19 19 17 15 12 9 5 4 3 4 7 11 14 16 17 16 20 21 24 27 28 29 30
40 40 34 31 29 37 36 33 31 31 30 26 22 20 17 14 14 14 13 14 14 14 15 14 11 11 10 10 10 7 2 4 3 5 6 11 13 15 17 19 20 23 25 30
37 31 30 31 32 38 36 34 32 31 28 26 22 18 16 14 11 10 9 9 9 8 7 8 7 6 4 5 4 2 3 4 6 8 10 13 16 19 22 24 26 27 29 30
32 26 27 29 36 39 36 33 31 29 28 25 22 18 16 12 11 9 6 4 4 3 2 3 3 2 3 3 3 4 5 8 9 11 12 15 18 21 23 26 29 32 34 35
31 28 26 24 32 38 34 33 31 30 28 25 23 20 15 12 10 8 7 5 4 2 1 1 2 4 7 7 8 10 11 11 13 14 16 19 22 26 28 29 31 34 36 37
30 28 28 31 37 37 34 32 29 27 25 23 20 18 16 13 10 9 5 5 5 4 4 5 5 7 9 11 12 14 15 17 18 19 21 23 25 28 31 34 35 37 38 40
30 27 23 29 37 37 33 30 28 26 23 21 21 20 16 13 11 8 7 6 6 5 6 7 8 10 12 13 13 15 17 20 22 24 25 27 30 33 35 37 39 40 42 44
28 26 23 29 32 40 34 31 28 26 24 21 19 18 16 12 11 9 7 7 6 7 8 9 11 13 14 16 18 18 21 23 25 27 29 31 33 36 39 41 43 44 45 47
29 24 24 28 34 39 34 32 28 27 23 22 20 16 16 13 11 9 7 7 7 10 10 12 14 16 15 17 19 22 24 26 28 29 31 34 37 40 43 45 47 47 47 48
28 26 25 31 39 40 37 32 29 27 25 24 20 17 15 12 11 9 7 8 9 11 14 15 16 18 19 19 21 24 25 28 30 32 34 36 40 44 48 50 50 49 50 49
27 24 24 30 38 41 38 33 30 29 29 26 21 18 15 13 10 9 9 10 12 13 16 19 18 20 22 23 24 25 28 30 33 35 36 40 45 49 51 53 53 51 50 50
29 23 25 25 32 39 41 36 34 30 28 23 18 16 13 11 11 11 11 12 15 15 17 19 21 23 23 25 25 28 32 34 36 37 42 46 50 54 56 55 54 52 51 52
27 30 29 27 33 41 42 38 32 28 23 18 16 16 15 13 12 11 13 15 16 19 18 20 22 23 24 25 27 31 34 37 40 45 49 53 57 61 62 60 59 56 53 55
28 25 28 27 32 38 37 36 32 28 27 22 21 21 16 15 15 16 17 18 20 18 19 22 23 25 25 26 29 33 37 40 46 51 55 59 64 67 67 65 61 58 56 60
30 26 28 29 31 35 34 37 33 28 25 26 24 22 20 19 18 18 19 21 22 20 22 23 25 27 28 30 33 36 39 45 50 55 59 64 69 71 71 66 66 63 64 62
32 30 30 28 27 32 35 33 30 27 27 25 24 21 20 19 17 17 20 21 22 24 25 25 27 28 30 33 36 39 43 49 54 60 65 69 73 75 72 68 69 69 64 60
34 29 31 31 31 34 33 29 27 27 25 24 22 21 20 17 17 18 19 21 24 25 25 27 28 30 32 35 39 42 48 53 59 64 69 73 77 77 73 73 73 67 60 58

GFSNW_500_spd_072.txt.gz
Wind_Speed
3 6 17 33 35 44 36 36 25 25 22 26 27 20 9 12 12 12 19 20 16 14 20 19 20 19 22 22 17 14 16 15 12 10 7 9 10 11 8 10 11 14 16 17
4 15 25 45 33 26 42 34 30 17 21 18 17 13 5 13 14 13 22 22 18 13 18 21 21 24 22 19 20 20 15 14 14 11 6 2 5 7 10 12 17 16 17 16
10 19 26 49 31 52 35 30 26 23 18 14 11 7 11 17 17 21 23 25 20 17 15 16 17 19 17 17 17 9 10 15 13 11 7 1 2 2 5 9 14 18 21 20
20 27 42 48 39 41 40 30 23 15 17 16 10 10 17 20 19 20 23 22 21 21 18 13 9 10 15 13 9 8 7 6 3 6 6 4 1 2 5 7 9 10 13 18
25 29 42 35 35 48 32 33 21 19 19 13 11 13 20 23 23 20 19 22 21 22 23 18 13 12 8 4 2 3 3 5 6 10 4 3 3 5 3 4 7 11 12 12
35 41 46 30 39 42 34 26 19 19 17 17 20 20 22 24 25 24 22 22 21 20 18 17 15 17 15 9 5 5 8 6 8 10 4 3 1 3 6 7 9 11 13 15
52 38 35 32 39 34 28 23 20 22 20 23 25 26 27 25 24 24 23 23 23 22 19 15 13 14 17 17 10 7 4 6 6 6 5 3 5 5 6 7 9 11 13 15
43 42 32 37 35 32 31 27 23 21 23 28 26 27 28 30 30 24 25 22 20 19 17 16 16 15 16 14 12 11 7 6 5 5 5 6 7 10 11 13 15 17 19 22
52 37 33 35 34 30 29 26 25 22 25 30 30 29 29 28 27 26 25 25 23 19 17 14 14 13 13 15 14 14 13 12 12 12 12 13 13 16 17 18 20 22 24 26
44 36 29 31 29 28 27 28 25 23 29 33 30 28 27 26 27 27 25 24 22 21 18 15 13 12 10 6 8 8 7 9 9 10 12 13 14 17 18 18 17 21 24 26
39 36 30 26 24 26 31 30 25 26 31 34 31 28 26 24 23 24 22 21 20 20 18 16 15 14 11 9 9 7 6 4 5 4 7 8 8 10 11 11 12 15 18 20
40 33 26 24 22 23 31 29 27 29 31 33 31 26 22 20 20 19 18 18 17 16 15 13 12 10 9 7 6 4 2 2 1 3 5 6 8 10 12 14 17 20 23 25
34 24 26 20 19 23 29 29 28 29 30 30 28 25 21 17 16 14 14 12 11 11 9 8 7 6 5 3 1 1 3 4 6 8 11 12 14 16 18 20 23 25 27 29
28 23 23 20 21 31 30 27 28 28 27 26 24 21 19 17 15 13 10 8 8 6 5 4 3 3 1 3 4 4 7 9 11 13 15 17 20 21 24 26 29 31 33 35
23 19 18 16 25 30 26 25 25 26 25 24 22 20 17 15 12 10 9 7 6 5 4 4 4 5 4 5 6 8 10 12 12 15 18 21 22 24 27 29 31 35 37 38
23 18 18 18 30 29 25 23 23 24 21 21 20 17 15 13 11 9 8 7 6 6 6 6 7 7 8 9 10 12 13 15 18 19 21 24 26 28 30 32 34 37 40 41
20 16 15 14 26 27 24 23 23 24 22 20 20 17 14 12 10 10 9 8 7 7 8 9 10 11 12 13 15 17 19 21 23 25 26 27 28 30 31 34 37 40 43 46
21 16 17 15 26 29 27 26 25 23 22 20 17 16 13 12 11 11 10 9 9 9 10 11 12 15 16 17 19 20 21 21 24 27 28 30 31 33 34 37 41 45 48 50
23 20 21 20 29 30 29 27 25 23 22 19 16 15 16 14 14 12 10 9 10 11 12 13 14 18 18 19 21 22 23 24 26 29 31 32 34 35 40 44 47 49 52 53
23 21 18 21 30 35 32 29 27 25 23 20 19 17 17 16 15 14 13 12 12 12 13 14 15 18 22 21 22 23 25 26 29 32 33 36 37 42 46 50 53 55 56 59
28 22 20 20 28 38 37 32 30 26 23 22 19 19 17 16 16 15 13 13 14 14 15 17 16 21 23 23 24 26 28 28 32 35 37 39 43 48 52 56 59 60 63 63
30 24 23 21 28 36 36 37 33 28 26 24 22 19 18 16 15 16 16 14 16 16 17 20 20 24 24 26 26 28 29 31 35 37 40 44 48 52 57 61 64 68 69 66
35 29 24 22 30 39 41 34 34 29 26 24 21 21 19 16 16 15 16 15 16 19 19 22 23 24 26 28 29 30 32 34 37 41 43 49 53 58 63 66 71 73 71 74
34 32 27 26 30 35 38 35 33 30 26 25 23 23 21 20 18 18 17 18 20 20 21 23 24 25 28 30 31 32 34 37 41 44 49 54 58 64 69 73 76 77 78 73
37 36 31 31 29 26 28 32 36 30 30 27 28 26 24 22 20 18 18 20 22 22 24 24 25 27 30 32 33 34 36 40 44 48 52 58 63 69 72 77 79 81 77 74
43 39 33 30 30 26 24 33 36 37 34 33 26 26 24 21 20 17 18 20 23 26 25 26 28 29 32 34 35 37 39 42 47 51 57 61 67 72 75 79 82 79 77 73
47 41 31 28 27 26 28 36 38 38 35 28 28 25 21 20 20 16 18 21 24 25 26 28 29 32 35 36 37 39 41 46 49 54 59 64 70 74 78 81 78 79 71 63

GFSNW_500_spd_075.txt.gz
Wind_Speed
3 8 16 24 30 23 38 40 33 31 27 20 14 1 7 2 14 12 26 16 15 17 21 23 26 26 24 18 17 22 19 19 14 15 13 11 11 11 8 4 4 7 11 13
3 10 23 25 27 42 40 28 29 22 15 18 6 4 2 14 16 19 26 19 20 23 22 24 26 26 20 19 20 22 24 23 18 15 11 8 9 6 6 8 7 8 8 7
6 15 32 29 30 28 22 20 23 20 14 4 1 2 11 15 15 25 26 23 20 24 28 26 23 25 26 20 23 24 24 22 20 17 13 10 9 7 7 6 6 7 8 11
17 21 33 27 27 26 27 29 20 13 9 5 4 6 14 16 16 29 28 26 24 25 27 22 21 21 19 20 20 19 15 14 12 13 11 10 10 10 9 5 5 7 10 14
27 30 38 35 33 27 30 28 20 13 10 7 9 13 17 20 25 28 28 24 24 23 25 18 16 18 16 12 11 9 8 5 5 7 7 8 6 7 8 6 5 5 4 6
34 39 29 41 30 30 29 25 19 16 8 10 14 20 21 25 29 26 32 26 23 21 21 16 13 10 9 6 5 6 5 3 5 5 4 4 4 3 1 2 3 3 5 6
36 31 39 34 35 25 22 19 17 12 13 15 23 26 29 26 25 26 25 30 24 23 21 17 15 13 11 7 5 2 2 1 1 1 1 2 2 2 2 3 5 6 8 9
33 25 33 38 29 23 22 18 16 15 13 20 25 28 29 29 29 25 25 23 25 18 16 15 15 17 19 13 9 7 4 2 2 2 3 5 4 6 6 8 11 13 15 18
23 29 30 27 21 22 19 17 19 14 16 24 28 29 31 31 30 28 26 24 24 21 17 16 13 12 12 13 13 11 8 8 8 8 8 9 11 13 13 13 17 19 20 21
24 19 23 22 22 18 17 17 17 18 24 29 30 29 29 30 29 27 25 23 20 18 16 14 12 10 9 6 9 11 10 8 6 8 8 7 9 10 11 11 12 15 16 18
18 19 22 20 18 16 20 17 20 23 27 31 31 30 29 28 28 25 23 21 21 21 18 15 14 12 9 9 8 6 4 3 4 3 4 5 8 8 9 11 13 15 17 19
19 20 17 17 18 16 18 18 23 27 28 30 30 28 27 25 24 23 21 20 19 17 17 14 13 11 9 7 5 4 3 2 3 5 6 7 8 11 14 16 18 20 23 25
15 14 15 13 16 19 19 16 22 29 28 28 27 24 22 21 19 18 17 15 12 11 9 8 7 6 4 2 2 3 5 6 8 10 11 12 16 17 19 22 24 25 28 30
14 6 5 9 12 20 18 16 17 25 24 23 23 21 19 16 15 13 11 10 8 6 5 3 2 2 2 4 6 8 9 11 12 14 15 17 19 20 21 24 27 28 29 31
11 8 6 5 7 19 18 15 17 20 19 20 18 16 14 12 10 8 6 6 3 3 3 3 3 4 5 7 9 11 12 14 15 17 19 19 21 22 24 25 27 28 31 33
16 14 8 6 11 17 15 14 16 18 17 18 15 13 11 10 8 6 5 4 4 4 5 6 7 8 9 10 13 14 15 16 17 19 20 22 23 24 27 27 29 31 33 36
14 13 12 10 13 19 17 18 18 18 17 16 15 12 10 9 8 7 6 6 6 7 8 9 10 11 12 15 17 17 18 19 20 21 23 24 25 26 28 31 31 33 38 42
15 14 14 15 17 23 21 17 15 16 17 15 13 12 10 9 9 9 9 9 10 10 11 11 11 13 15 18 19 20 21 21 22 23 26 26 28 29 32 33 36 40 45 48
17 19 21 16 22 28 25 21 18 16 16 15 14 13 13 10 12 11 12 12 12 11 12 13 14 18 18 18 20 22 23 25 25 26 28 30 31 33 36 39 42 46 50 55
28 22 22 18 21 31 29 23 20 18 19 17 16 15 15 14 13 13 13 14 14 14 14 13 15 19 22 22 23 25 26 27 27 29 31 33 35 37 39 44 48 52 56 62
33 28 23 22 25 29 32 30 26 24 20 20 19 19 17 15 14 14 14 16 16 17 18 17 16 20 21 23 26 28 29 30 31 33 35 38 40 42 45 49 55 59 64 67
38 34 29 28 29 31 35 34 32 29 27 23 22 19 18 17 15 15 15 15 16 17 19 19 20 21 22 24 27 29 32 34 35 37 39 42 44 47 50 55 59 64 68 71
44 39 33 30 28 33 40 37 34 29 27 26 24 22 20 18 17 18 17 16 16 19 20 20 21 23 24 26 29 32 35 37 38 40 42 45 48 51 55 59 63 67 71 76
49 44 38 35 33 31 29 33 35 35 34 31 28 27 25 22 24 23 19 19 19 19 21 22 23 24 26 29 31 35 38 40 42 43 45 48 51 54 59 62 67 71 78 76
53 48 45 37 35 29 26 29 36 37 33 30 30 30 29 27 27 24 21 20 21 21 24 23 24 27 28 31 33 37 40 43 44 46 48 51 52 56 61 66 72 77 79 86
57 51 47 39 35 28 23 24 31 39 36 36 33 33 30 28 26 23 23 22 24 27 25 26 27 29 31 34 36 39 42 44 46 48 49 52 54 59 65 70 75 78 86 83
63 51 46 41 36 28 26 26 28 35 38 37 37 33 34 30 28 24 24 25 26 26 26 27 28 30 34 36 38 40 43 46 48 50 51 53 58 63 68 74 78 84 84 77

GFSNW_500_spd_078.txt.gz
Wind_Speed
13 14 24 26 33 30 27 37 40 36 33 28 20 21 33 28 32 29 22 18 17 23 33 30 29 25 19 16 21 23 24 23 21 24 21 19 17 18 19 16 16 12 11 11
14 21 20 29 24 31 29 26 32 29 19 20 23 29 35 29 36 28 23 20 25 30 27 27 26 22 25 26 24 23 22 18 14 18 18 16 16 15 13 12 12 12 11 9
21 17 22 24 32 35 33 22 19 20 23 23 34 37 32 32 39 30 27 25 31 29 28 23 21 25 28 31 33 30 27 22 17 15 16 14 14 15 14 13 10 10 7 6
23 22 28 27 23 22 21 19 17 20 23 31 33 33 30 34 36 31 26 27 31 29 25 29 26 28 29 27 25 23 21 20 17 15 14 15 15 15 14 12 13 11 12 11
32 28 26 20 18 21 24 23 19 12 28 28 33 33 31 36 37 29 27 25 28 26 26 24 23 25 21 18 16 14 13 14 14 15 13 15 15 12 12 14 14 13 13 14
26 25 22 19 21 20 20 19 20 20 23 28 30 26 33 43 40 32 30 27 25 23 23 20 17 13 12 14 13 13 12 13 12 11 11 10 10 10 8 8 7 7 9 12
20 22 24 22 22 20 18 18 20 19 21 24 25 29 37 41 37 33 31 29 24 21 19 16 12 9 5 4 8 8 8 7 7 7 6 5 5 6 6 5 5 6 8 10
20 19 21 18 17 18 18 21 22 20 20 22 28 32 33 34 33 30 29 26 24 21 17 12 8 7 6 3 4 3 3 3 5 3 2 1 1 4 5 6 8 9 12 14
17 18 18 15 15 17 19 21 19 19 18 25 29 34 34 31 29 27 25 24 22 20 16 14 11 12 12 11 10 7 4 3 3 3 4 6 8 8 8 9 11 10 12 13
14 13 11 15 18 18 19 20 20 22 24 26 29 30 31 30 29 27 24 21 18 16 15 14 13 10 8 4 3 2 1 2 2 1 3 4 4 5 6 8 10 12 13 15
13 13 12 13 13 16 18 19 23 25 28 30 30 30 30 30 28 26 24 20 19 17 14 13 12 10 8 7 7 6 4 3 1 0 3 5 7 9 10 12 14 16 18 20
11 13 13 9 10 16 19 20 23 25 26 28 28 27 26 25 24 23 20 18 17 16 14 13 11 9 7 5 3 2 2 2 4 5 7 9 12 14 16 19 21 23 26 28
8 9 8 6 7 12 19 22 23 26 26 25 23 22 21 21 19 18 17 15 13 12 10 8 6 4 1 1 3 4 6 8 9 11 12 13 15 16 19 21 23 26 29 32
4 3 3 4 7 9 16 20 23 21 21 21 19 19 17 15 15 13 12 10 9 7 6 4 2 2 4 6 7 9 10 12 14 15 15 17 18 19 20 22 24 26 29 32
6 6 8 8 10 10 11 15 16 15 14 16 15 13 11 10 9 8 6 4 3 2 0 2 3 5 7 9 11 12 14 15 16 19 19 19 21 22 23 24 27 29 31 33
11 11 13 13 13 14 17 12 13 12 11 12 11 8 6 4 3 1 0 1 2 3 5 6 8 9 10 13 14 14 16 18 19 19 21 22 23 25 26 28 30 32 34 35
17 16 14 13 16 18 17 15 12 11 9 9 7 5 3 3 3 3 4 6 6 8 9 8 10 12 13 16 16 17 18 19 20 21 23 24 26 27 29 31 34 36 38 40
25 19 16 16 16 21 22 18 15 14 11 10 9 9 7 6 7 8 8 8 9 10 12 12 12 14 16 17 18 19 20 21 21 23 25 27 30 31 32 35 37 39 42 44
25 25 21 23 20 21 26 24 19 17 14 13 13 12 12 11 12 12 11 10 11 11 13 13 16 18 17 18 19 20 21 22 24 26 28 31 32 34 37 39 41 43 46 50
31 28 26 25 26 26 26 31 25 21 18 15 15 15 15 15 15 15 12 11 13 13 13 15 16 21 21 21 22 21 23 24 27 29 32 34 36 38 40 42 45 47 52 54
37 32 29 28 28 29 30 33 34 28 23 20 18 18 18 20 19 17 16 15 13 14 17 16 17 22 23 23 24 25 26 29 31 34 36 39 40 41 43 46 49 52 55 58
40 37 35 32 31 33 34 36 36 35 31 25 23 21 22 23 21 19 19 18 16 16 18 20 20 23 25 25 26 27 29 32 34 36 39 42 43 44 46 49 51 55 58 63
51 47 46 42 38 37 35 32 31 37 36 33 31 28 28 26 25 24 22 22 21 21 21 22 24 24 25 27 28 29 31 34 36 39 42 45 47 48 50 52 55 59 63 69
65 59 53 50 48 43 37 32 32 34 40 37 34 34 36 33 30 30 26 26 28 27 24 26 27 25 26 29 30 31 34 36 39 42 44 48 49 51 54 56 59 63 67 73
61 66 60 55 50 45 40 35 34 33 36 42 40 38 39 39 37 33 33 27 26 27 29 30 27 26 28 30 31 34 36 38 41 43 46 50 51 53 56 59 62 66 72 78
36 59 63 56 52 47 43 38 37 35 34 38 43 43 41 39 39 34 32 30 26 29 32 31 28 27 29 31 33 36 38 40 42 45 48 51 53 55 57 60 64 71 76 81
32 31 55 57 55 51 46 42 38 36 36 35 41 45 42 41 39 35 31 29 33 33 32 32 28 28 30 31 34 37 38 40 43 47 50 53 55 56 57 61 69 74 80 79

GFSNW_500_spd_081.txt.gz
Wind_Speed
31 25 25 33 37 36 44 40 45 40 36 35 29 23 32 39 30 27 24 22 21 27 25 24 28 21 21 26 23 23 29 26 22 23 25 24 20 17 15 12 15 13 14 14
24 27 30 32 30 33 29 33 38 39 29 27 27 32 38 34 30 27 26 29 32 29 27 25 23 22 23 24 23 22 24 23 23 21 19 21 20 21 19 16 15 15 11 10
26 29 30 33 30 26 22 22 15 20 23 29 34 40 37 31 30 29 30 35 32 29 24 22 23 20 22 24 18 17 17 19 15 16 17 17 17 15 15 13 13 12 11 11
29 24 24 22 20 17 16 16 20 22 30 35 39 42 36 31 28 33 34 32 29 26 27 27 31 32 31 26 22 18 16 13 12 11 12 14 14 14 14 12 11 7 5 5
28 23 22 24 27 29 21 20 22 34 37 37 39 41 36 32 30 31 31 31 28 28 28 30 27 24 21 18 16 16 15 13 12 11 10 10 10 9 10 10 10 12 13 14
26 29 27 29 33 29 26 27 29 36 36 36 40 40 37 34 32 33 30 27 30 29 28 24 19 18 18 16 14 12 14 13 13 12 11 10 8 7 6 6 7 8 9 8
28 29 30 33 32 31 30 28 30 34 33 39 42 39 37 36 34 29 28 26 24 20 19 15 12 10 9 12 12 10 9 10 9 8 6 5 5 4 4 4 4 5 6 8
32 32 31 31 32 33 35 34 30 28 28 41 37 36 35 33 31 30 27 25 22 18 14 9 5 1 1 3 6 6 6 6 5 6 5 2 2 2 4 5 7 9 10 12
28 29 31 33 32 31 29 25 28 27 28 33 31 32 32 30 28 25 23 20 17 14 10 7 4 5 4 4 3 4 3 1 2 1 2 1 1 3 3 7 9 9 9 11
24 25 27 28 24 26 28 31 33 33 31 27 26 23 22 21 21 19 18 15 12 9 6 4 4 4 6 4 4 2 4 4 5 6 6 5 5 6 8 7 11 13 16 18
17 21 23 22 22 23 26 29 30 31 32 30 28 27 25 24 23 20 18 14 13 13 10 8 7 8 9 9 8 7 6 5 4 5 6 7 8 9 11 15 17 20 23 25
12 16 19 20 20 21 24 25 26 27 26 25 25 24 22 21 19 18 16 15 14 12 10 9 8 8 6 5 4 3 4 5 6 7 10 12 15 16 18 21 23 26 29 31
10 14 18 18 18 19 19 19 20 20 20 20 21 20 19 18 17 16 14 12 11 10 7 6 4 3 3 4 5 7 8 9 11 12 14 16 18 20 22 24 26 29 31 33
8 11 13 15 15 13 12 13 12 14 15 14 13 13 12 12 11 9 8 6 5 4 4 3 4 5 7 8 8 9 10 13 13 14 16 18 20 22 23 26 28 31 33 34
10 10 12 12 13 13 11 9 8 7 7 8 7 6 6 5 4 4 3 3 4 4 4 5 6 8 9 9 9 11 13 14 16 18 18 19 21 24 25 28 30 33 34 36
19 14 15 15 14 13 13 10 9 6 4 2 1 2 3 3 3 4 4 4 4 5 6 7 8 10 11 11 11 14 15 16 17 18 20 22 24 26 28 30 32 34 37 39
24 22 20 19 20 19 17 14 11 10 8 6 5 5 4 5 6 7 7 8 8 8 8 9 11 13 14 15 15 15 16 17 18 19 21 23 25 27 30 32 34 37 40 43
26 29 29 26 23 25 22 21 18 15 14 11 10 9 10 10 11 12 12 11 10 10 11 11 12 15 16 17 18 19 19 19 19 21 23 26 29 32 33 35 38 41 44 46
30 25 22 28 31 28 28 26 25 23 20 18 16 15 14 14 15 16 16 14 14 14 14 15 17 17 17 19 21 22 23 22 23 25 27 30 33 36 37 39 42 45 46 48
36 33 28 25 23 28 32 30 30 29 28 23 21 19 18 18 18 18 20 20 20 19 19 18 18 20 20 21 23 24 26 27 27 28 31 34 37 40 41 43 46 47 49 52
38 37 36 34 30 27 30 34 34 32 31 31 30 25 24 22 23 21 21 24 24 23 22 22 20 23 23 24 25 26 28 29 28 30 33 36 39 43 44 46 48 51 53 55
34 39 39 41 42 38 34 31 32 30 29 31 35 34 30 29 27 25 26 27 27 26 25 25 24 27 28 27 26 28 29 30 30 32 35 38 41 44 47 49 51 53 55 57
19 29 42 41 45 46 41 33 29 31 33 31 30 38 38 36 34 32 30 33 32 30 30 24 28 29 31 31 28 30 31 31 32 34 36 39 42 45 49 51 53 54 55 59
17 16 20 37 47 47 46 43 41 39 37 35 32 32 40 43 41 40 38 38 39 37 32 28 31 32 33 31 29 31 33 33 34 35 37 40 43 47 50 53 55 56 58 63
20 19 18 18 21 37 51 50 47 44 42 43 40 37 36 43 46 44 43 42 42 37 30 35 33 30 32 30 29 32 33 34 36 36 38 41 45 49 53 55 57 58 61 67
29 19 20 20 21 21 31 49 51 47 46 46 44 42 41 40 45 48 47 46 39 33 33 38 39 34 33 31 30 33 35 35 37 37 39 42 47 51 55 57 58 60 65 71
37 19 18 22 21 25 27 37 48 50 47 47 45 43 44 43 42 44 46 37 34 37 40 40 39 38 36 33 32 34 35 36 38 39 42 45 49 52 56 58 59 63 67 74

GFSNW_500_spd_084.txt.gz
Wind_Speed
44 43 40 37 41 44 44 43 42 41 37 31 26 20 14 39 30 26 21 20 22 25 23 23 19 15 13 15 19 14 21 20 19 17 19 18 16 19 19 16 18 16 12 14
39 33 27 28 30 34 33 26 30 30 31 27 27 33 36 28 27 24 22 22 24 24 24 24 21 23 21 27 24 20 21 22 22 21 21 19 17 17 15 15 18 17 17 16
43 38 33 24 13 13 20 17 17 25 30 40 39 34 31 27 26 28 30 31 30 26 22 18 16 21 21 20 19 18 18 16 14 17 18 17 17 17 16 16 14 14 11 12
51 44 37 30 20 16 15 17 14 26 43 39 34 31 30 28 32 32 29 27 28 28 25 20 19 17 14 14 13 11 10 10 12 12 11 12 12 12 10 10 11 10 9 7
48 44 38 31 27 22 23 25 25 40 40 36 33 30 30 34 36 31 28 29 31 32 31 31 27 23 18 17 13 12 10 7 7 5 5 4 3 3 3 2 2 1 1 3
50 49 43 43 35 31 32 34 38 38 38 36 34 32 34 33 27 26 27 32 31 29 27 26 22 18 15 12 12 12 12 10 10 10 9 8 7 4 1 2 4 4 5 8
52 55 53 50 47 41 38 40 38 37 35 35 33 33 31 29 27 28 28 29 25 21 18 16 15 15 15 13 9 8 9 9 7 7 5 4 4 4 3 2 1 2 4 6
46 49 47 47 47 44 40 39 35 35 33 34 34 32 28 24 24 26 23 18 17 12 9 8 8 9 8 9 8 7 4 3 4 5 5 2 3 2 0 2 4 5 6 9
39 43 44 45 47 45 41 37 36 29 29 28 25 20 19 17 16 14 14 11 8 5 3 4 6 5 6 6 8 7 7 8 8 8 9 8 9 10 10 8 8 12 15 16
30 34 35 37 38 39 40 39 38 34 28 23 20 17 13 11 12 10 8 7 6 7 7 8 9 10 10 10 10 11 11 11 10 10 10 8 8 8 9 11 14 15 17 19
20 23 27 29 30 31 31 31 30 30 30 28 25 24 19 18 17 15 14 12 13 13 12 12 13 13 12 11 10 9 9 8 8 8 8 10 12 13 14 17 19 21 22 25
11 14 18 20 22 23 24 24 24 23 23 22 21 20 19 18 16 15 14 13 12 11 11 10 9 9 8 8 9 9 9 9 10 11 12 12 14 16 17 19 20 22 24 27
6 8 10 12 13 13 15 17 18 18 17 18 17 15 14 13 13 12 10 9 8 8 7 6 6 6 7 8 8 8 9 10 11 12 12 14 14 15 16 18 19 22 25 27
7 5 5 5 5 6 7 11 11 11 11 11 10 10 9 8 8 7 7 7 6 6 6 7 7 7 7 8 8 9 10 11 12 11 12 14 16 17 18 20 22 25 28 30
11 10 8 6 4 3 3 3 3 4 4 5 6 6 6 6 7 7 7 7 7 7 7 8 10 10 10 10 11 12 12 12 13 14 13 15 18 20 21 22 25 28 30 34
17 16 15 14 12 10 7 7 6 4 4 3 3 5 6 7 7 8 8 8 8 8 9 10 11 11 11 11 13 15 15 14 14 14 14 17 20 23 26 28 30 33 35 39
20 21 19 20 19 19 17 15 13 12 11 9 8 7 7 9 10 11 12 11 11 11 11 13 14 15 15 14 15 16 16 16 17 17 18 21 24 28 30 32 34 36 39 43
24 23 23 23 22 23 20 20 21 22 19 17 15 13 13 13 13 13 14 15 15 16 16 16 17 18 18 18 18 20 20 20 20 22 22 24 26 29 32 34 37 39 42 45
30 30 27 26 23 26 27 25 23 23 25 25 23 22 20 18 18 18 18 18 19 19 20 22 21 22 20 19 20 21 22 23 24 25 26 25 27 31 33 37 39 41 44 47
28 34 36 34 29 28 27 28 28 27 26 26 28 31 28 26 24 23 22 22 23 23 24 26 22 21 23 22 22 23 24 25 26 27 28 28 29 33 36 39 41 43 47 49
9 18 34 34 37 34 32 31 30 30 30 28 28 32 33 33 32 31 30 29 29 28 26 28 25 22 26 24 26 27 27 28 29 30 31 30 31 34 37 40 42 46 50 52
13 11 14 23 24 33 40 39 35 34 34 31 32 32 33 35 36 36 37 37 37 36 33 31 23 25 29 28 29 30 31 32 32 33 33 33 33 35 38 41 45 49 52 54
20 17 12 10 13 15 19 32 37 38 41 39 35 31 29 31 33 38 42 43 43 42 42 34 23 27 29 33 33 32 33 33 33 35 36 36 36 36 39 42 47 51 54 56
29 23 17 16 11 11 13 15 25 35 40 42 42 41 38 36 36 37 37 42 46 48 44 33 34 33 32 34 36 35 33 34 35 36 38 38 38 38 40 44 48 52 55 57
35 31 25 14 17 16 14 16 18 22 30 41 45 48 48 43 40 41 42 41 41 42 38 35 36 34 36 37 37 38 39 37 36 37 38 39 39 40 42 45 49 53 55 58
39 34 29 20 22 25 22 22 21 20 23 26 36 49 52 47 44 40 41 43 41 39 38 39 39 37 39 41 40 41 42 41 41 38 38 40 41 42 44 46 50 54 56 58
40 30 31 26 28 29 26 26 25 25 25 26 28 34 44 53 50 40 39 41 41 43 42 42 42 40 40 41 42 43 45 43 43 42 39 40 42 44 45 47 50 55 56 58

GFSNW_500_spd_087.txt.gz
Wind_Speed
36 26 29 34 39 42 41 33 29 30 32 35 29 30 33 26 26 23 20 19 20 19 20 22 18 11 14 19 15 13 15 15 14 17 18 18 17 18 18 14 18 18 16 23
40 32 19 26 28 31 30 25 23 27 28 31 42 37 33 27 24 23 23 24 25 25 25 19 14 13 20 17 17 15 17 17 15 14 14 14 12 17 18 17 18 18 17 18
41 37 26 20 14 18 26 17 16 28 39 39 33 31 29 26 26 28 29 30 32 28 21 20 20 20 19 17 17 17 16 14 14 16 15 14 12 15 13 12 14 14 16 15
42 40 41 34 26 28 34 29 35 38 36 32 33 37 38 37 32 31 30 28 24 23 24 24 20 20 17 15 13 11 10 10 10 10 10 11 11 11 11 10 8 11 9 9
57 50 48 43 39 42 43 37 33 36 36 39 41 39 36 34 33 31 29 24 24 23 21 21 21 19 17 14 11 9 7 6 5 5 4 4 5 3 3 4 2 3 2 2
63 62 59 48 47 44 42 41 45 44 42 39 37 35 34 36 37 37 35 33 32 28 24 20 16 15 15 14 13 12 11 9 7 6 5 5 5 3 4 5 4 4 6 6
57 59 59 53 47 45 43 41 40 39 37 34 32 30 32 34 32 30 28 25 21 20 20 19 18 16 13 11 10 10 9 8 6 6 4 6 6 7 8 11 11 13 15 14
45 48 51 54 51 44 42 36 30 31 28 28 26 24 23 23 24 22 19 15 15 13 12 12 11 9 9 8 7 6 6 6 6 6 6 8 8 8 9 9 14 17 17 17
36 38 39 40 42 44 44 43 35 29 26 22 21 19 17 14 11 11 10 10 11 12 11 12 11 10 8 9 10 12 12 13 13 13 13 13 15 15 15 12 13 14 14 15
26 29 32 33 33 34 35 34 34 34 31 27 22 21 17 15 13 14 14 13 12 14 14 14 14 13 15 15 15 14 13 13 12 10 10 10 9 9 10 11 12 14 16 17
16 19 22 24 26 26 27 28 28 27 27 27 25 23 20 19 17 15 15 14 14 14 14 14 13 12 12 12 10 9 9 9 9 9 9 9 9 10 10 11 12 14 16 17
10 11 12 17 18 20 21 22 23 22 22 20 20 19 18 17 16 16 15 14 14 14 13 12 11 11 10 9 9 9 9 9 9 8 9 9 10 11 11 12 12 15 17 18
7 9 9 8 11 13 14 15 15 17 16 15 15 15 14 14 13 12 12 11 10 10 10 10 10 9 9 9 10 10 9 9 9 8 8 9 11 13 14 13 14 17 19 22
9 8 8 6 5 4 7 9 9 9 10 10 11 11 11 10 11 10 10 10 10 9 9 9 9 10 11 11 11 10 10 9 10 9 9 9 11 13 15 16 17 19 21 23
14 14 13 11 10 8 6 3 1 3 4 4 5 6 7 8 9 9 9 9 9 10 9 10 10 10 10 11 13 13 12 11 10 10 10 12 14 16 18 20 22 24 25 26
18 17 16 17 15 14 13 11 9 7 5 3 4 5 5 4 4 5 6 8 9 10 10 11 12 13 12 11 12 12 13 13 13 13 14 16 18 20 21 23 25 26 29 31
23 21 19 20 20 20 19 17 15 14 13 12 11 9 9 11 11 11 11 10 10 12 13 14 15 15 15 16 14 13 13 13 14 15 17 19 20 22 23 24 27 28 31 33
24 28 26 25 25 24 22 23 22 23 20 19 18 18 17 15 16 17 17 18 16 17 15 17 17 18 19 19 18 17 18 19 20 20 21 23 25 25 25 27 30 31 33 35
19 21 28 30 30 30 28 27 26 25 25 26 24 24 25 25 25 24 24 22 22 21 21 23 21 17 22 20 21 21 22 22 23 25 26 28 29 31 30 30 32 34 36 38
20 18 17 23 27 33 37 35 33 29 27 27 27 28 29 30 30 30 31 31 30 30 28 28 25 15 28 23 25 25 25 26 25 27 29 30 33 34 34 34 35 36 38 40
21 21 17 15 15 20 32 40 38 34 29 27 27 30 30 32 32 34 35 37 38 38 37 36 35 23 30 28 27 27 29 30 30 32 33 34 35 37 38 38 38 38 39 41
25 23 22 16 11 13 15 14 25 32 36 31 31 30 30 33 36 39 40 41 43 44 43 42 38 30 31 35 32 33 32 32 33 36 37 37 37 38 39 41 40 39 41 43
29 27 25 22 19 15 14 12 11 18 24 34 35 36 38 38 40 43 43 44 41 40 39 35 32 32 33 37 36 35 37 36 36 40 41 39 40 41 40 40 41 41 42 45
36 34 31 27 19 18 22 18 17 18 14 13 17 20 25 30 35 39 47 51 50 44 39 38 35 33 33 35 37 37 39 40 41 43 45 46 46 44 45 42 41 41 43 46
40 38 37 26 22 23 26 25 21 21 20 22 17 14 14 19 24 28 32 43 49 45 43 39 37 36 34 33 37 41 42 44 45 46 48 49 48 45 46 47 43 42 43 46
45 44 34 27 26 28 31 31 26 26 26 24 25 20 20 19 21 22 27 28 33 41 45 41 38 35 35 36 35 37 42 47 48 50 52 51 52 49 47 48 46 43 43 47
51 41 32 31 32 33 33 33 31 30 29 30 29 23 24 17 23 21 20 22 26 31 37 40 38 37 39 39 40 41 41 44 48 52 55 57 58 53 49 47 46 42 44 47

GFSNW_500_spd_090.txt.gz
Wind_Speed
28 28 31 33 34 35 34 32 32 32 32 34 36 34 35 30 28 26 25 25 22 25 23 19 12 16 20 15 11 13 15 14 11 11 15 17 15 18 18 16 16 17 14 16
41 35 26 31 25 27 31 28 25 23 25 29 33 30 27 26 28 28 28 29 28 25 19 12 18 22 16 14 13 13 14 14 10 10 13 17 12 17 17 16 17 17 16 17
55 51 46 45 42 39 43 39 35 35 32 31 29 29 31 31 32 34 32 30 25 18 15 19 21 18 17 18 17 16 14 13 11 11 13 12 11 14 14 16 14 15 15 16
66 61 56 51 45 44 43 42 43 41 41 41 41 40 41 40 39 36 30 25 24 25 22 21 19 16 16 14 11 12 13 12 10 9 9 10 10 9 9 11 8 10 9 10
64 62 57 50 46 46 46 42 42 41 39 37 37 36 35 34 30 29 31 29 24 24 23 19 15 13 11 9 8 9 9 7 4 3 2 3 4 2 2 2 3 4 3 2
54 57 56 52 48 45 40 39 37 37 38 38 39 39 38 38 37 34 30 26 25 23 20 18 16 14 11 10 8 6 5 4 4 3 3 2 2 4 5 5 6 7 10 12
46 48 50 49 49 48 44 38 35 34 33 34 34 33 32 31 29 26 24 23 21 19 18 15 13 12 10 10 10 9 8 8 7 7 6 8 9 9 11 12 12 11 10 10
36 40 42 43 43 44 45 41 36 32 27 27 24 23 24 21 19 19 19 16 16 15 12 9 8 7 7 7 7 8 9 8 8 9 11 12 12 11 9 10 13 13 13 13
28 30 34 35 35 35 37 38 36 34 31 30 27 25 23 20 17 18 19 19 18 18 17 15 14 14 13 12 12 11 11 11 10 11 10 10 10 10 9 9 11 11 10 11
20 22 24 27 28 28 29 29 29 29 29 29 27 25 24 24 22 22 21 20 19 19 18 18 18 17 15 15 14 12 11 9 8 8 7 6 7 7 8 8 8 11 12 13
10 15 17 18 22 23 22 23 23 23 23 23 23 22 21 20 20 19 17 17 16 16 15 15 14 13 12 10 9 8 8 7 6 6 5 5 6 7 6 7 8 10 10 10
3 6 10 11 14 16 17 18 19 19 18 18 17 17 16 16 15 15 14 13 12 11 11 11 10 10 10 9 9 8 8 8 7 7 7 8 9 10 10 9 9 10 11 12
10 7 3 5 6 8 10 11 12 13 13 12 12 12 12 12 11 10 10 10 10 9 10 10 9 10 10 10 9 9 9 9 9 8 6 6 6 7 9 10 11 14 16 17
14 14 11 7 5 4 5 5 4 5 6 6 7 8 9 10 10 10 10 10 10 9 9 9 10 10 10 10 8 8 7 7 8 8 9 10 12 13 14 15 17 18 20 22
19 18 17 16 13 11 9 8 6 4 2 1 0 1 1 2 4 6 7 8 9 10 10 10 10 9 9 11 11 11 10 9 10 11 13 14 16 18 20 22 23 25 26 27
22 23 22 21 22 20 18 17 15 13 12 10 8 7 6 6 6 6 6 6 8 9 10 11 12 12 12 13 15 13 15 14 14 15 16 18 19 21 23 26 28 30 31 32
7 22 27 26 26 26 26 24 24 20 19 19 16 17 15 15 13 12 12 13 14 14 14 14 16 15 15 16 19 17 17 18 19 20 21 22 23 25 27 28 30 32 35 37
12 9 14 25 29 31 31 32 29 28 27 25 25 24 24 23 22 21 21 20 20 19 20 20 21 21 22 21 26 21 22 24 24 25 27 28 28 29 31 33 34 34 35 37
19 16 12 14 12 17 29 38 36 33 33 31 28 31 31 32 31 31 30 30 30 29 29 29 29 26 28 34 30 27 29 30 29 30 30 30 31 33 35 37 38 39 39 40
27 25 19 16 16 12 16 23 28 31 34 34 30 34 33 35 35 35 34 34 35 37 37 38 37 35 35 35 40 39 36 35 35 35 35 35 35 37 39 40 41 42 42 42
31 32 28 22 19 16 12 12 14 17 21 26 30 34 36 39 37 35 36 37 40 43 39 40 39 41 43 42 41 42 41 38 37 37 38 39 39 39 41 44 45 46 47 48
37 36 35 30 25 22 20 14 16 14 11 13 23 32 37 40 41 42 41 40 43 42 37 40 40 40 42 40 35 35 39 38 37 38 40 41 43 44 45 46 48 48 50 49
40 41 41 39 35 30 23 22 22 19 13 12 11 15 18 24 21 24 31 30 34 31 32 35 41 42 42 40 34 31 31 34 37 38 40 42 45 47 47 49 51 56 54 50
43 42 44 44 43 33 29 31 29 25 22 19 16 15 15 16 18 20 23 26 25 24 30 31 29 31 36 37 33 30 30 31 33 35 37 41 46 50 53 53 53 57 57 54
46 45 46 47 41 37 35 35 35 31 28 27 25 24 23 21 21 19 26 27 24 26 26 22 24 22 26 31 34 34 33 33 34 36 39 41 44 46 48 50 52 52 53 51
49 49 48 39 37 39 38 39 41 39 34 34 30 30 28 27 22 22 30 30 27 27 25 27 26 25 25 27 30 34 36 37 39 41 43 44 45 47 50 53 56 54 53 51
54 51 44 36 38 40 42 41 43 43 40 39 36 32 34 27 23 28 33 35 31 28 27 27 26 29 30 30 33 37 40 43 45 44 45 47 47 48 50 53 54 55 53 51

GFSNW_500_spd_093.txt.gz
Wind_Speed
51 45 42 45 32 30 35 36 33 34 32 29 27 27 26 25 28 27 26 23 24 25 22 18 17 19 16 12 12 11 11 12 11 12 14 15 14 15 16 15 16 16 13 12
54 56 50 49 50 47 43 39 37 36 33 31 30 30 31 30 30 27 27 29 25 21 19 23 20 16 15 15 15 14 12 12 12 13 15 18 15 17 17 15 17 17 15 16
56 54 53 49 51 54 49 45 44 40 35 34 34 33 33 35 35 32 28 22 24 29 26 21 18 17 18 18 15 12 11 11 12 12 13 14 12 15 14 16 15 15 15 16
56 52 51 50 45 46 48 47 47 46 45 44 42 39 37 33 29 30 31 32 31 27 22 19 19 18 17 15 14 12 10 10 10 9 8 7 7 8 8 11 9 9 9 10
51 50 51 51 48 46 42 39 39 39 38 38 37 36 36 35 34 32 29 27 24 23 20 17 14 12 11 10 10 9 8 5 3 2 2 3 4 4 3 3 2 2 4 3
43 46 45 44 46 45 43 42 38 37 38 37 38 36 34 32 31 29 26 23 20 18 16 13 11 9 7 6 4 3 2 3 5 5 4 3 1 1 3 5 7 10 10 11
34 38 40 39 40 42 40 39 38 35 33 32 31 28 27 27 26 25 22 20 17 14 12 11 8 7 5 3 3 3 3 2 3 5 7 8 10 11 10 10 11 10 9 8
26 29 32 33 34 34 35 36 34 33 31 30 29 27 25 24 22 19 18 17 14 13 11 10 9 8 9 9 7 6 7 8 9 9 10 9 7 7 5 5 4 4 4 4
18 21 23 26 26 27 28 28 30 29 28 27 27 25 24 23 22 20 20 19 17 15 14 14 13 12 12 10 8 7 6 6 6 6 6 6 6 5 4 3 4 3 3 5
10 13 15 17 20 20 21 21 22 23 24 24 24 23 22 21 21 20 19 18 17 16 15 14 13 12 11 10 9 9 8 7 7 6 6 6 5 6 4 4 3 4 4 4
1 5 7 10 12 13 15 16 17 17 17 17 18 18 18 18 18 17 15 15 14 13 12 11 10 10 9 8 7 6 6 5 4 3 3 3 2 2 2 3 4 5 7 8
10 5 2 1 4 7 8 8 10 12 12 12 12 12 12 12 13 13 12 12 11 11 11 11 11 10 9 8 7 6 6 5 5 5 5 5 5 6 6 8 9 11 14 15
17 15 11 7 4 3 2 3 2 4 6 7 7 7 8 8 8 8 7 8 8 9 9 9 9 9 10 10 10 10 11 10 11 11 11 10 10 12 14 15 16 18 20 22
21 19 20 16 12 10 9 7 5 3 1 2 1 2 2 2 3 4 5 6 6 6 6 7 7 8 10 11 11 11 11 11 12 14 15 17 18 19 21 23 24 26 28 30
16 24 22 23 21 19 17 16 15 12 10 8 7 8 7 6 5 5 6 6 6 7 7 7 8 9 9 13 15 14 15 17 17 19 18 19 21 22 23 24 26 28 29 32
16 17 27 26 26 26 25 24 24 22 19 16 15 14 15 15 14 13 12 13 13 12 12 13 15 16 14 14 19 25 16 21 21 23 24 25 25 26 28 29 30 32 33 35
21 18 16 24 30 30 29 30 30 29 28 26 24 23 23 22 22 22 21 20 20 19 18 19 21 22 23 20 26 29 28 27 29 30 31 31 32 31 32 32 33 34 36 38
29 24 20 17 20 28 31 31 34 35 35 34 33 32 32 32 31 30 29 28 27 27 27 28 29 29 32 32 33 33 35 36 36 37 38 40 40 39 38 37 36 38 39 42
36 32 28 25 20 19 23 19 23 30 31 36 36 38 39 40 40 40 39 39 38 35 35 36 37 38 41 41 42 41 41 43 44 43 42 40 40 40 41 42 42 43 46 47
40 39 36 31 30 27 24 22 20 16 21 21 21 34 42 42 43 45 46 43 41 40 37 39 40 43 45 43 42 43 44 43 42 41 42 40 39 40 40 42 43 45 47 50
42 41 41 38 36 34 31 30 22 20 18 16 18 25 32 38 39 45 47 46 46 45 43 42 39 37 41 41 38 38 39 40 41 37 38 39 37 39 42 44 46 48 50 53
46 43 42 44 42 40 39 33 27 28 23 19 19 18 19 23 27 29 30 31 29 26 28 28 30 32 33 33 34 32 32 34 32 32 32 33 33 33 33 36 40 44 48 49
49 46 47 46 48 47 42 32 29 35 30 27 25 23 20 19 19 20 21 21 22 25 25 26 26 28 30 31 27 28 29 28 28 29 31 33 35 36 39 41 43 45 46 48
55 51 51 50 48 50 43 33 35 38 37 36 33 33 29 26 26 24 25 28 28 27 28 27 26 29 24 26 27 28 29 30 29 29 31 34 37 40 43 45 47 48 51 52
57 58 56 55 52 45 38 38 38 39 41 42 40 37 36 34 33 30 29 32 35 34 34 31 31 29 27 28 26 31 30 29 31 33 34 35 37 40 43 45 46 48 51 52
61 62 61 58 51 43 39 40 43 43 43 44 42 41 40 40 40 36 32 37 39 40 38 36 33 32 33 32 32 35 34 33 35 38 40 41 42 43 43 41 41 43 47 52
59 63 59 54 49 46 42 40 43 45 46 47 46 44 43 44 42 35 35 40 42 42 41 39 36 35 35 36 37 39 38 38 38 39 42 47 49 51 51 48 45 44 45 48

GFSNW_500_spd_096.txt.gz
Wind_Speed
57 60 59 47 42 39 38 37 35 35 32 27 20 22 25 23 27 26 25 26 28 23 18 21 21 17 14 15 14 15 13 13 13 15 17 15 15 14 15 17 17 16 13 13
53 52 54 54 53 50 44 39 39 38 36 28 25 30 33 33 31 30 27 25 22 22 25 23 18 18 19 18 16 16 15 14 13 14 15 17 16 15 15 17 18 20 18 16
48 48 47 48 47 48 48 47 48 47 45 44 41 38 35 31 27 26 29 31 30 26 21 20 22 22 19 17 16 14 14 14 13 12 13 13 13 13 12 11 13 13 14 15
44 46 46 44 41 41 43 42 42 42 39 36 35 34 35 35 34 34 31 27 25 24 23 22 21 19 16 14 12 11 11 10 9 8 7 8 9 10 9 7 6 7 6 7
39 40 44 46 44 37 37 35 35 37 37 36 35 34 34 34 32 29 26 24 23 22 20 18 15 13 12 9 8 7 5 5 4 6 8 9 9 8 7 6 4 3 5 4
31 34 35 38 40 40 36 37 37 35 32 30 29 29 28 27 25 24 23 20 18 14 13 11 10 8 6 5 2 1 4 7 9 11 9 7 3 2 3 4 4 3 3 4
24 26 29 30 32 36 36 32 32 32 33 31 29 27 24 22 20 18 16 14 11 8 5 3 0 1 2 4 7 7 6 3 2 3 4 4 5 6 5 4 5 5 4 2
17 19 21 23 25 26 28 29 28 28 28 28 29 27 26 24 22 20 18 16 14 10 8 8 8 7 7 7 6 5 5 5 4 3 3 3 1 3 2 3 3 3 2 3
9 12 14 16 17 19 20 22 23 22 22 23 23 22 22 20 20 19 19 17 16 14 13 11 10 9 8 6 5 4 3 2 1 0 1 2 2 2 3 3 4 4 3 4
3 4 7 8 10 11 13 14 15 17 17 17 17 17 17 16 15 14 13 12 11 11 11 10 9 8 6 6 6 6 6 5 5 6 5 6 7 6 7 7 7 8 10 11
11 4 3 3 3 4 6 7 9 10 11 11 12 12 12 11 12 12 11 10 10 10 9 9 9 9 8 7 7 6 7 7 6 6 6 8 7 8 9 9 10 11 12 14
17 16 10 8 7 5 2 2 2 3 6 7 6 7 7 7 7 8 8 8 7 7 7 7 7 7 9 9 9 9 9 9 9 10 9 10 11 13 13 15 16 17 18 20
20 19 20 17 14 13 11 8 7 6 4 1 1 1 2 3 4 5 4 5 5 6 6 6 7 8 10 10 11 12 12 14 14 15 17 17 19 19 20 21 22 23 24 26
17 20 21 24 23 21 19 17 14 13 12 10 9 7 5 5 5 5 5 5 6 7 8 9 9 10 11 13 13 14 14 15 17 19 22 20 24 24 25 27 28 29 29 30
18 19 23 25 27 28 27 25 23 21 19 18 17 15 14 13 13 13 12 12 12 11 12 13 14 16 15 15 21 27 23 19 22 24 27 29 30 32 33 32 33 33 34 34
21 20 22 26 25 30 32 33 32 30 28 25 25 24 23 21 20 20 19 19 20 20 20 20 22 23 22 20 19 29 33 33 32 31 33 35 38 37 38 38 39 40 39 39
30 26 24 25 28 27 30 34 35 38 38 35 32 30 30 30 29 29 28 28 27 26 26 28 29 30 33 31 33 33 35 37 39 41 41 39 41 38 39 40 39 38 38 39
37 31 28 26 29 31 30 30 31 35 38 36 36 34 37 38 37 38 38 37 36 34 33 34 36 36 42 41 40 40 42 43 42 42 42 41 40 37 37 37 38 38 39 40
43 42 35 31 29 35 38 34 29 27 27 25 19 28 36 37 43 44 46 47 46 44 42 44 43 41 43 43 44 47 43 40 40 37 38 39 38 35 32 32 34 36 38 39
48 47 44 36 35 38 42 42 37 32 27 23 20 25 28 30 32 34 37 39 43 44 43 44 42 38 41 43 43 40 37 36 34 33 36 36 33 29 31 31 31 33 35 38
58 53 51 48 40 42 45 47 45 40 32 30 25 30 28 27 26 27 30 33 32 33 34 33 34 26 33 32 33 33 33 33 28 32 32 30 29 28 29 33 36 38 40 43
68 63 55 52 47 45 48 50 47 43 38 35 35 34 33 30 27 26 25 28 31 26 25 26 20 24 25 27 28 30 32 31 33 33 32 31 32 32 32 34 37 41 44 47
74 70 64 58 56 54 54 53 48 41 43 44 41 38 36 35 32 31 28 28 28 28 24 23 25 28 31 31 30 33 34 34 32 35 33 32 35 36 35 34 35 37 41 43
72 69 70 66 65 64 55 50 46 43 44 47 46 45 42 39 39 39 36 34 32 33 33 33 33 33 34 35 36 35 35 35 37 38 38 37 39 43 43 41 40 38 37 38
66 74 70 76 69 63 59 48 47 45 45 49 50 49 49 46 44 43 41 38 35 35 41 38 39 40 40 40 36 34 34 35 36 37 37 39 40 42 45 48 50 49 46 47
63 69 77 80 70 60 57 52 50 48 46 49 50 50 52 50 51 47 42 38 34 46 46 43 43 42 42 43 42 37 36 37 38 39 40 41 43 46 47 48 49 53 54 51
70 59 60 60 63 57 55 52 51 49 49 50 52 50 51 54 53 48 40 37 45 49 50 49 48 45 44 44 43 41 41 41 40 40 42 42 45 48 49 51 52 52 54 56

GFSNW_500_spd_099.txt.gz
Wind_Speed
47 49 52 52 49 41 36 24 24 35 31 22 17 24 28 29 24 22 26 29 25 22 24 24 20 19 18 18 17 16 17 17 17 17 15 14 12 13 14 15 15 15 16 17
42 45 47 46 47 48 48 42 45 42 36 25 22 26 32 34 33 30 28 29 29 26 23 23 22 19 19 19 17 17 17 16 16 15 14 14 14 13 12 13 14 15 17 17
39 37 38 42 43 44 44 41 43 41 37 35 33 31 31 31 33 33 31 28 27 27 25 23 22 20 19 18 17 16 15 15 13 11 11 11 12 11 11 11 11 10 12 11
36 38 38 37 36 38 39 38 40 40 40 39 39 38 36 33 30 27 27 27 27 25 22 21 18 18 17 16 14 13 11 11 10 10 11 11 12 11 11 11 10 7 6 8
30 33 36 36 36 33 33 34 34 34 35 35 34 31 30 29 27 26 25 23 20 19 18 17 16 14 12 11 8 6 6 8 10 14 17 17 15 12 9 9 8 8 8 8
23 26 29 31 32 32 30 32 32 29 24 24 24 23 23 21 20 19 18 17 16 15 14 13 11 9 7 5 5 7 9 12 14 12 9 8 8 9 8 7 7 6 5 4
17 19 21 23 25 27 28 27 26 27 26 24 21 19 18 15 13 11 10 9 7 6 5 3 2 3 4 6 7 6 5 7 8 8 7 7 5 5 4 4 4 5 6 6
12 13 15 16 17 18 20 22 21 20 20 20 20 20 19 19 19 18 17 16 15 12 12 11 10 10 9 9 8 6 5 3 3 2 2 4 4 4 4 3 4 6 6 7
8 9 10 11 11 12 13 14 15 14 14 14 16 16 15 14 14 13 13 12 11 10 10 8 7 6 5 4 3 2 2 3 4 4 4 5 5 5 6 6 9 9 8 9
10 8 8 8 9 8 7 8 9 10 10 10 10 10 10 10 10 9 9 8 7 7 6 6 6 5 5 5 4 4 5 5 6 6 7 7 9 9 9 11 12 14 15 16
8 13 11 10 10 9 8 5 5 5 5 5 5 5 5 6 7 7 7 6 7 7 7 7 7 7 8 9 9 10 10 10 10 10 11 11 13 13 15 16 16 18 19 20
11 10 13 15 14 15 13 12 8 6 4 4 4 4 4 3 3 3 3 4 4 3 4 4 4 5 6 8 10 12 13 13 14 17 17 16 17 18 19 19 21 22 23 25
13 13 15 11 16 19 20 18 17 13 11 10 10 9 8 8 8 7 8 8 8 7 6 7 9 10 11 11 12 15 16 16 16 19 24 24 24 27 29 29 30 31 31 31
14 15 15 19 14 14 20 25 24 23 19 18 17 15 15 14 13 13 14 15 15 14 15 15 15 16 15 15 18 21 22 21 22 23 27 29 31 32 34 34 35 36 36 34
20 18 18 16 20 19 16 19 26 29 28 26 24 24 23 22 20 19 19 19 19 21 21 22 22 23 22 19 20 30 31 30 32 30 31 32 35 37 36 35 34 34 36 36
22 22 22 24 22 25 24 22 21 26 30 31 32 31 30 28 29 29 28 27 26 25 25 27 27 30 29 25 24 31 32 35 37 38 43 37 37 35 35 35 32 29 29 29
30 25 25 24 26 26 29 30 27 24 26 27 27 30 34 38 37 37 37 37 37 36 34 32 35 36 37 34 37 36 38 39 39 41 35 33 33 35 36 33 29 24 24 26
37 36 34 31 28 29 31 34 34 33 31 26 23 22 24 31 36 39 40 42 44 43 44 40 41 44 44 41 44 44 43 42 38 33 29 33 31 34 35 33 29 30 28 28
46 43 43 41 39 37 37 36 37 37 37 38 26 25 28 26 31 31 33 34 34 31 31 33 37 36 35 40 42 41 37 36 30 28 30 27 32 34 32 32 34 35 32 31
58 57 53 49 52 48 44 43 42 41 39 39 35 33 34 34 33 33 31 30 30 28 25 28 28 25 25 33 36 34 30 28 28 28 32 31 35 33 32 33 35 35 36 36
66 65 65 63 61 62 61 56 53 49 43 38 36 39 42 39 37 38 37 36 36 31 26 25 23 14 26 26 22 22 23 25 27 30 33 34 33 34 32 31 36 38 37 37
74 71 69 70 70 66 66 63 62 57 47 41 41 42 47 45 45 45 42 40 40 35 31 25 21 22 21 20 20 20 22 25 28 32 33 35 35 36 34 34 35 35 37 38
82 80 77 74 72 73 70 66 67 58 49 47 43 44 48 48 46 47 48 48 44 41 36 34 36 30 27 25 26 26 27 29 30 33 34 37 38 39 38 38 39 37 38 40
81 82 82 81 76 70 68 73 73 66 56 49 49 45 47 49 48 49 49 52 52 50 44 43 44 41 37 35 34 35 36 36 36 37 38 39 41 43 45 44 42 42 41 44
63 75 79 79 73 73 72 73 72 59 53 48 48 49 47 49 50 47 49 48 49 48 49 51 51 48 46 44 41 41 40 40 38 41 43 45 45 46 46 47 47 46 45 47
65 70 72 75 75 76 74 64 64 62 52 51 51 51 51 51 50 47 47 48 42 43 48 50 51 53 53 51 47 46 44 43 43 45 47 48 46 50 50 51 51 49 50 51
72 68 65 69 72 68 67 64 57 55 56 53 52 52 52 52 51 47 45 40 36 41 45 48 46 46 48 46 44 44 45 46 47 47 47 46 47 49 51 50 50 51 51 52

GFSNW_500_spd_102.txt.gz
Wind_Speed
41 44 46 45 43 41 36 27 29 34 31 29 23 28 25 26 28 29 27 25 23 25 25 24 20 20 20 19 17 16 16 15 15 15 14 13 12 13 13 12 11 11 13 13
35 37 40 43 43 41 39 38 40 37 33 34 37 37 35 34 33 32 31 29 26 24 23 23 23 22 21 20 19 17 17 17 16 13 12 11 10 9 8 8 8 9 10 10
33 33 36 36 39 40 39 40 42 41 37 38 37 36 35 32 32 31 29 28 26 25 25 24 23 21 20 19 18 16 15 13 12 11 11 11 11 11 9 6 7 8 9 9
30 31 32 35 33 33 37 36 36 37 35 35 34 32 32 31 30 30 28 27 25 23 22 21 20 18 16 14 13 12 12 12 12 13 16 18 17 13 9 8 8 8 9 11
23 26 27 29 32 30 27 25 28 30 30 29 28 26 26 26 25 24 23 23 21 20 18 16 15 13 12 10 8 9 9 12 11 15 12 8 10 10 10 10 10 9 8 9
16 19 21 22 24 27 28 26 23 21 19 19 20 20 19 18 18 17 17 16 15 14 12 10 8 8 7 6 6 6 8 9 6 8 9 10 9 10 9 9 8 8 9 10
11 13 15 17 18 19 21 22 22 22 21 20 19 16 14 12 11 10 8 7 6 6 3 3 2 3 4 6 9 9 8 8 8 8 6 6 6 8 8 8 8 9 10 10
7 8 10 11 12 13 14 15 17 17 17 17 17 16 15 15 14 13 13 13 12 10 9 9 8 7 6 6 5 5 4 4 5 5 6 6 6 7 8 8 8 11 12 13
9 6 7 7 8 9 10 10 11 12 13 13 13 13 12 11 10 9 8 8 6 6 6 5 5 4 4 5 5 6 7 7 7 8 8 8 9 10 11 12 14 15 16 16
13 12 9 8 6 5 5 6 7 8 8 9 9 9 10 10 10 10 10 9 8 8 8 8 7 7 7 7 8 8 8 9 10 11 13 13 15 15 16 18 20 20 22 23
7 10 13 14 11 9 7 4 3 5 7 7 6 7 6 5 6 7 7 8 9 9 9 9 10 10 10 10 11 11 12 13 14 14 16 15 16 17 19 20 21 22 23 24
7 7 10 12 17 18 14 12 9 6 7 9 8 8 10 10 9 8 8 9 9 10 9 9 9 11 12 15 14 17 15 15 14 16 18 20 22 23 23 24 25 25 27 27
13 12 11 10 13 16 20 21 18 15 13 11 12 13 12 12 13 14 12 13 12 12 12 12 13 14 13 15 15 19 20 18 17 21 26 27 28 28 29 29 28 28 28 29
16 15 14 13 14 15 18 17 20 23 22 20 19 17 16 16 17 18 19 19 19 19 19 18 18 19 19 18 18 23 27 24 25 23 27 29 33 30 25 25 26 27 28 27
21 17 16 17 18 17 18 20 20 21 21 25 26 26 25 24 24 26 26 26 25 25 25 25 25 26 25 20 20 25 36 30 33 31 32 34 34 26 24 25 28 27 26 28
29 24 20 18 17 20 21 23 24 24 23 23 22 25 31 32 30 31 34 34 34 35 34 33 32 36 38 34 25 33 35 36 38 37 36 33 27 23 22 25 29 26 23 25
34 32 31 29 25 22 23 24 25 26 28 27 26 24 22 28 32 33 34 35 37 38 36 36 39 41 45 42 35 47 43 41 38 35 31 28 22 22 24 25 29 24 25 26
41 37 36 36 33 32 30 31 27 28 30 28 26 26 28 33 30 34 35 35 35 33 32 29 29 33 35 28 32 38 39 36 33 28 27 21 21 23 24 27 27 25 27 28
49 46 44 42 40 40 39 39 39 39 38 35 24 26 29 33 36 37 36 37 37 36 31 30 30 26 26 32 35 36 35 33 27 27 24 19 23 26 28 31 31 31 31 31
59 58 55 51 48 49 48 48 49 51 48 45 30 31 33 35 38 41 42 42 41 41 34 32 30 26 35 35 36 36 32 27 24 21 23 23 26 30 34 36 37 36 37 38
65 65 64 62 58 58 57 57 56 55 56 53 45 38 40 40 40 44 47 48 49 50 42 38 30 28 31 32 32 31 29 26 23 23 24 26 30 33 34 34 37 37 39 41
71 69 69 70 66 64 64 62 63 63 63 61 54 52 47 43 42 45 46 46 48 51 51 46 35 36 35 34 33 33 30 28 27 28 30 32 34 34 35 36 37 38 37 37
73 73 74 73 69 68 64 64 63 65 67 68 66 58 55 49 47 46 49 52 49 49 51 45 38 40 37 37 36 37 36 34 32 32 34 38 39 38 38 39 40 42 39 38
71 74 77 73 68 69 68 67 65 70 73 73 72 71 62 54 47 49 49 50 50 50 44 44 42 41 39 38 37 36 38 38 39 36 36 40 42 42 41 44 46 43 41 42
69 73 74 69 63 64 66 68 69 68 70 70 69 69 65 57 52 45 48 49 49 46 42 44 45 44 43 40 41 40 37 35 39 41 37 39 43 45 44 44 44 41 39 38
66 69 71 63 65 66 69 70 68 66 66 60 61 60 63 57 55 56 48 50 49 46 46 48 48 48 47 46 44 43 38 34 33 34 37 40 43 43 43 44 42 40 38 39
65 65 59 60 61 59 60 64 61 62 63 54 55 56 54 56 58 54 48 42 44 47 51 53 52 52 50 49 48 46 39 33 30 31 37 42 42 41 43 43 42 37 38 40

GFSNW_500_spd_105.txt.gz
Wind_Speed
40 42 43 46 43 40 38 35 39 42 37 31 32 32 33 33 31 28 28 28 28 27 26 26 23 21 18 16 14 14 14 13 14 12 11 10 8 7 6 6 5 5 8 9
32 35 38 38 40 42 41 39 41 41 36 37 38 35 34 33 32 30 27 26 23 22 21 21 20 19 18 17 16 17 17 15 13 10 7 6 6 7 5 4 5 8 10 12
29 30 31 34 34 34 37 36 36 35 34 33 33 33 32 31 29 28 27 26 25 24 23 21 20 19 18 17 17 15 12 9 7 6 8 9 8 7 5 5 8 10 10 11
23 26 28 30 28 28 29 28 29 31 31 31 31 31 31 30 29 28 26 25 23 22 21 19 17 16 14 12 10 9 9 11 12 14 12 9 7 6 5 3 4 6 7 9
17 20 22 24 27 27 26 23 22 23 23 23 23 23 24 24 24 23 22 21 20 18 16 15 13 11 9 8 9 11 11 13 11 7 8 8 9 9 9 8 8 8 10 12
12 14 15 18 19 21 23 24 24 24 22 18 17 17 17 16 15 15 13 12 10 9 8 6 5 5 6 8 8 7 7 8 9 10 10 10 8 11 11 12 13 14 15 16
9 9 10 11 13 15 16 17 18 19 21 21 21 19 19 17 16 15 14 13 13 12 11 11 11 11 11 10 10 9 9 10 10 10 9 10 11 12 12 13 14 15 16 17
8 8 9 6 8 9 11 12 13 14 14 16 16 16 16 15 16 16 16 15 14 13 12 12 11 11 10 9 9 9 9 9 8 9 9 10 10 11 12 12 14 14 16 18
6 8 8 8 6 5 6 6 7 8 9 10 11 12 12 12 11 10 10 10 9 9 9 8 8 8 9 9 10 11 11 11 11 11 13 12 11 13 14 15 16 18 18 19
8 6 7 9 10 7 4 4 4 5 5 6 5 6 7 9 10 10 9 8 7 7 8 9 9 10 10 10 11 10 10 11 12 11 13 12 15 16 18 19 18 20 22 23
14 13 9 7 9 11 12 8 8 8 7 5 5 5 6 8 9 10 9 9 7 6 6 7 8 9 10 11 12 11 10 10 10 11 15 16 19 20 23 25 25 24 24 24
19 17 17 13 10 9 11 13 14 13 13 11 10 9 8 9 8 9 12 14 15 14 11 10 10 11 10 12 11 16 15 15 14 18 19 22 22 24 26 24 21 21 22 23
23 23 22 21 18 16 14 12 12 15 18 18 17 16 15 15 13 14 14 15 16 18 19 18 18 18 17 17 16 20 24 26 21 21 24 26 26 28 28 24 21 21 22 24
21 22 24 24 23 23 21 18 16 16 13 14 18 23 23 23 21 19 21 23 22 22 24 25 24 25 25 24 23 23 33 36 33 28 29 33 31 32 31 26 20 22 23 26
25 24 22 21 24 22 25 25 24 21 18 17 15 16 18 22 27 30 30 30 31 32 31 31 32 32 39 35 30 24 38 45 44 41 40 40 40 38 33 29 24 23 25 28
29 28 27 25 25 24 21 22 25 25 25 19 16 17 21 22 22 22 23 26 28 31 33 33 32 35 39 39 32 26 32 48 47 45 43 43 42 37 29 25 25 23 25 27
34 34 34 33 30 29 30 29 25 24 22 20 14 13 18 23 25 25 28 30 30 30 29 26 28 27 32 28 26 31 34 36 38 39 39 38 36 31 27 24 25 25 27 26
43 42 40 40 39 38 37 39 37 34 33 28 21 15 18 25 27 32 34 33 33 35 35 31 31 29 30 31 31 32 29 25 24 25 27 28 28 30 25 25 26 29 29 28
48 49 50 48 46 44 45 46 46 47 46 46 33 27 30 26 30 34 36 39 40 41 35 37 39 34 36 36 33 31 29 24 24 25 24 22 19 20 21 23 26 27 29 29
58 53 51 52 52 53 52 52 54 55 55 55 51 42 40 40 41 42 41 41 42 45 43 40 36 28 36 41 41 39 35 32 30 28 26 22 22 22 24 27 29 31 30 29
65 65 65 63 60 58 59 60 62 62 61 60 62 61 56 53 49 48 49 50 49 48 47 44 41 25 31 34 37 40 41 37 34 34 32 28 28 29 30 30 31 31 31 32
73 72 74 74 74 73 67 66 68 67 68 67 68 68 67 65 62 60 57 53 54 54 53 51 45 37 39 33 34 35 37 40 38 35 34 34 33 34 35 36 35 34 32 34
76 75 76 77 76 77 78 69 71 71 71 71 71 70 70 69 67 66 66 65 63 59 57 57 51 51 41 37 36 34 34 34 36 38 37 38 37 37 37 38 37 37 38 39
66 68 70 70 75 79 71 67 70 71 72 72 71 72 72 71 69 68 69 65 61 63 63 47 47 47 49 44 40 39 35 34 36 39 38 38 38 39 40 41 41 40 40 40
63 64 67 69 68 68 68 67 65 69 72 72 72 71 72 65 60 60 65 63 63 59 40 38 42 47 48 46 44 45 44 41 39 40 40 40 40 42 46 47 45 39 36 35
64 65 64 63 64 63 63 60 62 65 68 71 70 67 70 67 64 66 67 62 50 40 43 44 46 49 51 48 47 46 47 48 48 46 43 42 39 43 48 49 45 42 38 35
66 62 58 58 59 59 59 59 61 62 63 59 62 64 62 65 67 69 64 53 40 41 42 45 48 49 48 48 50 50 50 49 49 48 49 42 39 41 45 48 46 44 40 37

GFSNW_500_spd_108.txt.gz
Wind_Speed
31 33 37 39 41 42 42 37 38 40 38 35 35 34 34 32 32 30 28 26 23 22 21 21 21 19 18 16 15 13 12 12 12 10 9 7 4 2 1 2 2 2 4 9
31 29 29 32 35 37 39 36 37 37 36 32 34 34 33 32 30 29 28 27 26 24 22 20 19 18 17 17 17 17 16 14 11 8 4 2 4 5 5 7 7 9 10 9
25 27 27 24 27 29 32 32 33 35 34 34 33 33 32 31 31 30 28 27 26 25 23 22 22 22 21 20 17 14 10 7 5 4 5 5 6 6 6 6 7 9 8 8
22 23 24 25 24 25 28 27 26 28 28 30 29 29 29 29 29 28 28 26 24 23 21 19 18 16 14 13 11 9 8 8 7 7 8 8 8 8 8 8 8 9 11 13
16 19 20 21 22 23 23 27 26 27 25 24 22 23 23 23 22 21 20 18 17 16 14 13 11 10 10 9 8 9 11 11 10 10 10 10 10 12 11 11 11 11 11 14
8 13 16 16 16 17 19 19 23 24 24 25 25 25 23 21 19 17 16 14 13 12 12 11 12 12 13 14 13 11 11 12 12 11 11 12 10 13 13 13 14 14 15 16
9 5 8 12 12 12 13 14 14 15 18 19 20 20 21 20 19 19 19 18 17 16 16 15 15 14 14 13 13 13 12 12 12 12 9 9 9 9 10 11 12 13 14 16
16 10 6 5 9 10 9 9 10 11 12 12 15 15 16 16 16 17 17 15 15 14 13 13 13 12 11 11 10 10 9 8 6 6 7 7 7 9 10 11 14 13 16 18
17 16 11 10 7 7 9 8 6 5 6 8 9 9 10 10 11 11 11 11 12 11 11 11 10 9 8 9 9 8 8 7 8 6 7 8 10 13 15 16 17 20 21 23
19 18 16 14 13 12 10 8 9 10 9 7 5 5 5 5 6 6 7 8 9 9 9 10 10 10 9 8 7 7 8 9 11 10 11 12 15 19 20 21 23 23 22 23
18 20 20 17 16 12 14 16 14 11 11 12 10 9 8 8 7 6 6 5 7 8 8 7 9 9 11 11 12 12 12 13 12 15 18 19 19 21 24 28 27 26 25 23
17 20 22 19 19 18 17 15 14 17 18 16 16 16 14 14 14 12 13 11 9 10 11 12 12 13 13 14 14 18 21 25 23 25 23 29 27 27 30 31 32 29 25 23
22 20 20 24 24 23 22 21 19 17 15 16 19 19 21 22 22 20 20 22 19 17 17 17 17 19 22 20 19 21 23 32 33 35 30 32 33 31 33 31 32 31 28 27
29 26 24 21 21 23 23 23 24 21 19 18 18 17 17 17 20 23 24 26 26 28 30 27 26 27 29 27 30 24 27 32 40 40 39 38 37 37 36 34 33 31 28 25
30 31 29 26 24 24 23 23 24 25 21 21 22 21 21 19 19 22 22 20 20 22 23 24 23 24 29 26 22 13 24 31 38 35 38 37 38 39 38 35 33 30 26 24
32 31 28 27 29 28 26 26 26 23 23 21 20 18 19 19 18 19 19 22 24 24 23 23 24 26 28 23 20 18 23 25 29 27 29 28 31 31 33 32 33 29 27 26
34 34 33 31 30 28 30 32 30 32 31 28 22 18 18 23 25 25 26 28 29 30 28 23 25 27 32 28 29 31 30 26 25 26 28 29 32 32 32 31 29 27 27 26
35 36 37 37 35 35 35 38 38 38 39 38 35 27 26 30 31 33 36 37 38 39 37 34 30 28 28 27 37 32 35 31 29 29 30 30 27 28 28 28 28 25 28 29
39 40 43 41 40 40 42 45 47 47 46 46 43 37 41 38 38 41 44 44 45 46 44 44 44 36 33 41 37 32 34 35 32 31 33 35 35 29 26 26 28 29 32 32
52 51 49 47 47 48 48 47 48 50 51 52 52 52 50 50 51 51 53 55 55 53 54 54 53 47 39 44 44 43 38 38 38 35 35 36 35 35 30 29 30 32 36 39
58 57 55 53 52 53 57 56 58 59 58 57 59 59 59 59 60 60 61 62 63 62 60 60 60 56 48 46 45 45 45 44 42 42 38 37 37 33 29 30 33 36 37 40
67 65 64 63 65 65 65 62 60 62 66 69 72 73 72 70 68 68 67 68 69 69 68 67 65 59 59 57 55 52 48 45 43 40 40 38 36 35 33 35 37 39 39 40
72 69 69 63 59 58 61 63 63 65 68 70 70 71 71 71 69 69 67 70 73 74 73 70 64 67 63 60 57 56 50 45 42 40 39 38 39 39 40 40 41 42 42 43
71 71 70 68 68 70 65 59 60 63 66 67 67 66 66 67 68 68 67 69 70 73 69 62 56 53 56 58 53 49 46 41 40 39 38 38 40 43 44 44 45 45 46 48
61 63 65 67 65 60 57 59 60 60 62 65 66 66 66 64 65 63 65 59 58 59 47 46 54 58 57 50 46 42 44 48 49 45 43 43 43 43 45 45 44 43 45 47
62 63 65 60 57 57 56 55 54 56 59 61 61 62 65 65 67 67 66 68 67 61 55 56 59 60 55 50 50 48 49 49 48 48 47 46 46 44 45 46 42 39 45 47
60 55 54 58 59 57 55 56 57 54 56 58 61 63 60 64 66 66 68 65 58 56 56 54 53 58 56 54 53 52 52 49 47 44 45 46 46 45 45 46 42 40 39 43

GFSNW_500_spd_111.txt.gz
Wind_Speed
35 35 32 35 37 41 41 38 39 39 39 37 34 36 37 37 36 33 30 30 29 28 26 25 23 22 20 19 18 16 13 11 11 11 10 8 5 3 3 4 6 6 6 9
29 31 33 30 30 32 35 37 39 39 38 35 35 36 35 34 34 33 31 31 29 27 26 24 23 21 20 19 19 19 18 15 11 7 3 1 2 4 6 8 9 9 9 9
25 25 27 29 27 27 28 29 30 33 34 34 34 35 35 35 34 33 31 31 30 29 29 28 27 26 23 20 17 14 10 7 4 2 2 2 2 2 2 2 2 2 4 6
17 22 21 22 24 25 25 27 28 27 26 27 26 27 28 27 27 27 26 25 25 24 22 21 19 17 15 13 10 8 7 7 9 10 11 10 10 9 9 8 6 6 6 7
13 14 18 18 17 19 20 21 22 25 26 27 26 23 22 21 19 18 17 16 15 14 13 12 13 13 14 13 14 14 12 12 11 10 10 9 8 8 7 7 7 8 9 12
14 12 11 15 16 14 14 16 17 18 19 21 22 22 21 22 22 21 20 20 19 18 18 17 16 15 15 14 14 13 12 11 10 9 8 7 6 7 8 9 11 12 14 16
13 13 12 10 12 15 13 12 13 14 14 14 15 17 18 18 18 18 18 17 17 16 16 15 15 15 14 13 12 11 10 8 8 8 6 7 7 8 9 11 13 14 16 18
15 12 12 11 10 9 12 13 11 10 10 10 10 11 11 12 13 14 14 14 14 13 13 12 11 10 9 9 8 7 5 5 5 4 4 5 7 11 13 15 18 17 20 20
15 15 11 10 11 11 10 9 11 12 11 10 9 7 7 7 8 8 9 8 8 8 8 7 7 6 5 5 5 5 5 6 7 5 7 10 11 13 16 18 16 20 20 20
18 16 16 11 10 11 10 11 11 12 13 12 12 12 11 9 7 8 6 4 4 4 4 4 5 5 4 4 6 7 7 8 10 11 11 11 19 18 19 20 20 21 22 22
21 21 18 19 15 12 12 11 9 10 13 14 15 15 15 15 14 12 12 11 12 10 9 8 8 8 10 11 12 14 15 15 15 17 19 19 20 20 22 24 27 27 27 27
27 25 24 21 21 19 17 16 15 13 11 9 12 15 18 17 18 18 18 17 17 17 18 17 16 17 17 17 15 21 20 23 24 27 24 29 26 25 27 27 28 29 30 31
32 31 28 29 25 24 24 23 20 19 17 14 12 11 12 12 14 18 21 21 21 22 22 22 24 26 26 25 25 25 26 30 34 37 27 31 32 29 31 32 34 35 34 34
32 35 34 33 31 28 25 26 25 23 20 18 18 17 17 16 16 16 17 17 17 18 16 13 15 15 17 16 17 18 23 30 33 33 33 34 33 29 31 33 34 34 36 36
38 38 35 34 33 31 31 28 26 25 23 19 19 20 22 21 20 18 19 18 19 20 19 19 18 19 20 16 11 14 24 26 27 23 27 24 25 28 31 33 35 37 37 37
36 37 35 33 33 30 26 28 30 27 26 25 22 19 22 24 25 23 21 21 21 21 23 22 21 24 25 20 18 28 30 27 29 29 31 31 30 30 31 32 33 34 35 35
36 35 35 33 32 31 32 30 27 26 26 26 26 26 27 29 29 29 30 31 32 34 33 30 32 34 34 29 34 33 34 35 34 34 36 33 35 35 36 35 34 35 35 35
36 35 33 35 33 34 35 36 36 35 35 33 32 28 28 33 36 38 38 39 41 42 43 42 40 39 40 37 45 42 44 43 41 39 39 38 38 40 41 39 39 38 35 35
41 41 38 36 34 34 35 37 38 40 41 43 40 38 37 35 38 39 42 43 46 47 47 47 49 45 44 46 47 48 49 48 48 45 47 45 42 41 42 42 42 40 38 38
45 44 44 41 41 40 40 43 45 46 46 46 47 50 50 49 48 47 47 46 48 49 51 54 55 55 53 52 52 54 56 54 54 53 52 51 51 50 48 47 45 43 43 42
49 49 52 52 49 48 49 49 49 51 52 53 56 56 55 56 57 56 57 58 59 58 58 60 61 65 65 64 64 65 63 62 60 58 57 55 53 53 50 48 47 45 44 45
58 56 54 55 53 52 52 54 56 57 56 57 56 57 56 57 58 60 61 62 63 65 65 66 67 68 70 71 71 72 71 70 65 59 53 51 49 48 48 47 46 46 46 45
64 61 58 59 60 58 59 59 59 61 61 61 60 63 65 64 63 63 63 62 62 63 63 64 64 64 66 67 68 67 65 61 54 49 47 46 44 45 45 44 42 43 45 46
67 67 65 64 64 66 68 68 65 63 62 63 63 63 64 65 64 64 66 66 64 63 63 58 59 60 61 62 61 55 48 47 46 47 44 43 42 38 40 43 46 49 49 51
72 72 71 68 69 67 64 63 64 65 65 65 65 65 64 64 65 65 66 67 66 64 59 55 56 57 60 60 59 55 58 61 59 53 48 47 46 46 47 50 49 50 51 50
69 73 72 67 62 61 61 58 60 62 63 63 63 63 63 64 66 66 66 69 66 54 50 51 55 57 60 64 63 56 52 49 46 47 48 50 51 52 50 48 49 47 47 47
66 63 63 64 62 59 59 60 58 57 57 58 60 62 61 65 68 65 66 62 54 53 52 52 56 60 61 61 60 55 52 48 48 50 53 52 47 44 43 45 44 43 45 41

GFSNW_500_spd_114.txt.gz
Wind_Speed
32 34 34 30 31 35 39 40 40 42 41 39 37 37 37 37 36 35 34 33 31 29 27 27 25 24 23 23 22 21 20 18 16 15 12 10 9 8 8 7 7 5 6 7
26 28 31 32 30 28 29 32 34 36 37 36 36 37 37 35 35 34 33 32 32 31 29 29 27 26 24 22 21 21 20 17 14 11 8 6 4 4 5 5 6 7 7 6
20 22 25 27 28 28 27 26 26 27 28 29 30 31 32 31 32 32 31 32 31 30 30 30 28 26 24 21 18 15 12 9 7 5 5 3 2 2 2 1 2 1 1 4
15 16 18 21 23 24 24 24 24 25 23 23 22 22 23 23 24 24 24 24 23 22 21 20 18 16 14 12 10 9 10 11 11 11 12 11 9 7 5 4 4 5 7 9
14 12 12 14 17 19 21 22 21 21 21 21 22 23 23 23 22 21 19 16 14 14 14 14 13 12 14 16 14 13 12 12 11 10 8 7 6 5 5 6 7 8 9 11
12 11 10 10 10 12 15 17 18 17 17 18 18 18 19 20 19 19 19 18 17 16 16 15 14 14 13 13 12 11 11 9 7 7 6 6 5 6 6 6 8 9 11 13
18 10 9 8 8 8 8 9 12 14 15 15 15 15 15 15 16 16 15 15 15 14 13 12 12 11 11 10 10 9 8 7 6 5 4 4 3 5 6 9 10 11 14 17
17 17 10 8 7 8 7 7 5 7 9 12 12 11 12 11 11 11 11 11 11 10 10 9 9 8 7 7 6 5 3 2 0 0 1 2 4 6 8 9 13 12 14 16
15 17 17 13 9 7 9 9 9 7 5 5 7 9 10 10 9 7 7 6 6 6 5 5 5 4 4 4 4 3 3 4 6 6 7 8 11 12 13 15 16 17 19 20
18 16 18 18 15 13 10 10 11 13 12 9 7 7 7 8 9 10 10 9 8 8 8 7 7 7 7 8 10 11 11 10 13 14 14 14 19 23 23 23 21 23 25 25
22 19 17 21 19 18 19 14 12 11 11 13 14 13 13 12 12 11 12 11 12 12 12 13 14 13 14 14 15 17 18 20 21 21 23 25 27 27 28 29 29 33 33 34
27 25 23 19 24 22 22 23 20 19 16 14 13 13 15 16 17 18 18 17 17 17 16 16 17 19 19 21 20 24 24 28 28 30 27 34 33 29 31 32 36 37 37 39
29 29 29 24 19 24 26 25 26 26 25 23 19 18 15 14 15 15 17 18 16 17 14 13 16 21 20 22 20 21 23 31 28 26 24 29 31 30 28 30 31 33 34 35
34 31 30 30 29 25 26 30 29 29 27 26 24 23 21 19 18 18 17 18 18 17 16 13 11 12 14 15 16 18 28 24 23 23 23 21 28 30 31 34 35 34 34 35
38 38 36 34 34 36 32 29 30 30 30 25 23 24 24 21 21 20 19 20 20 19 17 14 12 14 13 10 10 24 27 29 30 26 29 26 27 30 33 35 37 38 39 40
39 40 40 39 34 35 33 31 30 27 27 29 29 25 25 25 25 26 26 26 25 25 24 23 22 25 28 23 19 29 35 33 33 35 36 36 37 38 40 37 39 40 41 44
41 40 40 38 35 35 36 33 31 31 29 27 25 25 26 29 30 30 30 33 34 35 36 33 34 36 39 35 34 40 40 41 42 43 42 40 41 41 42 42 42 43 43 44
44 41 40 40 37 36 36 36 35 35 35 33 33 30 30 32 34 35 35 37 39 40 40 38 38 39 41 42 43 43 45 47 48 48 49 50 49 46 44 45 45 45 47 49
44 45 41 39 41 39 37 37 36 37 37 37 33 32 34 33 36 36 39 41 42 43 44 44 46 47 48 49 50 53 54 53 55 55 56 55 56 56 56 55 53 51 51 52
46 47 44 42 43 43 43 43 42 41 40 38 39 41 40 40 40 41 41 42 44 46 48 51 54 56 57 58 59 58 59 62 63 63 61 60 60 60 58 57 55 53 51 50
49 48 47 47 48 47 48 47 44 45 45 46 49 48 48 47 46 48 48 48 47 47 48 50 52 53 56 59 59 61 62 63 65 66 65 64 61 58 56 53 50 48 49 49
51 54 54 53 54 53 52 52 51 50 52 52 52 52 52 51 51 53 54 54 55 56 57 57 56 58 59 59 59 60 63 66 67 66 64 62 58 51 45 41 41 43 46 51
52 54 56 57 56 58 57 57 57 56 56 56 57 58 59 61 62 61 62 63 62 62 62 63 62 60 57 58 61 64 65 65 62 60 55 51 42 36 35 41 45 45 48 49
59 57 58 57 61 62 63 64 63 62 63 64 63 65 65 65 65 62 63 65 64 64 65 64 57 59 63 66 68 67 65 63 60 55 52 52 52 49 53 57 51 50 53 49
61 61 60 61 64 63 63 64 66 67 67 68 68 67 68 67 66 66 67 69 69 67 61 54 59 64 67 69 70 68 65 60 56 55 55 58 60 59 52 48 48 52 54 52
65 64 63 63 60 61 62 63 65 67 68 69 70 70 70 70 71 70 70 71 68 59 59 59 60 63 66 69 66 66 64 58 52 51 53 56 56 54 51 50 51 50 51 51
70 66 62 60 61 60 60 62 62 62 64 66 68 70 70 72 72 70 69 63 60 61 63 64 64 64 64 63 62 62 61 58 54 52 52 52 54 55 56 56 55 56 59 59

GFSNW_500_spd_117.txt.gz
Wind_Speed
27 30 33 35 36 32 33 34 36 39 40 38 35 35 36 36 34 32 30 31 32 33 31 29 26 25 25 26 25 23 21 20 18 16 15 15 13 12 10 9 8 9 9 9
21 24 27 30 32 33 31 28 29 31 32 33 33 34 33 33 32 32 32 31 31 30 28 27 26 25 23 22 20 20 20 20 18 15 12 10 10 8 7 7 6 7 6 6
17 17 20 23 26 28 29 29 28 27 24 24 25 27 29 29 30 30 30 30 29 28 27 27 26 25 23 22 20 18 17 14 13 11 9 8 7 6 4 3 3 3 2 2
16 14 14 16 18 21 24 26 27 26 25 24 22 21 20 20 20 21 21 21 21 21 20 19 18 16 14 12 11 9 9 9 9 8 9 9 9 8 5 3 2 1 3 6
14 14 12 10 12 14 15 19 21 24 24 24 23 21 21 20 20 18 17 14 13 12 11 10 9 10 12 14 13 13 13 12 11 10 10 9 7 5 3 2 2 4 3 9
17 12 13 11 7 8 10 11 14 16 19 20 21 20 19 18 18 17 17 16 15 14 13 13 12 12 11 11 11 10 10 9 8 7 6 5 4 2 1 3 6 7 10 13
18 15 10 12 12 8 6 5 6 7 10 12 14 16 16 16 16 16 15 15 14 14 13 13 12 11 10 9 8 8 6 5 4 3 2 2 2 3 4 7 9 9 13 15
17 18 14 10 11 12 10 9 6 4 3 4 5 7 9 11 11 11 11 11 11 10 9 9 9 8 7 7 5 4 3 2 2 3 5 7 8 9 10 11 19 16 19 21
19 17 17 13 10 12 13 12 12 10 7 6 4 2 1 2 3 4 5 6 7 7 7 6 6 4 4 5 6 6 7 8 8 8 9 12 15 17 17 20 23 25 26 26
21 20 19 18 14 10 12 14 14 13 12 12 11 10 9 7 7 6 5 5 5 5 6 7 8 9 9 9 10 12 12 13 16 17 17 18 22 22 24 27 28 29 31 34
23 22 23 21 19 18 13 13 15 16 16 14 12 13 15 16 16 14 14 12 11 11 11 11 12 12 14 15 17 19 19 22 24 23 23 25 27 30 34 33 33 34 34 37
27 24 25 25 24 21 22 18 17 17 19 18 17 18 18 17 16 16 18 18 19 18 18 18 17 18 19 19 18 23 23 28 25 26 27 27 24 24 27 26 26 28 29 31
30 26 26 26 27 26 22 21 22 22 24 23 23 21 19 21 21 20 19 18 18 18 16 15 16 15 12 11 10 14 23 23 17 14 21 20 24 27 28 30 30 32 34 34
34 31 28 28 28 30 28 27 24 21 24 29 28 26 22 20 21 23 22 22 21 20 19 18 19 19 18 13 10 14 24 22 19 17 20 17 26 28 28 31 34 33 33 34
35 34 34 32 32 32 32 31 30 27 28 28 31 30 26 22 21 23 23 23 22 21 20 20 20 18 20 17 13 21 34 33 30 28 31 29 30 34 38 37 38 39 40 40
37 36 35 35 36 37 35 33 34 34 31 30 30 29 31 29 28 27 26 26 27 27 26 25 25 27 31 28 27 32 38 38 39 38 37 37 38 40 42 42 44 46 46 45
42 40 40 40 39 39 38 37 32 33 35 32 31 29 28 30 32 32 32 33 33 33 34 32 32 33 36 36 36 38 39 42 45 47 45 46 51 50 49 51 52 53 53 52
48 46 45 42 41 42 38 40 40 36 36 35 33 33 36 38 37 37 37 39 41 41 41 40 39 40 42 43 43 44 45 46 49 50 52 53 55 57 60 60 59 58 57 56
52 52 50 48 44 44 44 42 42 41 39 39 35 33 38 37 40 40 40 41 43 44 43 42 42 42 45 45 46 47 48 49 51 55 56 57 58 58 59 61 62 63 62 59
53 53 52 52 45 46 48 46 46 45 42 41 36 36 36 37 37 39 39 41 41 42 43 44 45 45 46 47 48 50 53 53 56 57 60 62 62 61 60 60 61 62 60 57
52 52 52 53 48 45 49 51 49 48 48 46 44 44 44 42 43 45 47 47 48 48 46 46 48 49 49 49 50 54 57 60 61 63 63 63 62 62 62 61 61 57 56 53
49 48 48 48 49 49 48 52 51 50 52 52 50 51 50 49 49 49 49 50 51 52 52 53 53 53 53 52 56 60 60 60 62 64 65 65 66 66 65 62 61 57 53 47
48 47 46 45 46 49 51 49 50 53 55 54 55 54 54 55 57 57 57 58 59 60 59 59 58 57 57 61 63 62 63 63 63 62 63 64 64 65 64 61 59 58 54 52
52 52 50 48 51 52 51 52 53 55 57 58 59 61 61 61 62 62 64 66 67 66 64 60 60 64 66 69 69 66 65 64 64 62 62 62 62 62 61 61 63 61 59 61
55 54 53 53 53 54 55 56 57 57 58 59 60 62 63 62 63 64 67 67 67 66 59 61 64 67 69 70 71 71 70 69 68 65 63 63 62 60 60 60 62 65 65 63
58 59 57 56 56 56 57 58 60 61 63 63 64 65 66 66 66 66 67 66 63 57 59 65 67 67 70 70 69 69 70 69 69 67 65 63 60 58 55 56 58 60 62 62
56 55 57 57 58 60 62 64 65 64 63 63 66 68 67 69 70 70 66 62 60 62 64 66 69 69 67 65 65 65 66 65 64 63 61 60 58 58 56 54 55 57 56 55

GFSNW_500_spd_120.txt.gz
Wind_Speed
22 24 26 29 32 34 36 34 35 37 39 40 37 36 35 32 32 32 28 27 27 24 20 19 16 17 19 21 21 21 20 20 17 17 14 12 12 13 14 12 9 10 9 9
17 19 21 23 26 29 31 33 33 31 31 32 33 35 36 34 32 31 28 27 26 24 22 21 20 20 20 20 21 20 19 18 16 14 14 14 13 12 11 10 9 8 8 9
16 15 15 17 20 22 25 27 29 31 30 28 25 26 28 29 30 30 29 27 26 24 23 22 20 19 19 18 18 17 17 16 15 13 13 11 10 9 8 8 9 7 5 6
16 13 13 11 13 16 18 20 23 26 27 27 26 26 24 22 21 22 22 21 20 20 19 19 18 17 16 14 14 13 13 12 11 10 8 7 6 6 6 4 4 5 4 11
15 15 11 11 9 10 12 14 16 18 21 23 23 24 23 22 21 21 20 20 18 16 14 13 12 12 12 12 12 11 11 9 9 9 9 8 6 5 4 5 6 7 7 17
18 15 14 10 10 8 7 8 10 11 13 15 16 18 20 20 20 19 19 18 17 16 15 14 13 12 12 11 10 9 8 7 6 5 5 5 4 5 6 8 9 9 12 17
16 17 14 14 11 9 8 6 5 6 7 7 8 10 12 14 15 16 17 16 15 15 14 14 13 12 11 10 9 8 6 5 4 2 2 3 5 5 6 10 10 10 15 19
14 15 16 13 13 12 10 8 7 6 5 6 6 4 4 5 7 8 10 11 11 11 10 10 10 9 8 8 7 5 4 2 2 2 5 7 7 10 12 15 19 20 21 24
16 15 16 17 14 13 12 12 10 8 8 7 7 9 7 6 3 2 1 1 2 2 2 3 3 4 4 5 5 4 5 7 8 8 9 12 16 17 19 21 24 25 28 30
21 18 17 17 17 16 14 12 13 12 10 9 8 9 11 12 12 11 7 7 6 7 6 5 6 6 6 7 9 9 10 12 14 14 15 19 21 23 25 28 28 30 31 31
20 21 20 19 19 19 19 17 13 14 13 13 13 12 11 11 13 14 15 16 15 14 13 13 13 14 14 15 16 18 19 20 20 21 20 22 23 23 24 22 21 23 23 26
23 21 22 23 22 21 21 19 18 17 17 15 15 15 16 16 16 15 14 12 14 12 14 16 18 19 20 21 20 22 21 21 15 15 16 16 15 20 23 22 21 23 25 26
28 26 25 23 26 25 23 23 21 19 17 20 21 19 19 18 20 21 19 19 18 17 16 16 18 17 15 16 16 17 23 22 16 15 22 19 22 28 26 27 28 30 33 34
33 31 30 27 25 27 28 25 24 25 26 25 23 24 25 26 22 21 21 22 22 22 21 19 17 17 18 17 16 20 28 25 22 21 25 25 31 34 35 34 35 36 38 40
35 34 33 32 29 27 28 31 29 29 30 30 30 29 30 33 31 24 23 23 23 23 24 23 22 22 25 21 19 24 33 35 34 33 32 34 35 37 40 42 43 45 46 47
39 39 39 37 34 32 32 31 31 32 33 32 31 31 30 30 32 32 32 31 29 29 28 28 26 29 33 31 28 31 34 38 41 43 43 42 42 43 44 46 48 50 51 54
41 44 44 43 40 38 37 36 35 36 35 34 34 30 29 32 33 34 35 36 36 36 36 33 33 33 35 35 35 38 39 41 46 50 52 53 52 48 49 51 53 54 54 55
46 46 48 48 46 44 43 42 41 41 40 38 38 33 31 33 35 37 39 40 40 40 40 39 38 39 41 43 40 41 42 45 47 47 46 45 47 50 53 55 57 59 60 60
53 52 51 51 51 48 47 48 47 45 45 44 39 38 35 34 37 39 40 41 40 43 42 41 38 35 38 37 36 38 44 44 43 44 46 48 50 52 54 55 56 58 59 60
59 56 55 53 50 51 52 51 50 50 47 47 43 39 41 41 38 40 42 43 43 44 43 42 42 40 40 41 44 47 47 46 46 47 50 53 56 56 56 56 56 57 59 60
59 54 53 55 53 52 54 55 53 52 50 45 41 41 44 44 46 44 45 47 47 49 49 47 48 44 43 45 50 51 53 55 56 57 57 57 58 57 56 57 60 60 61 62
52 53 53 54 55 55 55 57 52 47 47 44 40 39 42 46 49 49 51 51 52 53 52 53 52 48 53 57 57 60 62 64 64 63 61 59 59 61 63 63 61 61 60 61
51 52 53 54 53 55 55 51 47 45 43 43 42 42 43 44 47 50 51 54 55 56 56 55 53 56 57 60 62 63 64 64 65 64 64 62 60 62 64 63 63 63 63 64
47 50 51 51 52 51 49 48 46 47 46 46 47 48 48 48 48 50 51 53 56 58 57 53 57 59 63 63 63 64 65 67 68 67 67 66 63 63 60 58 59 60 60 60
44 44 47 48 50 51 50 50 50 51 51 51 51 52 53 53 54 55 56 57 58 57 55 58 60 62 64 65 66 68 70 70 68 68 68 68 68 66 61 58 57 58 59 58
50 50 51 52 52 53 54 54 55 55 55 55 57 57 58 58 59 59 61 61 60 57 59 64 67 69 71 73 74 73 71 72 73 72 70 69 67 65 63 59 58 58 57 55
53 52 52 53 55 55 56 57 57 58 57 58 59 60 62 63 64 63 63 60 57 62 66 69 73 76 77 73 70 71 73 72 72 72 69 66 64 63 62 59 56 57 56 57

GFSNW_500_spd_123.txt.gz
Wind_Speed
19 20 22 25 27 29 32 33 32 35 38 40 43 43 39 36 32 29 22 16 19 18 14 8 11 18 18 18 21 23 25 24 23 21 20 18 17 16 14 14 12 10 7 9
17 16 17 20 22 24 26 27 30 32 32 32 33 37 40 38 34 30 25 21 19 17 16 15 18 21 20 21 21 21 21 21 20 19 17 15 13 12 12 10 8 7 7 12
19 15 15 14 17 19 21 23 24 26 28 30 28 28 29 30 31 31 30 27 24 22 22 21 21 20 20 20 20 19 19 18 16 14 13 12 11 9 8 7 8 9 9 11
16 17 14 14 11 14 15 18 19 21 22 23 25 26 26 24 24 23 23 22 22 21 21 21 21 21 20 19 18 17 16 14 13 12 10 9 8 8 8 7 7 8 7 12
15 15 15 12 12 9 10 12 13 16 17 18 19 20 22 22 22 22 22 22 22 22 21 20 19 16 14 14 12 11 11 10 9 8 9 9 9 9 8 7 6 7 6 14
14 12 13 12 12 11 9 7 8 10 12 13 14 15 16 17 19 19 19 20 20 20 19 19 18 18 17 16 15 13 12 10 9 8 7 6 5 5 5 5 5 7 9 11
15 12 11 10 9 11 10 9 7 6 6 7 8 9 10 11 12 13 14 15 16 16 17 17 16 15 14 13 12 11 9 8 6 5 5 4 4 6 7 7 7 10 12 15
17 14 12 11 9 8 9 9 7 8 7 4 4 4 4 5 6 7 8 8 9 10 10 11 12 11 10 9 8 7 5 4 3 2 3 5 6 7 10 13 15 17 18 21
20 17 14 14 13 9 8 8 8 6 4 6 6 6 5 4 4 3 3 2 2 2 2 2 3 3 4 4 5 5 5 5 5 6 9 12 13 14 17 19 21 22 25 28
22 21 17 15 15 14 11 9 9 9 8 7 6 4 5 5 7 8 7 7 6 6 6 6 6 6 6 7 8 9 10 11 12 12 15 18 19 20 22 24 24 27 27 27
24 22 21 18 16 16 17 15 12 11 10 10 10 10 8 8 8 7 7 7 8 8 10 11 12 14 15 16 16 16 18 18 19 19 21 22 21 20 21 19 19 21 23 24
25 23 21 20 19 18 18 19 17 17 15 13 13 13 12 12 12 11 11 11 10 9 9 10 11 11 13 14 16 17 17 16 14 16 17 17 17 19 18 18 21 24 25 29
26 26 24 23 21 20 22 21 21 20 20 18 14 15 16 15 15 16 16 17 17 16 14 14 15 14 15 16 18 19 21 20 19 18 22 22 23 25 25 28 29 30 33 33
30 29 29 27 26 24 23 21 23 23 22 22 22 22 22 22 20 22 25 26 23 21 19 17 18 19 18 17 17 20 26 25 24 22 24 25 31 32 33 35 37 38 40 43
35 35 32 31 29 26 27 26 24 25 24 24 25 26 26 27 28 27 28 28 26 24 25 25 23 23 26 23 21 25 28 32 33 31 30 30 33 36 38 41 44 47 48 44
40 38 37 34 31 31 30 30 30 29 28 27 27 25 27 28 30 31 31 31 30 30 30 31 31 33 34 31 29 35 34 36 37 36 39 40 41 44 44 41 39 38 41 43
45 45 41 37 33 34 34 35 34 34 35 33 32 29 28 29 30 31 32 32 33 33 34 34 34 35 37 35 35 38 38 40 41 43 45 45 45 46 44 41 42 45 46 47
50 49 47 43 41 38 37 38 39 38 39 39 38 35 32 32 34 35 35 36 37 36 37 35 36 37 38 40 41 41 41 38 37 37 39 39 40 41 41 42 45 50 52 54
57 52 51 49 47 45 43 42 42 41 43 45 41 38 39 38 36 37 38 39 41 43 40 39 39 36 38 40 43 42 41 42 43 44 45 46 45 46 48 51 51 53 54 57
58 55 55 53 52 51 48 46 46 46 44 45 44 42 44 42 39 38 39 42 43 46 44 43 41 34 37 40 44 44 46 48 50 50 51 52 52 54 57 59 58 57 57 57
60 57 57 55 53 54 53 52 51 51 47 46 43 44 44 43 45 41 42 45 46 47 49 48 48 44 44 47 47 48 49 50 52 53 54 55 56 55 54 55 58 60 60 61
59 57 56 55 55 57 57 57 53 50 50 47 47 45 43 42 41 41 42 44 47 49 49 50 49 48 49 50 50 51 53 54 53 54 55 56 56 57 58 60 61 63 63 64
52 53 55 55 55 56 57 56 53 48 49 48 46 44 43 41 39 39 41 43 44 44 47 47 46 47 47 49 50 52 53 54 55 56 56 58 61 64 66 66 67 66 66 68
46 47 50 52 54 55 55 53 51 51 49 47 46 45 44 43 43 44 43 44 44 45 44 44 46 47 50 53 54 56 57 59 60 61 62 65 68 69 69 71 72 72 71 70
42 42 46 48 48 48 48 46 44 45 45 45 45 47 48 47 48 47 47 46 47 47 47 48 50 54 57 59 60 59 60 62 64 68 71 72 73 73 72 72 71 71 70 68
41 43 44 44 44 45 44 45 44 45 46 47 49 50 51 51 52 53 52 52 51 50 51 55 59 63 64 64 65 65 66 70 73 74 74 75 76 75 72 70 69 69 71 69
47 47 46 47 47 48 49 49 49 50 51 52 54 54 54 56 56 54 54 53 52 56 59 62 66 68 68 67 67 70 74 77 77 76 75 75 73 71 70 71 67 66 65 67